<?xml version="1.0" encoding="UTF-8" standalone="no" ?>
<gpx xmlns="http://www.topografix.com/GPX/1/1" xmlns:xsi="http://www.w3.org/2001/XMLSchema-instance" xsi:schemaLocation="http://www.topografix.com/GPX/1/1 http://www.topografix.com/GPX/1/1/gpx.xsd" version="1.1" creator="VisuGPX - https://www.visugpx.com">
  <metadata>
    <name>Marche pour la fête à RIGNAC 2015</name>
    <desc><![CDATA[Petite rando un jour de canicule]]></desc>
  </metadata>
  <wpt lat="44.80411" lon="1.6958">
    <ele>344</ele>
    <name><![CDATA[04/07/2015 8:55 (départ)]]></name>
  </wpt>
  <wpt lat="44.80542" lon="1.69484">
    <ele>333.9</ele>
    <name><![CDATA[04/07/2015 8:55 (fin)]]></name>
    <desc><![CDATA[Créé par Mes parcours sur Android  Nom : 04/07/2015 8:55 Type d'activité : automobile Description : - Distance totale : 7,88 km (4,9 mi) Durée totale : 2:44:23 Durée du déplacement : 2:29:38 Vitesse moyenne : 2,87 km/h (1,8 mi/h) Vitesse moyenne de déplacement : 3,16 km/h (2,0 mi/h) Vitesse max. : 7,65 km/h (4,8 mi/h) Vitesse moyenne : 20:52 min/km (33:35 min/mi) Allure moyenne : 19:00 min/km (30:35 min/mi) Vitesse maximale : 7:51 min/km (12:37 min/mi) Élévation max. : 384 m (1261 pi) Élévation min. : 321 m (1054 pi) Dénivelé : 111 m (366 pi) Inclinaison max. : 8 % Inclinaison min. : -12 % Date d'enregistrement : 04/07/2015 8:55]]></desc>
  </wpt>
  <trk>
    <name><![CDATA[04/07/2015 8:55]]></name>
    <trkseg>
      <trkpt lat="44.80411" lon="1.6958">
        <ele>344.01373291</ele>
        <time>2015-07-04T06:55:14.716Z</time>
      </trkpt>
      <trkpt lat="44.80402" lon="1.69584">
        <ele>332.3409729</ele>
        <time>2015-07-04T07:02:10.494Z</time>
      </trkpt>
      <trkpt lat="44.80401" lon="1.69583">
        <ele>332.364990234</ele>
        <time>2015-07-04T07:02:11.49Z</time>
      </trkpt>
      <trkpt lat="44.80392" lon="1.69584">
        <ele>332.561798096</ele>
        <time>2015-07-04T07:02:20.068Z</time>
      </trkpt>
      <trkpt lat="44.80392" lon="1.69584">
        <ele>332.554718018</ele>
        <time>2015-07-04T07:02:20.502Z</time>
      </trkpt>
      <trkpt lat="44.80385" lon="1.69575">
        <ele>332.681732178</ele>
        <time>2015-07-04T07:02:30.145Z</time>
      </trkpt>
      <trkpt lat="44.80384" lon="1.69574">
        <ele>332.700286865</ele>
        <time>2015-07-04T07:02:30.51Z</time>
      </trkpt>
      <trkpt lat="44.80379" lon="1.69564">
        <ele>332.789886475</ele>
        <time>2015-07-04T07:02:40.506Z</time>
      </trkpt>
      <trkpt lat="44.80379" lon="1.69563">
        <ele>332.735412598</ele>
        <time>2015-07-04T07:02:41.733Z</time>
      </trkpt>
      <trkpt lat="44.80375" lon="1.69552">
        <ele>332.32711792</ele>
        <time>2015-07-04T07:02:50.567Z</time>
      </trkpt>
      <trkpt lat="44.80375" lon="1.69551">
        <ele>332.362304688</ele>
        <time>2015-07-04T07:02:51.484Z</time>
      </trkpt>
      <trkpt lat="44.80372" lon="1.6954">
        <ele>332.147674561</ele>
        <time>2015-07-04T07:02:58.477Z</time>
      </trkpt>
      <trkpt lat="44.80371" lon="1.69538">
        <ele>332.139404297</ele>
        <time>2015-07-04T07:02:59.489Z</time>
      </trkpt>
      <trkpt lat="44.80367" lon="1.69527">
        <ele>331.910186768</ele>
        <time>2015-07-04T07:03:07.469Z</time>
      </trkpt>
      <trkpt lat="44.80367" lon="1.69525">
        <ele>331.925109863</ele>
        <time>2015-07-04T07:03:08.492Z</time>
      </trkpt>
      <trkpt lat="44.80363" lon="1.69516">
        <ele>332.403442383</ele>
        <time>2015-07-04T07:03:15.49Z</time>
      </trkpt>
      <trkpt lat="44.80362" lon="1.69513">
        <ele>332.499450684</ele>
        <time>2015-07-04T07:03:16.492Z</time>
      </trkpt>
      <trkpt lat="44.80361" lon="1.69501">
        <ele>332.511413574</ele>
        <time>2015-07-04T07:03:23.502Z</time>
      </trkpt>
      <trkpt lat="44.8036" lon="1.695">
        <ele>332.493621826</ele>
        <time>2015-07-04T07:03:24.449Z</time>
      </trkpt>
      <trkpt lat="44.80356" lon="1.69489">
        <ele>332.074066162</ele>
        <time>2015-07-04T07:03:32.507Z</time>
      </trkpt>
      <trkpt lat="44.80355" lon="1.69489">
        <ele>331.939208984</ele>
        <time>2015-07-04T07:03:33.477Z</time>
      </trkpt>
      <trkpt lat="44.80358" lon="1.69477">
        <ele>331.528289795</ele>
        <time>2015-07-04T07:04:01.519Z</time>
      </trkpt>
      <trkpt lat="44.8036" lon="1.69476">
        <ele>331.495269775</ele>
        <time>2015-07-04T07:04:02.495Z</time>
      </trkpt>
      <trkpt lat="44.80367" lon="1.69472">
        <ele>331.691314697</ele>
        <time>2015-07-04T07:04:08.441Z</time>
      </trkpt>
      <trkpt lat="44.80368" lon="1.6947">
        <ele>331.746673584</ele>
        <time>2015-07-04T07:04:09.523Z</time>
      </trkpt>
      <trkpt lat="44.80374" lon="1.69464">
        <ele>332.185668945</ele>
        <time>2015-07-04T07:04:15.139Z</time>
      </trkpt>
      <trkpt lat="44.80376" lon="1.69463">
        <ele>332.237030029</ele>
        <time>2015-07-04T07:04:15.489Z</time>
      </trkpt>
      <trkpt lat="44.80384" lon="1.69458">
        <ele>332.316772461</ele>
        <time>2015-07-04T07:04:25.266Z</time>
      </trkpt>
      <trkpt lat="44.80384" lon="1.69458">
        <ele>332.305480957</ele>
        <time>2015-07-04T07:04:25.822Z</time>
      </trkpt>
      <trkpt lat="44.80393" lon="1.69457">
        <ele>332.228271484</ele>
        <time>2015-07-04T07:04:32.479Z</time>
      </trkpt>
      <trkpt lat="44.80394" lon="1.69456">
        <ele>332.224243164</ele>
        <time>2015-07-04T07:04:33.482Z</time>
      </trkpt>
      <trkpt lat="44.80402" lon="1.69455">
        <ele>332.522186279</ele>
        <time>2015-07-04T07:04:41.525Z</time>
      </trkpt>
      <trkpt lat="44.80404" lon="1.69454">
        <ele>332.529907227</ele>
        <time>2015-07-04T07:04:42.505Z</time>
      </trkpt>
      <trkpt lat="44.80412" lon="1.69452">
        <ele>332.860351562</ele>
        <time>2015-07-04T07:04:52.535Z</time>
      </trkpt>
      <trkpt lat="44.80413" lon="1.69451">
        <ele>332.838623047</ele>
        <time>2015-07-04T07:04:53.497Z</time>
      </trkpt>
      <trkpt lat="44.8042" lon="1.69451">
        <ele>332.933288574</ele>
        <time>2015-07-04T07:04:57.479Z</time>
      </trkpt>
      <trkpt lat="44.80422" lon="1.6945">
        <ele>332.936126709</ele>
        <time>2015-07-04T07:04:58.497Z</time>
      </trkpt>
      <trkpt lat="44.80431" lon="1.69449">
        <ele>333.02545166</ele>
        <time>2015-07-04T07:05:06.698Z</time>
      </trkpt>
      <trkpt lat="44.80431" lon="1.69449">
        <ele>333.065307617</ele>
        <time>2015-07-04T07:05:07.423Z</time>
      </trkpt>
      <trkpt lat="44.80439" lon="1.69449">
        <ele>333.394165039</ele>
        <time>2015-07-04T07:05:14.951Z</time>
      </trkpt>
      <trkpt lat="44.8044" lon="1.6945">
        <ele>333.408843994</ele>
        <time>2015-07-04T07:05:15.493Z</time>
      </trkpt>
      <trkpt lat="44.80448" lon="1.69452">
        <ele>333.418731689</ele>
        <time>2015-07-04T07:05:24.499Z</time>
      </trkpt>
      <trkpt lat="44.80449" lon="1.69452">
        <ele>333.465026855</ele>
        <time>2015-07-04T07:05:25.517Z</time>
      </trkpt>
      <trkpt lat="44.80458" lon="1.69452">
        <ele>333.801818848</ele>
        <time>2015-07-04T07:05:31.144Z</time>
      </trkpt>
      <trkpt lat="44.80458" lon="1.69452">
        <ele>333.871520996</ele>
        <time>2015-07-04T07:05:31.487Z</time>
      </trkpt>
      <trkpt lat="44.80467" lon="1.69454">
        <ele>334.096313477</ele>
        <time>2015-07-04T07:05:39.505Z</time>
      </trkpt>
      <trkpt lat="44.80468" lon="1.69454">
        <ele>334.096099854</ele>
        <time>2015-07-04T07:05:40.498Z</time>
      </trkpt>
      <trkpt lat="44.80476" lon="1.69453">
        <ele>333.648284912</ele>
        <time>2015-07-04T07:05:50.473Z</time>
      </trkpt>
      <trkpt lat="44.80477" lon="1.69453">
        <ele>333.631439209</ele>
        <time>2015-07-04T07:05:51.486Z</time>
      </trkpt>
      <trkpt lat="44.80486" lon="1.69458">
        <ele>333.966308594</ele>
        <time>2015-07-04T07:06:02.108Z</time>
      </trkpt>
      <trkpt lat="44.80486" lon="1.69458">
        <ele>333.997772217</ele>
        <time>2015-07-04T07:06:02.6Z</time>
      </trkpt>
      <trkpt lat="44.80493" lon="1.69454">
        <ele>333.30960083</ele>
        <time>2015-07-04T07:06:12.279Z</time>
      </trkpt>
      <trkpt lat="44.80495" lon="1.69453">
        <ele>333.243377686</ele>
        <time>2015-07-04T07:06:12.663Z</time>
      </trkpt>
      <trkpt lat="44.805" lon="1.69443">
        <ele>333.368774414</ele>
        <time>2015-07-04T07:06:20.483Z</time>
      </trkpt>
      <trkpt lat="44.805" lon="1.69442">
        <ele>333.376739502</ele>
        <time>2015-07-04T07:06:21.43Z</time>
      </trkpt>
      <trkpt lat="44.80502" lon="1.6943">
        <ele>333.336029053</ele>
        <time>2015-07-04T07:06:28.498Z</time>
      </trkpt>
      <trkpt lat="44.80502" lon="1.69428">
        <ele>333.356842041</ele>
        <time>2015-07-04T07:06:29.485Z</time>
      </trkpt>
      <trkpt lat="44.805" lon="1.69417">
        <ele>333.67956543</ele>
        <time>2015-07-04T07:06:37.494Z</time>
      </trkpt>
      <trkpt lat="44.805" lon="1.69416">
        <ele>333.721374512</ele>
        <time>2015-07-04T07:06:38.481Z</time>
      </trkpt>
      <trkpt lat="44.80502" lon="1.69403">
        <ele>334.114379883</ele>
        <time>2015-07-04T07:06:46.507Z</time>
      </trkpt>
      <trkpt lat="44.80502" lon="1.69403">
        <ele>334.0887146</ele>
        <time>2015-07-04T07:06:47.528Z</time>
      </trkpt>
      <trkpt lat="44.80504" lon="1.69391">
        <ele>334.497619629</ele>
        <time>2015-07-04T07:07:01.481Z</time>
      </trkpt>
      <trkpt lat="44.80505" lon="1.69389">
        <ele>334.619812012</ele>
        <time>2015-07-04T07:07:02.481Z</time>
      </trkpt>
      <trkpt lat="44.80513" lon="1.69383">
        <ele>334.180908203</ele>
        <time>2015-07-04T07:07:31.417Z</time>
      </trkpt>
      <trkpt lat="44.80512" lon="1.69382">
        <ele>334.140960693</ele>
        <time>2015-07-04T07:07:32.411Z</time>
      </trkpt>
      <trkpt lat="44.80509" lon="1.69372">
        <ele>336.548339844</ele>
        <time>2015-07-04T07:09:12.495Z</time>
      </trkpt>
      <trkpt lat="44.80508" lon="1.69371">
        <ele>336.477142334</ele>
        <time>2015-07-04T07:09:13.49Z</time>
      </trkpt>
      <trkpt lat="44.80505" lon="1.6936">
        <ele>336.273376465</ele>
        <time>2015-07-04T07:09:22.476Z</time>
      </trkpt>
      <trkpt lat="44.80505" lon="1.69359">
        <ele>336.270629883</ele>
        <time>2015-07-04T07:09:23.504Z</time>
      </trkpt>
      <trkpt lat="44.805" lon="1.69349">
        <ele>336.470458984</ele>
        <time>2015-07-04T07:09:30.145Z</time>
      </trkpt>
      <trkpt lat="44.80499" lon="1.69348">
        <ele>336.551727295</ele>
        <time>2015-07-04T07:09:30.499Z</time>
      </trkpt>
      <trkpt lat="44.80494" lon="1.6934">
        <ele>338.849487305</ele>
        <time>2015-07-04T07:09:52.415Z</time>
      </trkpt>
      <trkpt lat="44.80493" lon="1.69337">
        <ele>339.085540771</ele>
        <time>2015-07-04T07:09:53.515Z</time>
      </trkpt>
      <trkpt lat="44.8049" lon="1.69326">
        <ele>340.581298828</ele>
        <time>2015-07-04T07:10:00.722Z</time>
      </trkpt>
      <trkpt lat="44.8049" lon="1.69323">
        <ele>340.823608398</ele>
        <time>2015-07-04T07:10:01.562Z</time>
      </trkpt>
      <trkpt lat="44.80488" lon="1.69312">
        <ele>342.487243652</ele>
        <time>2015-07-04T07:10:11.08Z</time>
      </trkpt>
      <trkpt lat="44.80488" lon="1.6931">
        <ele>342.710357666</ele>
        <time>2015-07-04T07:10:11.484Z</time>
      </trkpt>
      <trkpt lat="44.80486" lon="1.69299">
        <ele>343.377471924</ele>
        <time>2015-07-04T07:10:20.022Z</time>
      </trkpt>
      <trkpt lat="44.80485" lon="1.69297">
        <ele>343.380767822</ele>
        <time>2015-07-04T07:10:20.478Z</time>
      </trkpt>
      <trkpt lat="44.80486" lon="1.69285">
        <ele>343.06539917</ele>
        <time>2015-07-04T07:10:42.473Z</time>
      </trkpt>
      <trkpt lat="44.80485" lon="1.69284">
        <ele>343.069061279</ele>
        <time>2015-07-04T07:10:43.474Z</time>
      </trkpt>
      <trkpt lat="44.80481" lon="1.69273">
        <ele>342.979888916</ele>
        <time>2015-07-04T07:10:50.695Z</time>
      </trkpt>
      <trkpt lat="44.8048" lon="1.69272">
        <ele>342.983764648</ele>
        <time>2015-07-04T07:10:51.405Z</time>
      </trkpt>
      <trkpt lat="44.80477" lon="1.69261">
        <ele>343.173217773</ele>
        <time>2015-07-04T07:10:59.464Z</time>
      </trkpt>
      <trkpt lat="44.80477" lon="1.6926">
        <ele>343.160888672</ele>
        <time>2015-07-04T07:11:00.483Z</time>
      </trkpt>
      <trkpt lat="44.80477" lon="1.69248">
        <ele>343.712982178</ele>
        <time>2015-07-04T07:11:08.499Z</time>
      </trkpt>
      <trkpt lat="44.80477" lon="1.69246">
        <ele>343.851379395</ele>
        <time>2015-07-04T07:11:09.485Z</time>
      </trkpt>
      <trkpt lat="44.80472" lon="1.69236">
        <ele>343.430480957</ele>
        <time>2015-07-04T07:11:30.5Z</time>
      </trkpt>
      <trkpt lat="44.80471" lon="1.69235">
        <ele>343.412872314</ele>
        <time>2015-07-04T07:11:31.503Z</time>
      </trkpt>
      <trkpt lat="44.80468" lon="1.69223">
        <ele>344.021575928</ele>
        <time>2015-07-04T07:11:43.5Z</time>
      </trkpt>
      <trkpt lat="44.80468" lon="1.69222">
        <ele>344.006072998</ele>
        <time>2015-07-04T07:11:44.499Z</time>
      </trkpt>
      <trkpt lat="44.80464" lon="1.69211">
        <ele>343.936920166</ele>
        <time>2015-07-04T07:11:53.503Z</time>
      </trkpt>
      <trkpt lat="44.80464" lon="1.6921">
        <ele>343.833526611</ele>
        <time>2015-07-04T07:11:54.498Z</time>
      </trkpt>
      <trkpt lat="44.8046" lon="1.692">
        <ele>343.218780518</ele>
        <time>2015-07-04T07:12:03.523Z</time>
      </trkpt>
      <trkpt lat="44.8046" lon="1.69199">
        <ele>343.192504883</ele>
        <time>2015-07-04T07:12:04.495Z</time>
      </trkpt>
      <trkpt lat="44.80455" lon="1.69188">
        <ele>342.63369751</ele>
        <time>2015-07-04T07:12:13.098Z</time>
      </trkpt>
      <trkpt lat="44.80455" lon="1.69187">
        <ele>342.477600098</ele>
        <time>2015-07-04T07:12:13.431Z</time>
      </trkpt>
      <trkpt lat="44.80451" lon="1.69176">
        <ele>342.109008789</ele>
        <time>2015-07-04T07:12:22.495Z</time>
      </trkpt>
      <trkpt lat="44.80451" lon="1.69174">
        <ele>342.141937256</ele>
        <time>2015-07-04T07:12:23.51Z</time>
      </trkpt>
      <trkpt lat="44.80449" lon="1.69162">
        <ele>342.228271484</ele>
        <time>2015-07-04T07:12:32.505Z</time>
      </trkpt>
      <trkpt lat="44.80449" lon="1.69161">
        <ele>342.32611084</ele>
        <time>2015-07-04T07:12:33.496Z</time>
      </trkpt>
      <trkpt lat="44.80447" lon="1.69149">
        <ele>342.116241455</ele>
        <time>2015-07-04T07:12:43.488Z</time>
      </trkpt>
      <trkpt lat="44.80447" lon="1.69148">
        <ele>341.979949951</ele>
        <time>2015-07-04T07:12:44.496Z</time>
      </trkpt>
      <trkpt lat="44.80446" lon="1.69135">
        <ele>341.285247803</ele>
        <time>2015-07-04T07:12:51.461Z</time>
      </trkpt>
      <trkpt lat="44.80446" lon="1.69134">
        <ele>341.16696167</ele>
        <time>2015-07-04T07:12:52.483Z</time>
      </trkpt>
      <trkpt lat="44.80448" lon="1.69124">
        <ele>340.173034668</ele>
        <time>2015-07-04T07:12:58.482Z</time>
      </trkpt>
      <trkpt lat="44.80449" lon="1.69122">
        <ele>339.989624023</ele>
        <time>2015-07-04T07:12:59.474Z</time>
      </trkpt>
      <trkpt lat="44.80452" lon="1.6911">
        <ele>339.145935059</ele>
        <time>2015-07-04T07:13:09.492Z</time>
      </trkpt>
      <trkpt lat="44.80452" lon="1.69109">
        <ele>339.116790771</ele>
        <time>2015-07-04T07:13:10.5Z</time>
      </trkpt>
      <trkpt lat="44.80454" lon="1.69097">
        <ele>338.389862061</ele>
        <time>2015-07-04T07:13:20.081Z</time>
      </trkpt>
      <trkpt lat="44.80454" lon="1.69095">
        <ele>338.306732178</ele>
        <time>2015-07-04T07:13:20.479Z</time>
      </trkpt>
      <trkpt lat="44.80455" lon="1.69084">
        <ele>338.70199585</ele>
        <time>2015-07-04T07:13:27.501Z</time>
      </trkpt>
      <trkpt lat="44.80455" lon="1.69083">
        <ele>338.755462646</ele>
        <time>2015-07-04T07:13:28.497Z</time>
      </trkpt>
      <trkpt lat="44.80459" lon="1.69072">
        <ele>338.844390869</ele>
        <time>2015-07-04T07:13:34.501Z</time>
      </trkpt>
      <trkpt lat="44.80459" lon="1.69071">
        <ele>338.818878174</ele>
        <time>2015-07-04T07:13:35.514Z</time>
      </trkpt>
      <trkpt lat="44.8046" lon="1.6906">
        <ele>338.809204102</ele>
        <time>2015-07-04T07:13:44.489Z</time>
      </trkpt>
      <trkpt lat="44.80461" lon="1.69059">
        <ele>338.783477783</ele>
        <time>2015-07-04T07:13:45.499Z</time>
      </trkpt>
      <trkpt lat="44.80461" lon="1.69048">
        <ele>338.087188721</ele>
        <time>2015-07-04T07:13:52.501Z</time>
      </trkpt>
      <trkpt lat="44.80461" lon="1.69046">
        <ele>337.91708374</ele>
        <time>2015-07-04T07:13:53.475Z</time>
      </trkpt>
      <trkpt lat="44.80463" lon="1.69034">
        <ele>337.699951172</ele>
        <time>2015-07-04T07:14:03.5Z</time>
      </trkpt>
      <trkpt lat="44.80463" lon="1.69032">
        <ele>337.683563232</ele>
        <time>2015-07-04T07:14:04.503Z</time>
      </trkpt>
      <trkpt lat="44.80464" lon="1.6902">
        <ele>337.654907227</ele>
        <time>2015-07-04T07:14:11.657Z</time>
      </trkpt>
      <trkpt lat="44.80465" lon="1.69018">
        <ele>337.62991333</ele>
        <time>2015-07-04T07:14:12.488Z</time>
      </trkpt>
      <trkpt lat="44.80466" lon="1.69007">
        <ele>337.245758057</ele>
        <time>2015-07-04T07:14:21.464Z</time>
      </trkpt>
      <trkpt lat="44.80466" lon="1.69005">
        <ele>337.298095703</ele>
        <time>2015-07-04T07:14:22.491Z</time>
      </trkpt>
      <trkpt lat="44.80465" lon="1.68992">
        <ele>337.069488525</ele>
        <time>2015-07-04T07:14:31.106Z</time>
      </trkpt>
      <trkpt lat="44.80465" lon="1.68991">
        <ele>336.978546143</ele>
        <time>2015-07-04T07:14:31.437Z</time>
      </trkpt>
      <trkpt lat="44.80466" lon="1.68979">
        <ele>336.793884277</ele>
        <time>2015-07-04T07:14:38.49Z</time>
      </trkpt>
      <trkpt lat="44.80465" lon="1.68978">
        <ele>336.874206543</ele>
        <time>2015-07-04T07:14:39.469Z</time>
      </trkpt>
      <trkpt lat="44.80466" lon="1.68966">
        <ele>336.506072998</ele>
        <time>2015-07-04T07:14:47.104Z</time>
      </trkpt>
      <trkpt lat="44.80466" lon="1.68964">
        <ele>336.392608643</ele>
        <time>2015-07-04T07:14:47.441Z</time>
      </trkpt>
      <trkpt lat="44.80467" lon="1.68951">
        <ele>335.888275146</ele>
        <time>2015-07-04T07:14:54.504Z</time>
      </trkpt>
      <trkpt lat="44.80467" lon="1.6895">
        <ele>335.871826172</ele>
        <time>2015-07-04T07:14:55.479Z</time>
      </trkpt>
      <trkpt lat="44.80467" lon="1.68939">
        <ele>335.610809326</ele>
        <time>2015-07-04T07:15:05.496Z</time>
      </trkpt>
      <trkpt lat="44.80468" lon="1.68937">
        <ele>335.499633789</ele>
        <time>2015-07-04T07:15:06.484Z</time>
      </trkpt>
      <trkpt lat="44.80467" lon="1.68924">
        <ele>335.4112854</ele>
        <time>2015-07-04T07:15:17.488Z</time>
      </trkpt>
      <trkpt lat="44.80467" lon="1.68922">
        <ele>335.468963623</ele>
        <time>2015-07-04T07:15:18.459Z</time>
      </trkpt>
      <trkpt lat="44.80467" lon="1.6891">
        <ele>335.927856445</ele>
        <time>2015-07-04T07:15:25.773Z</time>
      </trkpt>
      <trkpt lat="44.80467" lon="1.68909">
        <ele>336.015563965</ele>
        <time>2015-07-04T07:15:26.488Z</time>
      </trkpt>
      <trkpt lat="44.80469" lon="1.68897">
        <ele>335.967681885</ele>
        <time>2015-07-04T07:15:35.952Z</time>
      </trkpt>
      <trkpt lat="44.80469" lon="1.68896">
        <ele>335.990570068</ele>
        <time>2015-07-04T07:15:36.502Z</time>
      </trkpt>
      <trkpt lat="44.80469" lon="1.68883">
        <ele>335.617462158</ele>
        <time>2015-07-04T07:15:46.499Z</time>
      </trkpt>
      <trkpt lat="44.80469" lon="1.68881">
        <ele>335.710266113</ele>
        <time>2015-07-04T07:15:47.495Z</time>
      </trkpt>
      <trkpt lat="44.80472" lon="1.68869">
        <ele>335.704681396</ele>
        <time>2015-07-04T07:15:55.488Z</time>
      </trkpt>
      <trkpt lat="44.80472" lon="1.68868">
        <ele>335.649047852</ele>
        <time>2015-07-04T07:15:56.495Z</time>
      </trkpt>
      <trkpt lat="44.80474" lon="1.68858">
        <ele>335.783111572</ele>
        <time>2015-07-04T07:16:04.49Z</time>
      </trkpt>
      <trkpt lat="44.80474" lon="1.68856">
        <ele>335.831878662</ele>
        <time>2015-07-04T07:16:05.494Z</time>
      </trkpt>
      <trkpt lat="44.80477" lon="1.68844">
        <ele>336.039916992</ele>
        <time>2015-07-04T07:16:15.019Z</time>
      </trkpt>
      <trkpt lat="44.80477" lon="1.68842">
        <ele>336.10848999</ele>
        <time>2015-07-04T07:16:15.495Z</time>
      </trkpt>
      <trkpt lat="44.80478" lon="1.68832">
        <ele>335.934234619</ele>
        <time>2015-07-04T07:16:25.194Z</time>
      </trkpt>
      <trkpt lat="44.80479" lon="1.68829">
        <ele>335.847351074</ele>
        <time>2015-07-04T07:16:25.586Z</time>
      </trkpt>
      <trkpt lat="44.80482" lon="1.68819">
        <ele>334.961639404</ele>
        <time>2015-07-04T07:16:31.426Z</time>
      </trkpt>
      <trkpt lat="44.80482" lon="1.68817">
        <ele>334.789306641</ele>
        <time>2015-07-04T07:16:32.493Z</time>
      </trkpt>
      <trkpt lat="44.80484" lon="1.68806">
        <ele>334.216583252</ele>
        <time>2015-07-04T07:16:39.476Z</time>
      </trkpt>
      <trkpt lat="44.80485" lon="1.68804">
        <ele>334.173400879</ele>
        <time>2015-07-04T07:16:40.587Z</time>
      </trkpt>
      <trkpt lat="44.80487" lon="1.68794">
        <ele>334.574279785</ele>
        <time>2015-07-04T07:17:04.489Z</time>
      </trkpt>
      <trkpt lat="44.80488" lon="1.68792">
        <ele>334.567504883</ele>
        <time>2015-07-04T07:17:05.506Z</time>
      </trkpt>
      <trkpt lat="44.80491" lon="1.68783">
        <ele>334.569061279</ele>
        <time>2015-07-04T07:17:09.499Z</time>
      </trkpt>
      <trkpt lat="44.80491" lon="1.68781">
        <ele>334.57208252</ele>
        <time>2015-07-04T07:17:10.562Z</time>
      </trkpt>
      <trkpt lat="44.80493" lon="1.68769">
        <ele>334.700592041</ele>
        <time>2015-07-04T07:17:16.492Z</time>
      </trkpt>
      <trkpt lat="44.80494" lon="1.68767">
        <ele>334.715484619</ele>
        <time>2015-07-04T07:17:17.46Z</time>
      </trkpt>
      <trkpt lat="44.80495" lon="1.68756">
        <ele>334.498382568</ele>
        <time>2015-07-04T07:17:25.124Z</time>
      </trkpt>
      <trkpt lat="44.80495" lon="1.68754">
        <ele>334.521209717</ele>
        <time>2015-07-04T07:17:25.48Z</time>
      </trkpt>
      <trkpt lat="44.80498" lon="1.68742">
        <ele>334.683746338</ele>
        <time>2015-07-04T07:17:31.522Z</time>
      </trkpt>
      <trkpt lat="44.80498" lon="1.68741">
        <ele>334.71472168</ele>
        <time>2015-07-04T07:17:32.534Z</time>
      </trkpt>
      <trkpt lat="44.80501" lon="1.68731">
        <ele>334.674530029</ele>
        <time>2015-07-04T07:17:36.424Z</time>
      </trkpt>
      <trkpt lat="44.80502" lon="1.68729">
        <ele>334.61227417</ele>
        <time>2015-07-04T07:17:37.48Z</time>
      </trkpt>
      <trkpt lat="44.80503" lon="1.68717">
        <ele>334.688964844</ele>
        <time>2015-07-04T07:17:42.496Z</time>
      </trkpt>
      <trkpt lat="44.80503" lon="1.68715">
        <ele>334.704864502</ele>
        <time>2015-07-04T07:17:43.521Z</time>
      </trkpt>
      <trkpt lat="44.80504" lon="1.68703">
        <ele>334.880859375</ele>
        <time>2015-07-04T07:17:50.468Z</time>
      </trkpt>
      <trkpt lat="44.80504" lon="1.68701">
        <ele>334.889282227</ele>
        <time>2015-07-04T07:17:51.482Z</time>
      </trkpt>
      <trkpt lat="44.80505" lon="1.68689">
        <ele>334.580444336</ele>
        <time>2015-07-04T07:17:59.48Z</time>
      </trkpt>
      <trkpt lat="44.80505" lon="1.68688">
        <ele>334.531005859</ele>
        <time>2015-07-04T07:18:00.489Z</time>
      </trkpt>
      <trkpt lat="44.80503" lon="1.68676">
        <ele>334.313079834</ele>
        <time>2015-07-04T07:18:07.051Z</time>
      </trkpt>
      <trkpt lat="44.80503" lon="1.68675">
        <ele>334.303527832</ele>
        <time>2015-07-04T07:18:07.483Z</time>
      </trkpt>
      <trkpt lat="44.80504" lon="1.68663">
        <ele>334.72064209</ele>
        <time>2015-07-04T07:18:15.5Z</time>
      </trkpt>
      <trkpt lat="44.80504" lon="1.68661">
        <ele>334.689422607</ele>
        <time>2015-07-04T07:18:16.492Z</time>
      </trkpt>
      <trkpt lat="44.80505" lon="1.68649">
        <ele>334.388214111</ele>
        <time>2015-07-04T07:18:22.489Z</time>
      </trkpt>
      <trkpt lat="44.80504" lon="1.68648">
        <ele>334.350952148</ele>
        <time>2015-07-04T07:18:23.488Z</time>
      </trkpt>
      <trkpt lat="44.80503" lon="1.68635">
        <ele>334.389007568</ele>
        <time>2015-07-04T07:18:32.481Z</time>
      </trkpt>
      <trkpt lat="44.80502" lon="1.68633">
        <ele>334.373840332</ele>
        <time>2015-07-04T07:18:33.475Z</time>
      </trkpt>
      <trkpt lat="44.80503" lon="1.68622">
        <ele>334.372283936</ele>
        <time>2015-07-04T07:18:42.494Z</time>
      </trkpt>
      <trkpt lat="44.80503" lon="1.6862">
        <ele>334.314941406</ele>
        <time>2015-07-04T07:18:43.483Z</time>
      </trkpt>
      <trkpt lat="44.80505" lon="1.68608">
        <ele>334.197967529</ele>
        <time>2015-07-04T07:18:50.491Z</time>
      </trkpt>
      <trkpt lat="44.80505" lon="1.68606">
        <ele>334.236114502</ele>
        <time>2015-07-04T07:18:51.489Z</time>
      </trkpt>
      <trkpt lat="44.80507" lon="1.68595">
        <ele>333.771881104</ele>
        <time>2015-07-04T07:18:59.476Z</time>
      </trkpt>
      <trkpt lat="44.80507" lon="1.68593">
        <ele>333.740692139</ele>
        <time>2015-07-04T07:19:00.472Z</time>
      </trkpt>
      <trkpt lat="44.80509" lon="1.68582">
        <ele>333.397766113</ele>
        <time>2015-07-04T07:19:07.474Z</time>
      </trkpt>
      <trkpt lat="44.80509" lon="1.68579">
        <ele>333.327758789</ele>
        <time>2015-07-04T07:19:08.425Z</time>
      </trkpt>
      <trkpt lat="44.80509" lon="1.68568">
        <ele>333.000244141</ele>
        <time>2015-07-04T07:19:15.525Z</time>
      </trkpt>
      <trkpt lat="44.80509" lon="1.68566">
        <ele>332.97467041</ele>
        <time>2015-07-04T07:19:16.495Z</time>
      </trkpt>
      <trkpt lat="44.8051" lon="1.68554">
        <ele>332.654785156</ele>
        <time>2015-07-04T07:19:25.09Z</time>
      </trkpt>
      <trkpt lat="44.80509" lon="1.68552">
        <ele>332.711914062</ele>
        <time>2015-07-04T07:19:25.489Z</time>
      </trkpt>
      <trkpt lat="44.80509" lon="1.68542">
        <ele>332.558624268</ele>
        <time>2015-07-04T07:19:32.465Z</time>
      </trkpt>
      <trkpt lat="44.8051" lon="1.68539">
        <ele>332.470275879</ele>
        <time>2015-07-04T07:19:33.491Z</time>
      </trkpt>
      <trkpt lat="44.80508" lon="1.68527">
        <ele>331.946685791</ele>
        <time>2015-07-04T07:19:43.482Z</time>
      </trkpt>
      <trkpt lat="44.80507" lon="1.68525">
        <ele>331.993804932</ele>
        <time>2015-07-04T07:19:44.503Z</time>
      </trkpt>
      <trkpt lat="44.80508" lon="1.68512">
        <ele>332.305633545</ele>
        <time>2015-07-04T07:19:51.418Z</time>
      </trkpt>
      <trkpt lat="44.80509" lon="1.6851">
        <ele>332.315429688</ele>
        <time>2015-07-04T07:19:52.469Z</time>
      </trkpt>
      <trkpt lat="44.80509" lon="1.68499">
        <ele>332.531860352</ele>
        <time>2015-07-04T07:19:58.463Z</time>
      </trkpt>
      <trkpt lat="44.80509" lon="1.68497">
        <ele>332.515991211</ele>
        <time>2015-07-04T07:19:59.472Z</time>
      </trkpt>
      <trkpt lat="44.80507" lon="1.68486">
        <ele>332.250518799</ele>
        <time>2015-07-04T07:20:07.458Z</time>
      </trkpt>
      <trkpt lat="44.80506" lon="1.68484">
        <ele>332.204223633</ele>
        <time>2015-07-04T07:20:08.463Z</time>
      </trkpt>
      <trkpt lat="44.80505" lon="1.68473">
        <ele>332.168121338</ele>
        <time>2015-07-04T07:20:14.909Z</time>
      </trkpt>
      <trkpt lat="44.80505" lon="1.6847">
        <ele>332.155273438</ele>
        <time>2015-07-04T07:20:15.465Z</time>
      </trkpt>
      <trkpt lat="44.80503" lon="1.6846">
        <ele>331.723846436</ele>
        <time>2015-07-04T07:20:21.496Z</time>
      </trkpt>
      <trkpt lat="44.80502" lon="1.68458">
        <ele>331.642669678</ele>
        <time>2015-07-04T07:20:22.477Z</time>
      </trkpt>
      <trkpt lat="44.80501" lon="1.68447">
        <ele>330.925750732</ele>
        <time>2015-07-04T07:20:30.136Z</time>
      </trkpt>
      <trkpt lat="44.805" lon="1.68444">
        <ele>330.797119141</ele>
        <time>2015-07-04T07:20:30.504Z</time>
      </trkpt>
      <trkpt lat="44.80499" lon="1.68433">
        <ele>329.50100708</ele>
        <time>2015-07-04T07:20:36.487Z</time>
      </trkpt>
      <trkpt lat="44.80499" lon="1.68431">
        <ele>329.385131836</ele>
        <time>2015-07-04T07:20:37.488Z</time>
      </trkpt>
      <trkpt lat="44.80498" lon="1.6842">
        <ele>328.935791016</ele>
        <time>2015-07-04T07:20:42.495Z</time>
      </trkpt>
      <trkpt lat="44.80499" lon="1.68417">
        <ele>328.938659668</ele>
        <time>2015-07-04T07:20:43.478Z</time>
      </trkpt>
      <trkpt lat="44.80499" lon="1.68407">
        <ele>328.76071167</ele>
        <time>2015-07-04T07:20:49.574Z</time>
      </trkpt>
      <trkpt lat="44.80499" lon="1.68404">
        <ele>328.79776001</ele>
        <time>2015-07-04T07:20:50.498Z</time>
      </trkpt>
      <trkpt lat="44.80497" lon="1.68392">
        <ele>328.277862549</ele>
        <time>2015-07-04T07:20:58.544Z</time>
      </trkpt>
      <trkpt lat="44.80497" lon="1.68391">
        <ele>328.265045166</ele>
        <time>2015-07-04T07:20:59.482Z</time>
      </trkpt>
      <trkpt lat="44.805" lon="1.68379">
        <ele>329.014465332</ele>
        <time>2015-07-04T07:21:50.483Z</time>
      </trkpt>
      <trkpt lat="44.805" lon="1.68379">
        <ele>328.869812012</ele>
        <time>2015-07-04T07:21:51.504Z</time>
      </trkpt>
      <trkpt lat="44.80498" lon="1.68367">
        <ele>328.296447754</ele>
        <time>2015-07-04T07:22:01.56Z</time>
      </trkpt>
      <trkpt lat="44.80498" lon="1.68365">
        <ele>328.283111572</ele>
        <time>2015-07-04T07:22:02.437Z</time>
      </trkpt>
      <trkpt lat="44.80495" lon="1.68353">
        <ele>327.480682373</ele>
        <time>2015-07-04T07:22:12.429Z</time>
      </trkpt>
      <trkpt lat="44.80495" lon="1.68351">
        <ele>327.429229736</ele>
        <time>2015-07-04T07:22:13.494Z</time>
      </trkpt>
      <trkpt lat="44.80496" lon="1.68339">
        <ele>327.426757812</ele>
        <time>2015-07-04T07:22:21.525Z</time>
      </trkpt>
      <trkpt lat="44.80496" lon="1.68338">
        <ele>327.437011719</ele>
        <time>2015-07-04T07:22:22.491Z</time>
      </trkpt>
      <trkpt lat="44.80496" lon="1.68327">
        <ele>327.823730469</ele>
        <time>2015-07-04T07:22:31.488Z</time>
      </trkpt>
      <trkpt lat="44.80496" lon="1.68325">
        <ele>327.901763916</ele>
        <time>2015-07-04T07:22:32.49Z</time>
      </trkpt>
      <trkpt lat="44.80492" lon="1.68314">
        <ele>327.392578125</ele>
        <time>2015-07-04T07:22:42.44Z</time>
      </trkpt>
      <trkpt lat="44.80491" lon="1.68313">
        <ele>327.337738037</ele>
        <time>2015-07-04T07:22:43.497Z</time>
      </trkpt>
      <trkpt lat="44.80489" lon="1.68301">
        <ele>327.646240234</ele>
        <time>2015-07-04T07:22:52.474Z</time>
      </trkpt>
      <trkpt lat="44.80489" lon="1.683">
        <ele>327.632171631</ele>
        <time>2015-07-04T07:22:53.479Z</time>
      </trkpt>
      <trkpt lat="44.80488" lon="1.68288">
        <ele>327.316741943</ele>
        <time>2015-07-04T07:23:02.472Z</time>
      </trkpt>
      <trkpt lat="44.80488" lon="1.68286">
        <ele>327.252716064</ele>
        <time>2015-07-04T07:23:03.429Z</time>
      </trkpt>
      <trkpt lat="44.80487" lon="1.68275">
        <ele>327.435974121</ele>
        <time>2015-07-04T07:23:12.487Z</time>
      </trkpt>
      <trkpt lat="44.80487" lon="1.68273">
        <ele>327.565368652</ele>
        <time>2015-07-04T07:23:13.466Z</time>
      </trkpt>
      <trkpt lat="44.80483" lon="1.68262">
        <ele>327.710998535</ele>
        <time>2015-07-04T07:23:20.386Z</time>
      </trkpt>
      <trkpt lat="44.80482" lon="1.68261">
        <ele>327.670349121</ele>
        <time>2015-07-04T07:23:21.525Z</time>
      </trkpt>
      <trkpt lat="44.80478" lon="1.68251">
        <ele>327.936340332</ele>
        <time>2015-07-04T07:23:30.481Z</time>
      </trkpt>
      <trkpt lat="44.80478" lon="1.6825">
        <ele>327.895080566</ele>
        <time>2015-07-04T07:23:31.458Z</time>
      </trkpt>
      <trkpt lat="44.80475" lon="1.68238">
        <ele>327.909606934</ele>
        <time>2015-07-04T07:23:40.491Z</time>
      </trkpt>
      <trkpt lat="44.80475" lon="1.68237">
        <ele>327.937927246</ele>
        <time>2015-07-04T07:23:41.574Z</time>
      </trkpt>
      <trkpt lat="44.80471" lon="1.68226">
        <ele>327.593170166</ele>
        <time>2015-07-04T07:24:04.49Z</time>
      </trkpt>
      <trkpt lat="44.8047" lon="1.68226">
        <ele>327.649749756</ele>
        <time>2015-07-04T07:24:05.375Z</time>
      </trkpt>
      <trkpt lat="44.80468" lon="1.68214">
        <ele>327.630310059</ele>
        <time>2015-07-04T07:24:11.566Z</time>
      </trkpt>
      <trkpt lat="44.80468" lon="1.68213">
        <ele>327.57144165</ele>
        <time>2015-07-04T07:24:12.471Z</time>
      </trkpt>
      <trkpt lat="44.80466" lon="1.68202">
        <ele>326.780761719</ele>
        <time>2015-07-04T07:24:19.48Z</time>
      </trkpt>
      <trkpt lat="44.80466" lon="1.682">
        <ele>326.63659668</ele>
        <time>2015-07-04T07:24:20.501Z</time>
      </trkpt>
      <trkpt lat="44.80464" lon="1.6819">
        <ele>325.718414307</ele>
        <time>2015-07-04T07:24:27.45Z</time>
      </trkpt>
      <trkpt lat="44.80464" lon="1.68188">
        <ele>325.631195068</ele>
        <time>2015-07-04T07:24:28.487Z</time>
      </trkpt>
      <trkpt lat="44.80462" lon="1.68177">
        <ele>325.35144043</ele>
        <time>2015-07-04T07:24:34.502Z</time>
      </trkpt>
      <trkpt lat="44.80462" lon="1.68175">
        <ele>325.337768555</ele>
        <time>2015-07-04T07:24:35.492Z</time>
      </trkpt>
      <trkpt lat="44.8046" lon="1.68165">
        <ele>325.462005615</ele>
        <time>2015-07-04T07:24:43.421Z</time>
      </trkpt>
      <trkpt lat="44.8046" lon="1.68162">
        <ele>325.483032227</ele>
        <time>2015-07-04T07:24:44.492Z</time>
      </trkpt>
      <trkpt lat="44.80458" lon="1.6815">
        <ele>325.767547607</ele>
        <time>2015-07-04T07:24:52.992Z</time>
      </trkpt>
      <trkpt lat="44.80458" lon="1.68149">
        <ele>325.793884277</ele>
        <time>2015-07-04T07:24:53.44Z</time>
      </trkpt>
      <trkpt lat="44.80456" lon="1.68138">
        <ele>325.677734375</ele>
        <time>2015-07-04T07:25:03.191Z</time>
      </trkpt>
      <trkpt lat="44.80455" lon="1.68136">
        <ele>325.618713379</ele>
        <time>2015-07-04T07:25:03.55Z</time>
      </trkpt>
      <trkpt lat="44.80456" lon="1.68126">
        <ele>325.315917969</ele>
        <time>2015-07-04T07:25:07.479Z</time>
      </trkpt>
      <trkpt lat="44.80455" lon="1.68123">
        <ele>325.171173096</ele>
        <time>2015-07-04T07:25:08.492Z</time>
      </trkpt>
      <trkpt lat="44.80452" lon="1.68111">
        <ele>324.489624023</ele>
        <time>2015-07-04T07:25:16.55Z</time>
      </trkpt>
      <trkpt lat="44.80452" lon="1.6811">
        <ele>324.477996826</ele>
        <time>2015-07-04T07:25:17.491Z</time>
      </trkpt>
      <trkpt lat="44.80451" lon="1.68099">
        <ele>324.176239014</ele>
        <time>2015-07-04T07:25:23.545Z</time>
      </trkpt>
      <trkpt lat="44.80451" lon="1.68097">
        <ele>324.162658691</ele>
        <time>2015-07-04T07:25:24.49Z</time>
      </trkpt>
      <trkpt lat="44.8045" lon="1.68085">
        <ele>323.881469727</ele>
        <time>2015-07-04T07:25:32.497Z</time>
      </trkpt>
      <trkpt lat="44.80449" lon="1.68083">
        <ele>323.832397461</ele>
        <time>2015-07-04T07:25:33.476Z</time>
      </trkpt>
      <trkpt lat="44.80446" lon="1.68073">
        <ele>323.985565186</ele>
        <time>2015-07-04T07:25:39.394Z</time>
      </trkpt>
      <trkpt lat="44.80446" lon="1.68071">
        <ele>323.993499756</ele>
        <time>2015-07-04T07:25:40.482Z</time>
      </trkpt>
      <trkpt lat="44.80445" lon="1.68061">
        <ele>324.237365723</ele>
        <time>2015-07-04T07:25:45.734Z</time>
      </trkpt>
      <trkpt lat="44.80444" lon="1.68058">
        <ele>324.324035645</ele>
        <time>2015-07-04T07:25:46.425Z</time>
      </trkpt>
      <trkpt lat="44.8044" lon="1.68047">
        <ele>324.317749023</ele>
        <time>2015-07-04T07:25:54.467Z</time>
      </trkpt>
      <trkpt lat="44.8044" lon="1.68046">
        <ele>324.325805664</ele>
        <time>2015-07-04T07:25:55.468Z</time>
      </trkpt>
      <trkpt lat="44.80435" lon="1.68036">
        <ele>324.504577637</ele>
        <time>2015-07-04T07:26:02.539Z</time>
      </trkpt>
      <trkpt lat="44.80435" lon="1.68034">
        <ele>324.591064453</ele>
        <time>2015-07-04T07:26:03.45Z</time>
      </trkpt>
      <trkpt lat="44.80432" lon="1.68023">
        <ele>324.930969238</ele>
        <time>2015-07-04T07:26:11.421Z</time>
      </trkpt>
      <trkpt lat="44.80432" lon="1.68021">
        <ele>325.000640869</ele>
        <time>2015-07-04T07:26:12.465Z</time>
      </trkpt>
      <trkpt lat="44.80427" lon="1.68014">
        <ele>325.041381836</ele>
        <time>2015-07-04T07:26:20.055Z</time>
      </trkpt>
      <trkpt lat="44.80426" lon="1.68012">
        <ele>325.056854248</ele>
        <time>2015-07-04T07:26:20.411Z</time>
      </trkpt>
      <trkpt lat="44.80424" lon="1.68">
        <ele>325.226928711</ele>
        <time>2015-07-04T07:26:26.461Z</time>
      </trkpt>
      <trkpt lat="44.80423" lon="1.67999">
        <ele>325.288116455</ele>
        <time>2015-07-04T07:26:27.467Z</time>
      </trkpt>
      <trkpt lat="44.8042" lon="1.67988">
        <ele>325.599456787</ele>
        <time>2015-07-04T07:26:33.461Z</time>
      </trkpt>
      <trkpt lat="44.8042" lon="1.67987">
        <ele>325.634552002</ele>
        <time>2015-07-04T07:26:34.46Z</time>
      </trkpt>
      <trkpt lat="44.80419" lon="1.67975">
        <ele>325.225158691</ele>
        <time>2015-07-04T07:26:41.467Z</time>
      </trkpt>
      <trkpt lat="44.80419" lon="1.67973">
        <ele>325.06036377</ele>
        <time>2015-07-04T07:26:42.465Z</time>
      </trkpt>
      <trkpt lat="44.80418" lon="1.67961">
        <ele>324.939575195</ele>
        <time>2015-07-04T07:26:49.929Z</time>
      </trkpt>
      <trkpt lat="44.80418" lon="1.6796">
        <ele>325.061248779</ele>
        <time>2015-07-04T07:26:50.49Z</time>
      </trkpt>
      <trkpt lat="44.80417" lon="1.67948">
        <ele>325.182800293</ele>
        <time>2015-07-04T07:26:56.512Z</time>
      </trkpt>
      <trkpt lat="44.80417" lon="1.67947">
        <ele>325.186035156</ele>
        <time>2015-07-04T07:26:57.49Z</time>
      </trkpt>
      <trkpt lat="44.80416" lon="1.67934">
        <ele>324.584289551</ele>
        <time>2015-07-04T07:27:06.421Z</time>
      </trkpt>
      <trkpt lat="44.80416" lon="1.67933">
        <ele>324.488708496</ele>
        <time>2015-07-04T07:27:07.469Z</time>
      </trkpt>
      <trkpt lat="44.80416" lon="1.67921">
        <ele>324.439025879</ele>
        <time>2015-07-04T07:27:15.435Z</time>
      </trkpt>
      <trkpt lat="44.80416" lon="1.6792">
        <ele>324.427642822</ele>
        <time>2015-07-04T07:27:16.488Z</time>
      </trkpt>
      <trkpt lat="44.80417" lon="1.67908">
        <ele>325.475708008</ele>
        <time>2015-07-04T07:27:27.496Z</time>
      </trkpt>
      <trkpt lat="44.80417" lon="1.67907">
        <ele>325.616516113</ele>
        <time>2015-07-04T07:27:28.484Z</time>
      </trkpt>
      <trkpt lat="44.80419" lon="1.67896">
        <ele>326.453521729</ele>
        <time>2015-07-04T07:27:36.433Z</time>
      </trkpt>
      <trkpt lat="44.8042" lon="1.67895">
        <ele>326.515533447</ele>
        <time>2015-07-04T07:27:37.49Z</time>
      </trkpt>
      <trkpt lat="44.80425" lon="1.67885">
        <ele>326.509887695</ele>
        <time>2015-07-04T07:27:45.486Z</time>
      </trkpt>
      <trkpt lat="44.80425" lon="1.67883">
        <ele>326.403747559</ele>
        <time>2015-07-04T07:27:46.545Z</time>
      </trkpt>
      <trkpt lat="44.8043" lon="1.67875">
        <ele>325.603729248</ele>
        <time>2015-07-04T07:27:52.483Z</time>
      </trkpt>
      <trkpt lat="44.80431" lon="1.67873">
        <ele>325.518890381</ele>
        <time>2015-07-04T07:27:53.496Z</time>
      </trkpt>
      <trkpt lat="44.80432" lon="1.67863">
        <ele>325.446716309</ele>
        <time>2015-07-04T07:28:00.491Z</time>
      </trkpt>
      <trkpt lat="44.80433" lon="1.6786">
        <ele>325.441650391</ele>
        <time>2015-07-04T07:28:01.49Z</time>
      </trkpt>
      <trkpt lat="44.80438" lon="1.67851">
        <ele>325.517944336</ele>
        <time>2015-07-04T07:28:07.619Z</time>
      </trkpt>
      <trkpt lat="44.8044" lon="1.67848">
        <ele>325.509429932</ele>
        <time>2015-07-04T07:28:08.49Z</time>
      </trkpt>
      <trkpt lat="44.80444" lon="1.67838">
        <ele>325.167755127</ele>
        <time>2015-07-04T07:28:15.476Z</time>
      </trkpt>
      <trkpt lat="44.80444" lon="1.67837">
        <ele>325.21963501</ele>
        <time>2015-07-04T07:28:16.477Z</time>
      </trkpt>
      <trkpt lat="44.8045" lon="1.6783">
        <ele>325.08114624</ele>
        <time>2015-07-04T07:28:22.477Z</time>
      </trkpt>
      <trkpt lat="44.80451" lon="1.67828">
        <ele>325.081787109</ele>
        <time>2015-07-04T07:28:23.478Z</time>
      </trkpt>
      <trkpt lat="44.80456" lon="1.67819">
        <ele>325.223236084</ele>
        <time>2015-07-04T07:28:29.477Z</time>
      </trkpt>
      <trkpt lat="44.80457" lon="1.67817">
        <ele>325.357513428</ele>
        <time>2015-07-04T07:28:30.493Z</time>
      </trkpt>
      <trkpt lat="44.80463" lon="1.67808">
        <ele>325.759552002</ele>
        <time>2015-07-04T07:28:36.468Z</time>
      </trkpt>
      <trkpt lat="44.80464" lon="1.67807">
        <ele>325.74331665</ele>
        <time>2015-07-04T07:28:37.493Z</time>
      </trkpt>
      <trkpt lat="44.80469" lon="1.67801">
        <ele>326.128601074</ele>
        <time>2015-07-04T07:28:42.503Z</time>
      </trkpt>
      <trkpt lat="44.8047" lon="1.67797">
        <ele>326.208740234</ele>
        <time>2015-07-04T07:28:43.487Z</time>
      </trkpt>
      <trkpt lat="44.80476" lon="1.6779">
        <ele>326.67376709</ele>
        <time>2015-07-04T07:28:53.496Z</time>
      </trkpt>
      <trkpt lat="44.80477" lon="1.67788">
        <ele>326.730255127</ele>
        <time>2015-07-04T07:28:54.488Z</time>
      </trkpt>
      <trkpt lat="44.80482" lon="1.67779">
        <ele>326.688171387</ele>
        <time>2015-07-04T07:29:01.486Z</time>
      </trkpt>
      <trkpt lat="44.80483" lon="1.67778">
        <ele>326.627471924</ele>
        <time>2015-07-04T07:29:02.478Z</time>
      </trkpt>
      <trkpt lat="44.80488" lon="1.6777">
        <ele>326.557281494</ele>
        <time>2015-07-04T07:29:08.512Z</time>
      </trkpt>
      <trkpt lat="44.80489" lon="1.67768">
        <ele>326.573944092</ele>
        <time>2015-07-04T07:29:09.484Z</time>
      </trkpt>
      <trkpt lat="44.80492" lon="1.67758">
        <ele>326.239074707</ele>
        <time>2015-07-04T07:29:17.481Z</time>
      </trkpt>
      <trkpt lat="44.80493" lon="1.67755">
        <ele>326.189819336</ele>
        <time>2015-07-04T07:29:18.493Z</time>
      </trkpt>
      <trkpt lat="44.80496" lon="1.67745">
        <ele>326.15725708</ele>
        <time>2015-07-04T07:29:25.507Z</time>
      </trkpt>
      <trkpt lat="44.80496" lon="1.67743">
        <ele>326.151489258</ele>
        <time>2015-07-04T07:29:26.499Z</time>
      </trkpt>
      <trkpt lat="44.80501" lon="1.67733">
        <ele>326.224639893</ele>
        <time>2015-07-04T07:29:34.501Z</time>
      </trkpt>
      <trkpt lat="44.80501" lon="1.67732">
        <ele>326.259063721</ele>
        <time>2015-07-04T07:29:35.476Z</time>
      </trkpt>
      <trkpt lat="44.80502" lon="1.67721">
        <ele>325.709991455</ele>
        <time>2015-07-04T07:29:42.482Z</time>
      </trkpt>
      <trkpt lat="44.80502" lon="1.67719">
        <ele>325.491882324</ele>
        <time>2015-07-04T07:29:43.492Z</time>
      </trkpt>
      <trkpt lat="44.80504" lon="1.67707">
        <ele>324.718261719</ele>
        <time>2015-07-04T07:29:51.691Z</time>
      </trkpt>
      <trkpt lat="44.80504" lon="1.67705">
        <ele>324.607269287</ele>
        <time>2015-07-04T07:29:52.487Z</time>
      </trkpt>
      <trkpt lat="44.80505" lon="1.67692">
        <ele>323.870513916</ele>
        <time>2015-07-04T07:29:59.49Z</time>
      </trkpt>
      <trkpt lat="44.80505" lon="1.67691">
        <ele>323.633056641</ele>
        <time>2015-07-04T07:30:00.491Z</time>
      </trkpt>
      <trkpt lat="44.80505" lon="1.6768">
        <ele>322.402252197</ele>
        <time>2015-07-04T07:30:07.493Z</time>
      </trkpt>
      <trkpt lat="44.80505" lon="1.67678">
        <ele>322.301025391</ele>
        <time>2015-07-04T07:30:08.473Z</time>
      </trkpt>
      <trkpt lat="44.80506" lon="1.67666">
        <ele>321.927490234</ele>
        <time>2015-07-04T07:30:15.487Z</time>
      </trkpt>
      <trkpt lat="44.80506" lon="1.67665">
        <ele>321.999969482</ele>
        <time>2015-07-04T07:30:16.484Z</time>
      </trkpt>
      <trkpt lat="44.80505" lon="1.67653">
        <ele>322.054473877</ele>
        <time>2015-07-04T07:30:23.546Z</time>
      </trkpt>
      <trkpt lat="44.80505" lon="1.67652">
        <ele>322.089508057</ele>
        <time>2015-07-04T07:30:24.488Z</time>
      </trkpt>
      <trkpt lat="44.80503" lon="1.67642">
        <ele>322.20916748</ele>
        <time>2015-07-04T07:30:31.48Z</time>
      </trkpt>
      <trkpt lat="44.80503" lon="1.67639">
        <ele>322.174133301</ele>
        <time>2015-07-04T07:30:32.51Z</time>
      </trkpt>
      <trkpt lat="44.80501" lon="1.67627">
        <ele>322.419067383</ele>
        <time>2015-07-04T07:30:40.479Z</time>
      </trkpt>
      <trkpt lat="44.805" lon="1.67626">
        <ele>322.470184326</ele>
        <time>2015-07-04T07:30:41.502Z</time>
      </trkpt>
      <trkpt lat="44.80499" lon="1.67615">
        <ele>322.861968994</ele>
        <time>2015-07-04T07:30:49.465Z</time>
      </trkpt>
      <trkpt lat="44.80498" lon="1.67612">
        <ele>322.914642334</ele>
        <time>2015-07-04T07:30:50.491Z</time>
      </trkpt>
      <trkpt lat="44.80496" lon="1.676">
        <ele>322.861663818</ele>
        <time>2015-07-04T07:30:57.481Z</time>
      </trkpt>
      <trkpt lat="44.80496" lon="1.67599">
        <ele>322.853790283</ele>
        <time>2015-07-04T07:30:58.523Z</time>
      </trkpt>
      <trkpt lat="44.80493" lon="1.67588">
        <ele>323.055969238</ele>
        <time>2015-07-04T07:31:07.482Z</time>
      </trkpt>
      <trkpt lat="44.80493" lon="1.67586">
        <ele>323.079376221</ele>
        <time>2015-07-04T07:31:08.879Z</time>
      </trkpt>
      <trkpt lat="44.80492" lon="1.67574">
        <ele>322.86315918</ele>
        <time>2015-07-04T07:31:15.486Z</time>
      </trkpt>
      <trkpt lat="44.80492" lon="1.67572">
        <ele>322.767456055</ele>
        <time>2015-07-04T07:31:16.478Z</time>
      </trkpt>
      <trkpt lat="44.80489" lon="1.67562">
        <ele>322.738983154</ele>
        <time>2015-07-04T07:31:24.518Z</time>
      </trkpt>
      <trkpt lat="44.80488" lon="1.6756">
        <ele>322.759521484</ele>
        <time>2015-07-04T07:31:25.485Z</time>
      </trkpt>
      <trkpt lat="44.80485" lon="1.67549">
        <ele>322.571380615</ele>
        <time>2015-07-04T07:31:32.53Z</time>
      </trkpt>
      <trkpt lat="44.80484" lon="1.67547">
        <ele>322.478057861</ele>
        <time>2015-07-04T07:31:33.476Z</time>
      </trkpt>
      <trkpt lat="44.80484" lon="1.67535">
        <ele>322.29107666</ele>
        <time>2015-07-04T07:31:41.711Z</time>
      </trkpt>
      <trkpt lat="44.80483" lon="1.67533">
        <ele>322.244110107</ele>
        <time>2015-07-04T07:31:42.451Z</time>
      </trkpt>
      <trkpt lat="44.8048" lon="1.67522">
        <ele>322.131408691</ele>
        <time>2015-07-04T07:31:50.484Z</time>
      </trkpt>
      <trkpt lat="44.8048" lon="1.6752">
        <ele>322.140197754</ele>
        <time>2015-07-04T07:31:51.488Z</time>
      </trkpt>
      <trkpt lat="44.80479" lon="1.67508">
        <ele>321.896148682</ele>
        <time>2015-07-04T07:31:57.606Z</time>
      </trkpt>
      <trkpt lat="44.80479" lon="1.67506">
        <ele>321.889160156</ele>
        <time>2015-07-04T07:31:58.492Z</time>
      </trkpt>
      <trkpt lat="44.80478" lon="1.67494">
        <ele>321.8359375</ele>
        <time>2015-07-04T07:32:07.695Z</time>
      </trkpt>
      <trkpt lat="44.80478" lon="1.67492">
        <ele>321.790405273</ele>
        <time>2015-07-04T07:32:08.47Z</time>
      </trkpt>
      <trkpt lat="44.80477" lon="1.67481">
        <ele>321.02142334</ele>
        <time>2015-07-04T07:32:17.489Z</time>
      </trkpt>
      <trkpt lat="44.80476" lon="1.67479">
        <ele>320.964813232</ele>
        <time>2015-07-04T07:32:18.49Z</time>
      </trkpt>
      <trkpt lat="44.80475" lon="1.67467">
        <ele>321.161987305</ele>
        <time>2015-07-04T07:32:25.493Z</time>
      </trkpt>
      <trkpt lat="44.80475" lon="1.67466">
        <ele>321.231994629</ele>
        <time>2015-07-04T07:32:26.44Z</time>
      </trkpt>
      <trkpt lat="44.80474" lon="1.67454">
        <ele>321.643341064</ele>
        <time>2015-07-04T07:32:32.488Z</time>
      </trkpt>
      <trkpt lat="44.80474" lon="1.67453">
        <ele>321.672607422</ele>
        <time>2015-07-04T07:32:33.464Z</time>
      </trkpt>
      <trkpt lat="44.80473" lon="1.67441">
        <ele>321.765960693</ele>
        <time>2015-07-04T07:32:44.482Z</time>
      </trkpt>
      <trkpt lat="44.80473" lon="1.67439">
        <ele>321.740509033</ele>
        <time>2015-07-04T07:32:45.635Z</time>
      </trkpt>
      <trkpt lat="44.80471" lon="1.67428">
        <ele>321.905700684</ele>
        <time>2015-07-04T07:32:54.543Z</time>
      </trkpt>
      <trkpt lat="44.80471" lon="1.67426">
        <ele>321.887664795</ele>
        <time>2015-07-04T07:32:55.424Z</time>
      </trkpt>
      <trkpt lat="44.80472" lon="1.67413">
        <ele>321.452850342</ele>
        <time>2015-07-04T07:33:02.494Z</time>
      </trkpt>
      <trkpt lat="44.80472" lon="1.67412">
        <ele>321.398803711</ele>
        <time>2015-07-04T07:33:03.42Z</time>
      </trkpt>
      <trkpt lat="44.80472" lon="1.67401">
        <ele>322.031188965</ele>
        <time>2015-07-04T07:33:12.01Z</time>
      </trkpt>
      <trkpt lat="44.80472" lon="1.67399">
        <ele>322.21081543</ele>
        <time>2015-07-04T07:33:12.487Z</time>
      </trkpt>
      <trkpt lat="44.80472" lon="1.67387">
        <ele>323.544250488</ele>
        <time>2015-07-04T07:33:21.49Z</time>
      </trkpt>
      <trkpt lat="44.80472" lon="1.67386">
        <ele>323.670684814</ele>
        <time>2015-07-04T07:33:22.521Z</time>
      </trkpt>
      <trkpt lat="44.80471" lon="1.67374">
        <ele>324.384307861</ele>
        <time>2015-07-04T07:33:31.483Z</time>
      </trkpt>
      <trkpt lat="44.80471" lon="1.67373">
        <ele>324.458129883</ele>
        <time>2015-07-04T07:33:32.491Z</time>
      </trkpt>
      <trkpt lat="44.80469" lon="1.67362">
        <ele>324.450927734</ele>
        <time>2015-07-04T07:33:39.499Z</time>
      </trkpt>
      <trkpt lat="44.80469" lon="1.6736">
        <ele>324.497589111</ele>
        <time>2015-07-04T07:33:40.524Z</time>
      </trkpt>
      <trkpt lat="44.80468" lon="1.67348">
        <ele>324.795318604</ele>
        <time>2015-07-04T07:33:47.493Z</time>
      </trkpt>
      <trkpt lat="44.80468" lon="1.67347">
        <ele>324.940917969</ele>
        <time>2015-07-04T07:33:48.491Z</time>
      </trkpt>
      <trkpt lat="44.80466" lon="1.67335">
        <ele>325.894927979</ele>
        <time>2015-07-04T07:33:56.505Z</time>
      </trkpt>
      <trkpt lat="44.80466" lon="1.67332">
        <ele>326.032470703</ele>
        <time>2015-07-04T07:33:57.484Z</time>
      </trkpt>
      <trkpt lat="44.80467" lon="1.67321">
        <ele>327.055114746</ele>
        <time>2015-07-04T07:34:04.468Z</time>
      </trkpt>
      <trkpt lat="44.80466" lon="1.67319">
        <ele>327.25970459</ele>
        <time>2015-07-04T07:34:05.476Z</time>
      </trkpt>
      <trkpt lat="44.80463" lon="1.67307">
        <ele>328.432525635</ele>
        <time>2015-07-04T07:34:13.492Z</time>
      </trkpt>
      <trkpt lat="44.80463" lon="1.67306">
        <ele>328.472686768</ele>
        <time>2015-07-04T07:34:14.487Z</time>
      </trkpt>
      <trkpt lat="44.80461" lon="1.67296">
        <ele>329.384552002</ele>
        <time>2015-07-04T07:34:23.409Z</time>
      </trkpt>
      <trkpt lat="44.8046" lon="1.67294">
        <ele>329.456848145</ele>
        <time>2015-07-04T07:34:24.411Z</time>
      </trkpt>
      <trkpt lat="44.80454" lon="1.67284">
        <ele>329.896575928</ele>
        <time>2015-07-04T07:34:31.416Z</time>
      </trkpt>
      <trkpt lat="44.80454" lon="1.67283">
        <ele>329.915405273</ele>
        <time>2015-07-04T07:34:32.397Z</time>
      </trkpt>
      <trkpt lat="44.80447" lon="1.67277">
        <ele>329.639404297</ele>
        <time>2015-07-04T07:35:53.464Z</time>
      </trkpt>
      <trkpt lat="44.80446" lon="1.67276">
        <ele>329.563415527</ele>
        <time>2015-07-04T07:35:54.484Z</time>
      </trkpt>
      <trkpt lat="44.80439" lon="1.67269">
        <ele>329.841186523</ele>
        <time>2015-07-04T07:36:03.461Z</time>
      </trkpt>
      <trkpt lat="44.80438" lon="1.67268">
        <ele>329.781280518</ele>
        <time>2015-07-04T07:36:04.466Z</time>
      </trkpt>
      <trkpt lat="44.80432" lon="1.6726">
        <ele>329.991241455</ele>
        <time>2015-07-04T07:36:13.497Z</time>
      </trkpt>
      <trkpt lat="44.80431" lon="1.67258">
        <ele>330.017944336</ele>
        <time>2015-07-04T07:36:14.502Z</time>
      </trkpt>
      <trkpt lat="44.80423" lon="1.67252">
        <ele>330.685943604</ele>
        <time>2015-07-04T07:36:24.501Z</time>
      </trkpt>
      <trkpt lat="44.80423" lon="1.67252">
        <ele>330.618255615</ele>
        <time>2015-07-04T07:36:25.501Z</time>
      </trkpt>
      <trkpt lat="44.80418" lon="1.67242">
        <ele>329.771606445</ele>
        <time>2015-07-04T07:36:56.881Z</time>
      </trkpt>
      <trkpt lat="44.80417" lon="1.67241">
        <ele>329.580780029</ele>
        <time>2015-07-04T07:36:57.493Z</time>
      </trkpt>
      <trkpt lat="44.80409" lon="1.6724">
        <ele>328.360900879</ele>
        <time>2015-07-04T07:37:17.541Z</time>
      </trkpt>
      <trkpt lat="44.80407" lon="1.6724">
        <ele>328.326599121</ele>
        <time>2015-07-04T07:37:18.492Z</time>
      </trkpt>
      <trkpt lat="44.80399" lon="1.67239">
        <ele>328.871520996</ele>
        <time>2015-07-04T07:37:28.5Z</time>
      </trkpt>
      <trkpt lat="44.80397" lon="1.67239">
        <ele>328.993621826</ele>
        <time>2015-07-04T07:37:29.497Z</time>
      </trkpt>
      <trkpt lat="44.80389" lon="1.67235">
        <ele>329.574829102</ele>
        <time>2015-07-04T07:37:42.481Z</time>
      </trkpt>
      <trkpt lat="44.80389" lon="1.67234">
        <ele>329.594512939</ele>
        <time>2015-07-04T07:37:43.529Z</time>
      </trkpt>
      <trkpt lat="44.8038" lon="1.67233">
        <ele>328.943328857</ele>
        <time>2015-07-04T07:37:56.1Z</time>
      </trkpt>
      <trkpt lat="44.80378" lon="1.67234">
        <ele>328.769134521</ele>
        <time>2015-07-04T07:37:56.439Z</time>
      </trkpt>
      <trkpt lat="44.8037" lon="1.67236">
        <ele>327.912628174</ele>
        <time>2015-07-04T07:38:08.51Z</time>
      </trkpt>
      <trkpt lat="44.80369" lon="1.67236">
        <ele>327.931335449</ele>
        <time>2015-07-04T07:38:09.429Z</time>
      </trkpt>
      <trkpt lat="44.80361" lon="1.67241">
        <ele>328.333221436</ele>
        <time>2015-07-04T07:38:20.573Z</time>
      </trkpt>
      <trkpt lat="44.80361" lon="1.67242">
        <ele>328.437591553</ele>
        <time>2015-07-04T07:38:21.508Z</time>
      </trkpt>
      <trkpt lat="44.80353" lon="1.67249">
        <ele>329.537780762</ele>
        <time>2015-07-04T07:38:31.506Z</time>
      </trkpt>
      <trkpt lat="44.80353" lon="1.67249">
        <ele>329.578704834</ele>
        <time>2015-07-04T07:38:32.547Z</time>
      </trkpt>
      <trkpt lat="44.80345" lon="1.67253">
        <ele>330.384033203</ele>
        <time>2015-07-04T07:38:38.488Z</time>
      </trkpt>
      <trkpt lat="44.80343" lon="1.67253">
        <ele>330.550262451</ele>
        <time>2015-07-04T07:38:39.503Z</time>
      </trkpt>
      <trkpt lat="44.80335" lon="1.67255">
        <ele>332.535430908</ele>
        <time>2015-07-04T07:38:50.497Z</time>
      </trkpt>
      <trkpt lat="44.80334" lon="1.67255">
        <ele>332.815582275</ele>
        <time>2015-07-04T07:38:51.497Z</time>
      </trkpt>
      <trkpt lat="44.80326" lon="1.67255">
        <ele>334.226135254</ele>
        <time>2015-07-04T07:38:57.481Z</time>
      </trkpt>
      <trkpt lat="44.80324" lon="1.67256">
        <ele>334.372253418</ele>
        <time>2015-07-04T07:38:58.485Z</time>
      </trkpt>
      <trkpt lat="44.80316" lon="1.67255">
        <ele>334.799224854</ele>
        <time>2015-07-04T07:39:04.466Z</time>
      </trkpt>
      <trkpt lat="44.80314" lon="1.67254">
        <ele>334.791748047</ele>
        <time>2015-07-04T07:39:05.48Z</time>
      </trkpt>
      <trkpt lat="44.80307" lon="1.67248">
        <ele>334.740722656</ele>
        <time>2015-07-04T07:39:09.508Z</time>
      </trkpt>
      <trkpt lat="44.80306" lon="1.67247">
        <ele>334.673553467</ele>
        <time>2015-07-04T07:39:10.493Z</time>
      </trkpt>
      <trkpt lat="44.80299" lon="1.67243">
        <ele>334.367889404</ele>
        <time>2015-07-04T07:39:20.173Z</time>
      </trkpt>
      <trkpt lat="44.80298" lon="1.67243">
        <ele>334.362426758</ele>
        <time>2015-07-04T07:39:20.53Z</time>
      </trkpt>
      <trkpt lat="44.80289" lon="1.67244">
        <ele>333.43951416</ele>
        <time>2015-07-04T07:39:31.506Z</time>
      </trkpt>
      <trkpt lat="44.80288" lon="1.67244">
        <ele>333.328125</ele>
        <time>2015-07-04T07:39:32.503Z</time>
      </trkpt>
      <trkpt lat="44.80281" lon="1.67249">
        <ele>330.981964111</ele>
        <time>2015-07-04T07:39:53.494Z</time>
      </trkpt>
      <trkpt lat="44.8028" lon="1.6725">
        <ele>330.776062012</ele>
        <time>2015-07-04T07:39:54.556Z</time>
      </trkpt>
      <trkpt lat="44.80275" lon="1.67259">
        <ele>329.224456787</ele>
        <time>2015-07-04T07:40:03.505Z</time>
      </trkpt>
      <trkpt lat="44.80274" lon="1.6726">
        <ele>328.98223877</ele>
        <time>2015-07-04T07:40:04.509Z</time>
      </trkpt>
      <trkpt lat="44.8027" lon="1.67271">
        <ele>326.98614502</ele>
        <time>2015-07-04T07:40:13.57Z</time>
      </trkpt>
      <trkpt lat="44.8027" lon="1.67272">
        <ele>326.836517334</ele>
        <time>2015-07-04T07:40:14.503Z</time>
      </trkpt>
      <trkpt lat="44.80269" lon="1.67284">
        <ele>325.413330078</ele>
        <time>2015-07-04T07:40:23.494Z</time>
      </trkpt>
      <trkpt lat="44.80269" lon="1.67285">
        <ele>325.156097412</ele>
        <time>2015-07-04T07:40:24.5Z</time>
      </trkpt>
      <trkpt lat="44.80263" lon="1.67295">
        <ele>324.314788818</ele>
        <time>2015-07-04T07:40:32.455Z</time>
      </trkpt>
      <trkpt lat="44.80263" lon="1.67296">
        <ele>324.379150391</ele>
        <time>2015-07-04T07:40:33.47Z</time>
      </trkpt>
      <trkpt lat="44.80255" lon="1.67301">
        <ele>324.393096924</ele>
        <time>2015-07-04T07:40:42.492Z</time>
      </trkpt>
      <trkpt lat="44.80255" lon="1.67301">
        <ele>324.292663574</ele>
        <time>2015-07-04T07:40:43.713Z</time>
      </trkpt>
      <trkpt lat="44.80246" lon="1.67302">
        <ele>324.120941162</ele>
        <time>2015-07-04T07:40:51.679Z</time>
      </trkpt>
      <trkpt lat="44.80245" lon="1.67301">
        <ele>324.161346436</ele>
        <time>2015-07-04T07:40:52.523Z</time>
      </trkpt>
      <trkpt lat="44.80237" lon="1.673">
        <ele>324.565551758</ele>
        <time>2015-07-04T07:41:02.517Z</time>
      </trkpt>
      <trkpt lat="44.80236" lon="1.673">
        <ele>324.492919922</ele>
        <time>2015-07-04T07:41:03.424Z</time>
      </trkpt>
      <trkpt lat="44.80228" lon="1.67297">
        <ele>323.86932373</ele>
        <time>2015-07-04T07:41:12.496Z</time>
      </trkpt>
      <trkpt lat="44.80227" lon="1.67298">
        <ele>323.833526611</ele>
        <time>2015-07-04T07:41:13.475Z</time>
      </trkpt>
      <trkpt lat="44.80218" lon="1.67298">
        <ele>323.446380615</ele>
        <time>2015-07-04T07:41:21.489Z</time>
      </trkpt>
      <trkpt lat="44.80217" lon="1.67298">
        <ele>323.473846436</ele>
        <time>2015-07-04T07:41:22.471Z</time>
      </trkpt>
      <trkpt lat="44.80209" lon="1.67296">
        <ele>322.956695557</ele>
        <time>2015-07-04T07:41:28.434Z</time>
      </trkpt>
      <trkpt lat="44.80207" lon="1.67296">
        <ele>322.780700684</ele>
        <time>2015-07-04T07:41:29.494Z</time>
      </trkpt>
      <trkpt lat="44.80199" lon="1.67297">
        <ele>321.625335693</ele>
        <time>2015-07-04T07:41:37.463Z</time>
      </trkpt>
      <trkpt lat="44.80198" lon="1.67297">
        <ele>321.595092773</ele>
        <time>2015-07-04T07:41:38.468Z</time>
      </trkpt>
      <trkpt lat="44.8019" lon="1.67298">
        <ele>321.275604248</ele>
        <time>2015-07-04T07:41:46.004Z</time>
      </trkpt>
      <trkpt lat="44.80189" lon="1.67297">
        <ele>321.249664307</ele>
        <time>2015-07-04T07:41:46.456Z</time>
      </trkpt>
      <trkpt lat="44.8018" lon="1.67293">
        <ele>321.784851074</ele>
        <time>2015-07-04T07:41:57.488Z</time>
      </trkpt>
      <trkpt lat="44.80179" lon="1.67293">
        <ele>321.876434326</ele>
        <time>2015-07-04T07:41:58.504Z</time>
      </trkpt>
      <trkpt lat="44.80171" lon="1.67291">
        <ele>322.987030029</ele>
        <time>2015-07-04T07:42:07.486Z</time>
      </trkpt>
      <trkpt lat="44.8017" lon="1.67291">
        <ele>322.985473633</ele>
        <time>2015-07-04T07:42:08.458Z</time>
      </trkpt>
      <trkpt lat="44.80163" lon="1.67286">
        <ele>324.285003662</ele>
        <time>2015-07-04T07:42:50.488Z</time>
      </trkpt>
      <trkpt lat="44.80162" lon="1.67285">
        <ele>324.205566406</ele>
        <time>2015-07-04T07:42:51.509Z</time>
      </trkpt>
      <trkpt lat="44.80154" lon="1.67281">
        <ele>323.234649658</ele>
        <time>2015-07-04T07:43:04.469Z</time>
      </trkpt>
      <trkpt lat="44.80153" lon="1.6728">
        <ele>323.235961914</ele>
        <time>2015-07-04T07:43:05.472Z</time>
      </trkpt>
      <trkpt lat="44.80146" lon="1.67272">
        <ele>323.667816162</ele>
        <time>2015-07-04T07:43:23.491Z</time>
      </trkpt>
      <trkpt lat="44.80144" lon="1.67272">
        <ele>323.515808105</ele>
        <time>2015-07-04T07:43:25.091Z</time>
      </trkpt>
      <trkpt lat="44.80136" lon="1.67268">
        <ele>322.320068359</ele>
        <time>2015-07-04T07:43:42.515Z</time>
      </trkpt>
      <trkpt lat="44.80135" lon="1.67267">
        <ele>322.156036377</ele>
        <time>2015-07-04T07:43:43.53Z</time>
      </trkpt>
      <trkpt lat="44.8013" lon="1.67258">
        <ele>321.822570801</ele>
        <time>2015-07-04T07:44:13.481Z</time>
      </trkpt>
      <trkpt lat="44.80129" lon="1.67257">
        <ele>321.834594727</ele>
        <time>2015-07-04T07:44:14.499Z</time>
      </trkpt>
      <trkpt lat="44.80129" lon="1.67245">
        <ele>319.683654785</ele>
        <time>2015-07-04T07:44:31.643Z</time>
      </trkpt>
      <trkpt lat="44.8013" lon="1.67243">
        <ele>319.539611816</ele>
        <time>2015-07-04T07:44:32.497Z</time>
      </trkpt>
      <trkpt lat="44.80131" lon="1.6723">
        <ele>319.102996826</ele>
        <time>2015-07-04T07:44:44.471Z</time>
      </trkpt>
      <trkpt lat="44.80131" lon="1.67229">
        <ele>319.201263428</ele>
        <time>2015-07-04T07:44:45.5Z</time>
      </trkpt>
      <trkpt lat="44.80123" lon="1.67226">
        <ele>318.279663086</ele>
        <time>2015-07-04T07:46:09.502Z</time>
      </trkpt>
      <trkpt lat="44.80122" lon="1.67225">
        <ele>318.220123291</ele>
        <time>2015-07-04T07:46:10.526Z</time>
      </trkpt>
      <trkpt lat="44.80115" lon="1.67219">
        <ele>319.338989258</ele>
        <time>2015-07-04T07:46:40.826Z</time>
      </trkpt>
      <trkpt lat="44.80113" lon="1.67218">
        <ele>319.395019531</ele>
        <time>2015-07-04T07:46:41.495Z</time>
      </trkpt>
      <trkpt lat="44.80106" lon="1.67213">
        <ele>320.297943115</ele>
        <time>2015-07-04T07:46:49.481Z</time>
      </trkpt>
      <trkpt lat="44.80105" lon="1.67212">
        <ele>320.370422363</ele>
        <time>2015-07-04T07:46:50.496Z</time>
      </trkpt>
      <trkpt lat="44.80098" lon="1.67208">
        <ele>320.67956543</ele>
        <time>2015-07-04T07:46:56.206Z</time>
      </trkpt>
      <trkpt lat="44.80095" lon="1.67208">
        <ele>320.721038818</ele>
        <time>2015-07-04T07:46:56.518Z</time>
      </trkpt>
      <trkpt lat="44.80087" lon="1.67202">
        <ele>322.172119141</ele>
        <time>2015-07-04T07:47:08.487Z</time>
      </trkpt>
      <trkpt lat="44.80087" lon="1.67202">
        <ele>322.329803467</ele>
        <time>2015-07-04T07:47:09.475Z</time>
      </trkpt>
      <trkpt lat="44.80085" lon="1.67189">
        <ele>332.556488037</ele>
        <time>2015-07-04T07:47:44.588Z</time>
      </trkpt>
      <trkpt lat="44.80084" lon="1.67188">
        <ele>332.553833008</ele>
        <time>2015-07-04T07:47:45.451Z</time>
      </trkpt>
      <trkpt lat="44.80093" lon="1.67192">
        <ele>332.254699707</ele>
        <time>2015-07-04T07:52:03.496Z</time>
      </trkpt>
      <trkpt lat="44.80093" lon="1.67193">
        <ele>332.042694092</ele>
        <time>2015-07-04T07:52:04.496Z</time>
      </trkpt>
      <trkpt lat="44.80101" lon="1.67197">
        <ele>328.7684021</ele>
        <time>2015-07-04T07:52:24.527Z</time>
      </trkpt>
      <trkpt lat="44.80102" lon="1.67198">
        <ele>328.549987793</ele>
        <time>2015-07-04T07:52:25.443Z</time>
      </trkpt>
      <trkpt lat="44.80109" lon="1.67205">
        <ele>327.517120361</ele>
        <time>2015-07-04T07:52:32.48Z</time>
      </trkpt>
      <trkpt lat="44.8011" lon="1.67207">
        <ele>327.475250244</ele>
        <time>2015-07-04T07:52:33.577Z</time>
      </trkpt>
      <trkpt lat="44.80115" lon="1.67216">
        <ele>326.896484375</ele>
        <time>2015-07-04T07:52:38.425Z</time>
      </trkpt>
      <trkpt lat="44.80116" lon="1.67219">
        <ele>326.815612793</ele>
        <time>2015-07-04T07:52:39.474Z</time>
      </trkpt>
      <trkpt lat="44.8012" lon="1.6723">
        <ele>324.863037109</ele>
        <time>2015-07-04T07:52:50.491Z</time>
      </trkpt>
      <trkpt lat="44.8012" lon="1.67232">
        <ele>324.792022705</ele>
        <time>2015-07-04T07:52:51.487Z</time>
      </trkpt>
      <trkpt lat="44.80121" lon="1.67242">
        <ele>324.773406982</ele>
        <time>2015-07-04T07:52:56.737Z</time>
      </trkpt>
      <trkpt lat="44.80121" lon="1.67245">
        <ele>324.713897705</ele>
        <time>2015-07-04T07:52:57.469Z</time>
      </trkpt>
      <trkpt lat="44.80126" lon="1.67255">
        <ele>324.730865479</ele>
        <time>2015-07-04T07:53:10.496Z</time>
      </trkpt>
      <trkpt lat="44.80126" lon="1.67255">
        <ele>324.567230225</ele>
        <time>2015-07-04T07:53:11.489Z</time>
      </trkpt>
      <trkpt lat="44.80133" lon="1.67262">
        <ele>323.915130615</ele>
        <time>2015-07-04T07:53:25.536Z</time>
      </trkpt>
      <trkpt lat="44.80134" lon="1.67262">
        <ele>323.996734619</ele>
        <time>2015-07-04T07:53:26.495Z</time>
      </trkpt>
      <trkpt lat="44.80142" lon="1.67267">
        <ele>325.154846191</ele>
        <time>2015-07-04T07:53:41.468Z</time>
      </trkpt>
      <trkpt lat="44.80143" lon="1.67267">
        <ele>325.25579834</ele>
        <time>2015-07-04T07:53:42.469Z</time>
      </trkpt>
      <trkpt lat="44.80151" lon="1.67271">
        <ele>325.919036865</ele>
        <time>2015-07-04T07:53:52.493Z</time>
      </trkpt>
      <trkpt lat="44.80152" lon="1.67271">
        <ele>325.949066162</ele>
        <time>2015-07-04T07:53:53.504Z</time>
      </trkpt>
      <trkpt lat="44.80158" lon="1.67279">
        <ele>326.069061279</ele>
        <time>2015-07-04T07:54:01.485Z</time>
      </trkpt>
      <trkpt lat="44.80159" lon="1.67281">
        <ele>325.945098877</ele>
        <time>2015-07-04T07:54:02.504Z</time>
      </trkpt>
      <trkpt lat="44.80166" lon="1.67288">
        <ele>324.588653564</ele>
        <time>2015-07-04T07:54:15.249Z</time>
      </trkpt>
      <trkpt lat="44.80167" lon="1.67288">
        <ele>324.642089844</ele>
        <time>2015-07-04T07:54:15.531Z</time>
      </trkpt>
      <trkpt lat="44.80175" lon="1.67295">
        <ele>324.770141602</ele>
        <time>2015-07-04T07:54:25.758Z</time>
      </trkpt>
      <trkpt lat="44.80176" lon="1.67295">
        <ele>324.887237549</ele>
        <time>2015-07-04T07:54:26.461Z</time>
      </trkpt>
      <trkpt lat="44.80184" lon="1.673">
        <ele>324.925933838</ele>
        <time>2015-07-04T07:54:33.49Z</time>
      </trkpt>
      <trkpt lat="44.80184" lon="1.673">
        <ele>324.875335693</ele>
        <time>2015-07-04T07:54:34.511Z</time>
      </trkpt>
      <trkpt lat="44.80193" lon="1.67302">
        <ele>323.899902344</ele>
        <time>2015-07-04T07:54:44.514Z</time>
      </trkpt>
      <trkpt lat="44.80194" lon="1.67302">
        <ele>323.917449951</ele>
        <time>2015-07-04T07:54:45.575Z</time>
      </trkpt>
      <trkpt lat="44.80203" lon="1.67304">
        <ele>323.664764404</ele>
        <time>2015-07-04T07:54:56.927Z</time>
      </trkpt>
      <trkpt lat="44.80204" lon="1.67305">
        <ele>323.555389404</ele>
        <time>2015-07-04T07:54:57.494Z</time>
      </trkpt>
      <trkpt lat="44.8021" lon="1.67297">
        <ele>323.291351318</ele>
        <time>2015-07-04T07:55:13.498Z</time>
      </trkpt>
      <trkpt lat="44.80211" lon="1.67296">
        <ele>323.324645996</ele>
        <time>2015-07-04T07:55:14.497Z</time>
      </trkpt>
      <trkpt lat="44.80219" lon="1.67294">
        <ele>323.000915527</ele>
        <time>2015-07-04T07:55:24.498Z</time>
      </trkpt>
      <trkpt lat="44.8022" lon="1.67294">
        <ele>322.952728271</ele>
        <time>2015-07-04T07:55:25.519Z</time>
      </trkpt>
      <trkpt lat="44.80228" lon="1.67298">
        <ele>322.870880127</ele>
        <time>2015-07-04T07:55:39.391Z</time>
      </trkpt>
      <trkpt lat="44.80229" lon="1.67297">
        <ele>322.82208252</ele>
        <time>2015-07-04T07:55:40.484Z</time>
      </trkpt>
      <trkpt lat="44.80238" lon="1.67296">
        <ele>322.424835205</ele>
        <time>2015-07-04T07:55:50.428Z</time>
      </trkpt>
      <trkpt lat="44.80239" lon="1.67296">
        <ele>322.46295166</ele>
        <time>2015-07-04T07:55:51.48Z</time>
      </trkpt>
      <trkpt lat="44.80247" lon="1.67297">
        <ele>322.766235352</ele>
        <time>2015-07-04T07:56:08.514Z</time>
      </trkpt>
      <trkpt lat="44.80248" lon="1.67297">
        <ele>322.722930908</ele>
        <time>2015-07-04T07:56:09.481Z</time>
      </trkpt>
      <trkpt lat="44.80254" lon="1.6729">
        <ele>323.601409912</ele>
        <time>2015-07-04T07:56:21.43Z</time>
      </trkpt>
      <trkpt lat="44.80255" lon="1.67288">
        <ele>323.805206299</ele>
        <time>2015-07-04T07:56:22.493Z</time>
      </trkpt>
      <trkpt lat="44.80261" lon="1.67279">
        <ele>324.493713379</ele>
        <time>2015-07-04T07:56:32.429Z</time>
      </trkpt>
      <trkpt lat="44.80261" lon="1.67278">
        <ele>324.526733398</ele>
        <time>2015-07-04T07:56:33.524Z</time>
      </trkpt>
      <trkpt lat="44.80268" lon="1.67271">
        <ele>324.13494873</ele>
        <time>2015-07-04T07:56:46.145Z</time>
      </trkpt>
      <trkpt lat="44.80268" lon="1.6727">
        <ele>324.236602783</ele>
        <time>2015-07-04T07:56:46.49Z</time>
      </trkpt>
      <trkpt lat="44.80275" lon="1.67261">
        <ele>324.728240967</ele>
        <time>2015-07-04T07:56:52.525Z</time>
      </trkpt>
      <trkpt lat="44.80276" lon="1.6726">
        <ele>324.745330811</ele>
        <time>2015-07-04T07:56:53.488Z</time>
      </trkpt>
      <trkpt lat="44.8028" lon="1.6725">
        <ele>324.250946045</ele>
        <time>2015-07-04T07:57:01.876Z</time>
      </trkpt>
      <trkpt lat="44.8028" lon="1.67249">
        <ele>324.287200928</ele>
        <time>2015-07-04T07:57:02.48Z</time>
      </trkpt>
      <trkpt lat="44.80285" lon="1.67239">
        <ele>324.486755371</ele>
        <time>2015-07-04T07:57:15.55Z</time>
      </trkpt>
      <trkpt lat="44.80286" lon="1.67239">
        <ele>324.491516113</ele>
        <time>2015-07-04T07:57:16.484Z</time>
      </trkpt>
      <trkpt lat="44.80294" lon="1.67234">
        <ele>324.821624756</ele>
        <time>2015-07-04T07:57:26.483Z</time>
      </trkpt>
      <trkpt lat="44.80294" lon="1.67234">
        <ele>324.91494751</ele>
        <time>2015-07-04T07:57:27.496Z</time>
      </trkpt>
      <trkpt lat="44.80303" lon="1.67233">
        <ele>325.439758301</ele>
        <time>2015-07-04T07:57:37.475Z</time>
      </trkpt>
      <trkpt lat="44.80304" lon="1.67234">
        <ele>325.479370117</ele>
        <time>2015-07-04T07:57:38.504Z</time>
      </trkpt>
      <trkpt lat="44.80311" lon="1.6724">
        <ele>326.228424072</ele>
        <time>2015-07-04T07:57:47.491Z</time>
      </trkpt>
      <trkpt lat="44.80312" lon="1.6724">
        <ele>326.290374756</ele>
        <time>2015-07-04T07:57:48.518Z</time>
      </trkpt>
      <trkpt lat="44.80319" lon="1.67245">
        <ele>326.991241455</ele>
        <time>2015-07-04T07:58:00.509Z</time>
      </trkpt>
      <trkpt lat="44.8032" lon="1.67245">
        <ele>327.01260376</ele>
        <time>2015-07-04T07:58:01.491Z</time>
      </trkpt>
      <trkpt lat="44.80329" lon="1.67247">
        <ele>327.145080566</ele>
        <time>2015-07-04T07:58:12.526Z</time>
      </trkpt>
      <trkpt lat="44.8033" lon="1.67247">
        <ele>327.164245605</ele>
        <time>2015-07-04T07:58:13.489Z</time>
      </trkpt>
      <trkpt lat="44.80338" lon="1.67243">
        <ele>327.54196167</ele>
        <time>2015-07-04T07:58:26.489Z</time>
      </trkpt>
      <trkpt lat="44.80339" lon="1.67243">
        <ele>327.560699463</ele>
        <time>2015-07-04T07:58:27.484Z</time>
      </trkpt>
      <trkpt lat="44.80347" lon="1.67239">
        <ele>327.235198975</ele>
        <time>2015-07-04T07:58:33.495Z</time>
      </trkpt>
      <trkpt lat="44.80348" lon="1.67238">
        <ele>327.258026123</ele>
        <time>2015-07-04T07:58:34.428Z</time>
      </trkpt>
      <trkpt lat="44.80355" lon="1.67233">
        <ele>327.350524902</ele>
        <time>2015-07-04T07:58:43.492Z</time>
      </trkpt>
      <trkpt lat="44.80357" lon="1.67232">
        <ele>327.321533203</ele>
        <time>2015-07-04T07:58:44.482Z</time>
      </trkpt>
      <trkpt lat="44.80363" lon="1.67227">
        <ele>327.025878906</ele>
        <time>2015-07-04T07:58:52.481Z</time>
      </trkpt>
      <trkpt lat="44.80365" lon="1.67227">
        <ele>326.996429443</ele>
        <time>2015-07-04T07:58:53.494Z</time>
      </trkpt>
      <trkpt lat="44.80374" lon="1.67224">
        <ele>326.996917725</ele>
        <time>2015-07-04T07:59:02.498Z</time>
      </trkpt>
      <trkpt lat="44.80374" lon="1.67224">
        <ele>326.983306885</ele>
        <time>2015-07-04T07:59:03.485Z</time>
      </trkpt>
      <trkpt lat="44.80382" lon="1.67227">
        <ele>327.776367188</ele>
        <time>2015-07-04T07:59:13.504Z</time>
      </trkpt>
      <trkpt lat="44.80384" lon="1.67227">
        <ele>327.939971924</ele>
        <time>2015-07-04T07:59:14.483Z</time>
      </trkpt>
      <trkpt lat="44.80391" lon="1.67233">
        <ele>327.882781982</ele>
        <time>2015-07-04T07:59:24.492Z</time>
      </trkpt>
      <trkpt lat="44.80392" lon="1.67233">
        <ele>327.769012451</ele>
        <time>2015-07-04T07:59:25.507Z</time>
      </trkpt>
      <trkpt lat="44.804" lon="1.67232">
        <ele>328.414245605</ele>
        <time>2015-07-04T08:00:34.465Z</time>
      </trkpt>
      <trkpt lat="44.80401" lon="1.67232">
        <ele>328.51550293</ele>
        <time>2015-07-04T08:00:35.494Z</time>
      </trkpt>
      <trkpt lat="44.80409" lon="1.67228">
        <ele>328.846588135</ele>
        <time>2015-07-04T08:00:44.495Z</time>
      </trkpt>
      <trkpt lat="44.8041" lon="1.67227">
        <ele>328.907592773</ele>
        <time>2015-07-04T08:00:45.427Z</time>
      </trkpt>
      <trkpt lat="44.80418" lon="1.67226">
        <ele>330.10848999</ele>
        <time>2015-07-04T08:00:55.501Z</time>
      </trkpt>
      <trkpt lat="44.80419" lon="1.67225">
        <ele>330.231018066</ele>
        <time>2015-07-04T08:00:56.508Z</time>
      </trkpt>
      <trkpt lat="44.80422" lon="1.67214">
        <ele>330.352600098</ele>
        <time>2015-07-04T08:01:07.592Z</time>
      </trkpt>
      <trkpt lat="44.80422" lon="1.67213">
        <ele>330.31262207</ele>
        <time>2015-07-04T08:01:08.448Z</time>
      </trkpt>
      <trkpt lat="44.80427" lon="1.67203">
        <ele>331.201293945</ele>
        <time>2015-07-04T08:01:16.52Z</time>
      </trkpt>
      <trkpt lat="44.80428" lon="1.67201">
        <ele>331.433410645</ele>
        <time>2015-07-04T08:01:17.487Z</time>
      </trkpt>
      <trkpt lat="44.80432" lon="1.6719">
        <ele>331.793945312</ele>
        <time>2015-07-04T08:01:27.511Z</time>
      </trkpt>
      <trkpt lat="44.80432" lon="1.67189">
        <ele>331.79083252</ele>
        <time>2015-07-04T08:01:28.504Z</time>
      </trkpt>
      <trkpt lat="44.80435" lon="1.67178">
        <ele>331.478637695</ele>
        <time>2015-07-04T08:01:37.501Z</time>
      </trkpt>
      <trkpt lat="44.80436" lon="1.67177">
        <ele>331.51260376</ele>
        <time>2015-07-04T08:01:38.492Z</time>
      </trkpt>
      <trkpt lat="44.80441" lon="1.67168">
        <ele>331.846984863</ele>
        <time>2015-07-04T08:01:47.484Z</time>
      </trkpt>
      <trkpt lat="44.80442" lon="1.67166">
        <ele>331.92288208</ele>
        <time>2015-07-04T08:01:48.501Z</time>
      </trkpt>
      <trkpt lat="44.80446" lon="1.67156">
        <ele>332.277435303</ele>
        <time>2015-07-04T08:01:57.124Z</time>
      </trkpt>
      <trkpt lat="44.80447" lon="1.67155">
        <ele>332.241088867</ele>
        <time>2015-07-04T08:01:57.43Z</time>
      </trkpt>
      <trkpt lat="44.80453" lon="1.67147">
        <ele>332.381958008</ele>
        <time>2015-07-04T08:02:04.478Z</time>
      </trkpt>
      <trkpt lat="44.80453" lon="1.67145">
        <ele>332.371063232</ele>
        <time>2015-07-04T08:02:05.494Z</time>
      </trkpt>
      <trkpt lat="44.80453" lon="1.67134">
        <ele>331.844177246</ele>
        <time>2015-07-04T08:02:13.425Z</time>
      </trkpt>
      <trkpt lat="44.80453" lon="1.67132">
        <ele>331.806610107</ele>
        <time>2015-07-04T08:02:14.492Z</time>
      </trkpt>
      <trkpt lat="44.80452" lon="1.67121">
        <ele>331.276550293</ele>
        <time>2015-07-04T08:02:23.484Z</time>
      </trkpt>
      <trkpt lat="44.80452" lon="1.67119">
        <ele>331.177490234</ele>
        <time>2015-07-04T08:02:24.488Z</time>
      </trkpt>
      <trkpt lat="44.80451" lon="1.67107">
        <ele>331.206695557</ele>
        <time>2015-07-04T08:02:33.507Z</time>
      </trkpt>
      <trkpt lat="44.8045" lon="1.67105">
        <ele>331.233581543</ele>
        <time>2015-07-04T08:02:34.502Z</time>
      </trkpt>
      <trkpt lat="44.80449" lon="1.67093">
        <ele>331.140472412</ele>
        <time>2015-07-04T08:02:43.605Z</time>
      </trkpt>
      <trkpt lat="44.80449" lon="1.67091">
        <ele>331.132476807</ele>
        <time>2015-07-04T08:02:44.496Z</time>
      </trkpt>
      <trkpt lat="44.80453" lon="1.67081">
        <ele>331.104644775</ele>
        <time>2015-07-04T08:02:50.482Z</time>
      </trkpt>
      <trkpt lat="44.80454" lon="1.6708">
        <ele>331.096832275</ele>
        <time>2015-07-04T08:02:51.504Z</time>
      </trkpt>
      <trkpt lat="44.80461" lon="1.67072">
        <ele>331.276000977</ele>
        <time>2015-07-04T08:03:00.497Z</time>
      </trkpt>
      <trkpt lat="44.80461" lon="1.67072">
        <ele>331.373718262</ele>
        <time>2015-07-04T08:03:01.489Z</time>
      </trkpt>
      <trkpt lat="44.80469" lon="1.67067">
        <ele>331.136413574</ele>
        <time>2015-07-04T08:03:12.239Z</time>
      </trkpt>
      <trkpt lat="44.8047" lon="1.67066">
        <ele>331.060638428</ele>
        <time>2015-07-04T08:03:12.6Z</time>
      </trkpt>
      <trkpt lat="44.80478" lon="1.67063">
        <ele>331.234954834</ele>
        <time>2015-07-04T08:03:19.489Z</time>
      </trkpt>
      <trkpt lat="44.80479" lon="1.67062">
        <ele>331.277557373</ele>
        <time>2015-07-04T08:03:20.509Z</time>
      </trkpt>
      <trkpt lat="44.80487" lon="1.67059">
        <ele>331.539276123</ele>
        <time>2015-07-04T08:03:30.818Z</time>
      </trkpt>
      <trkpt lat="44.80489" lon="1.67058">
        <ele>331.530426025</ele>
        <time>2015-07-04T08:03:31.497Z</time>
      </trkpt>
      <trkpt lat="44.80498" lon="1.67059">
        <ele>331.963562012</ele>
        <time>2015-07-04T08:03:37.494Z</time>
      </trkpt>
      <trkpt lat="44.80499" lon="1.67059">
        <ele>332.047058105</ele>
        <time>2015-07-04T08:03:38.504Z</time>
      </trkpt>
      <trkpt lat="44.80508" lon="1.67059">
        <ele>332.623474121</ele>
        <time>2015-07-04T08:03:46.49Z</time>
      </trkpt>
      <trkpt lat="44.80509" lon="1.67058">
        <ele>332.690002441</ele>
        <time>2015-07-04T08:03:47.481Z</time>
      </trkpt>
      <trkpt lat="44.80517" lon="1.67059">
        <ele>332.910705566</ele>
        <time>2015-07-04T08:03:55.497Z</time>
      </trkpt>
      <trkpt lat="44.80518" lon="1.67059">
        <ele>332.83114624</ele>
        <time>2015-07-04T08:03:56.517Z</time>
      </trkpt>
      <trkpt lat="44.80526" lon="1.67062">
        <ele>333.031707764</ele>
        <time>2015-07-04T08:04:05.583Z</time>
      </trkpt>
      <trkpt lat="44.80528" lon="1.67063">
        <ele>333.075286865</ele>
        <time>2015-07-04T08:04:06.45Z</time>
      </trkpt>
      <trkpt lat="44.80536" lon="1.67062">
        <ele>333.202850342</ele>
        <time>2015-07-04T08:04:15.496Z</time>
      </trkpt>
      <trkpt lat="44.80538" lon="1.67061">
        <ele>333.181732178</ele>
        <time>2015-07-04T08:04:16.528Z</time>
      </trkpt>
      <trkpt lat="44.80546" lon="1.67062">
        <ele>333.693237305</ele>
        <time>2015-07-04T08:04:24.508Z</time>
      </trkpt>
      <trkpt lat="44.80547" lon="1.67063">
        <ele>333.783874512</ele>
        <time>2015-07-04T08:04:25.523Z</time>
      </trkpt>
      <trkpt lat="44.80556" lon="1.67066">
        <ele>333.937255859</ele>
        <time>2015-07-04T08:04:32.486Z</time>
      </trkpt>
      <trkpt lat="44.80557" lon="1.67066">
        <ele>333.921447754</ele>
        <time>2015-07-04T08:04:33.484Z</time>
      </trkpt>
      <trkpt lat="44.80564" lon="1.67067">
        <ele>334.787445068</ele>
        <time>2015-07-04T08:04:46.027Z</time>
      </trkpt>
      <trkpt lat="44.80566" lon="1.67068">
        <ele>334.88659668</ele>
        <time>2015-07-04T08:04:47.087Z</time>
      </trkpt>
      <trkpt lat="44.80574" lon="1.67068">
        <ele>335.841217041</ele>
        <time>2015-07-04T08:04:52.519Z</time>
      </trkpt>
      <trkpt lat="44.80575" lon="1.67068">
        <ele>336.041320801</ele>
        <time>2015-07-04T08:04:53.486Z</time>
      </trkpt>
      <trkpt lat="44.80583" lon="1.67069">
        <ele>337.007995605</ele>
        <time>2015-07-04T08:05:02.438Z</time>
      </trkpt>
      <trkpt lat="44.80584" lon="1.67068">
        <ele>337.037750244</ele>
        <time>2015-07-04T08:05:03.489Z</time>
      </trkpt>
      <trkpt lat="44.80593" lon="1.67068">
        <ele>337.6590271</ele>
        <time>2015-07-04T08:05:13.494Z</time>
      </trkpt>
      <trkpt lat="44.80594" lon="1.67067">
        <ele>337.759460449</ele>
        <time>2015-07-04T08:05:14.537Z</time>
      </trkpt>
      <trkpt lat="44.80602" lon="1.67067">
        <ele>338.137786865</ele>
        <time>2015-07-04T08:05:22.553Z</time>
      </trkpt>
      <trkpt lat="44.80604" lon="1.67068">
        <ele>338.241973877</ele>
        <time>2015-07-04T08:05:23.497Z</time>
      </trkpt>
      <trkpt lat="44.80612" lon="1.6707">
        <ele>338.734649658</ele>
        <time>2015-07-04T08:05:31.479Z</time>
      </trkpt>
      <trkpt lat="44.80614" lon="1.67071">
        <ele>338.818145752</ele>
        <time>2015-07-04T08:05:32.43Z</time>
      </trkpt>
      <trkpt lat="44.80622" lon="1.67072">
        <ele>338.767364502</ele>
        <time>2015-07-04T08:05:39.511Z</time>
      </trkpt>
      <trkpt lat="44.80623" lon="1.67072">
        <ele>338.745605469</ele>
        <time>2015-07-04T08:05:40.488Z</time>
      </trkpt>
      <trkpt lat="44.80631" lon="1.67075">
        <ele>338.7215271</ele>
        <time>2015-07-04T08:05:46.496Z</time>
      </trkpt>
      <trkpt lat="44.80632" lon="1.67075">
        <ele>338.712036133</ele>
        <time>2015-07-04T08:05:47.525Z</time>
      </trkpt>
      <trkpt lat="44.80641" lon="1.67072">
        <ele>338.910675049</ele>
        <time>2015-07-04T08:05:56.844Z</time>
      </trkpt>
      <trkpt lat="44.80642" lon="1.67072">
        <ele>338.901824951</ele>
        <time>2015-07-04T08:05:57.466Z</time>
      </trkpt>
      <trkpt lat="44.80649" lon="1.67068">
        <ele>338.80871582</ele>
        <time>2015-07-04T08:06:04.49Z</time>
      </trkpt>
      <trkpt lat="44.80651" lon="1.67067">
        <ele>338.782104492</ele>
        <time>2015-07-04T08:06:05.496Z</time>
      </trkpt>
      <trkpt lat="44.8066" lon="1.67066">
        <ele>339.147247314</ele>
        <time>2015-07-04T08:06:14.499Z</time>
      </trkpt>
      <trkpt lat="44.80661" lon="1.67065">
        <ele>339.27545166</ele>
        <time>2015-07-04T08:06:15.5Z</time>
      </trkpt>
      <trkpt lat="44.80669" lon="1.67063">
        <ele>339.623321533</ele>
        <time>2015-07-04T08:06:21.544Z</time>
      </trkpt>
      <trkpt lat="44.8067" lon="1.67062">
        <ele>339.653900146</ele>
        <time>2015-07-04T08:06:22.495Z</time>
      </trkpt>
      <trkpt lat="44.80677" lon="1.67055">
        <ele>340.094848633</ele>
        <time>2015-07-04T08:06:30.915Z</time>
      </trkpt>
      <trkpt lat="44.80678" lon="1.67054">
        <ele>340.175140381</ele>
        <time>2015-07-04T08:06:31.427Z</time>
      </trkpt>
      <trkpt lat="44.80685" lon="1.67049">
        <ele>340.13168335</ele>
        <time>2015-07-04T08:06:41.431Z</time>
      </trkpt>
      <trkpt lat="44.80686" lon="1.67048">
        <ele>340.130889893</ele>
        <time>2015-07-04T08:06:42.542Z</time>
      </trkpt>
      <trkpt lat="44.80693" lon="1.67045">
        <ele>340.257141113</ele>
        <time>2015-07-04T08:06:49.49Z</time>
      </trkpt>
      <trkpt lat="44.80695" lon="1.67044">
        <ele>340.228820801</ele>
        <time>2015-07-04T08:06:50.502Z</time>
      </trkpt>
      <trkpt lat="44.80702" lon="1.67037">
        <ele>340.257080078</ele>
        <time>2015-07-04T08:06:57.491Z</time>
      </trkpt>
      <trkpt lat="44.80703" lon="1.67036">
        <ele>340.203308105</ele>
        <time>2015-07-04T08:06:58.525Z</time>
      </trkpt>
      <trkpt lat="44.8071" lon="1.67028">
        <ele>340.259979248</ele>
        <time>2015-07-04T08:07:06.836Z</time>
      </trkpt>
      <trkpt lat="44.80711" lon="1.67027">
        <ele>340.314361572</ele>
        <time>2015-07-04T08:07:07.546Z</time>
      </trkpt>
      <trkpt lat="44.80718" lon="1.6702">
        <ele>340.69644165</ele>
        <time>2015-07-04T08:07:16.499Z</time>
      </trkpt>
      <trkpt lat="44.80719" lon="1.6702">
        <ele>340.705413818</ele>
        <time>2015-07-04T08:07:17.542Z</time>
      </trkpt>
      <trkpt lat="44.80725" lon="1.67015">
        <ele>341.243621826</ele>
        <time>2015-07-04T08:07:27.495Z</time>
      </trkpt>
      <trkpt lat="44.80727" lon="1.67014">
        <ele>341.317840576</ele>
        <time>2015-07-04T08:07:28.49Z</time>
      </trkpt>
      <trkpt lat="44.80734" lon="1.67009">
        <ele>341.866912842</ele>
        <time>2015-07-04T08:07:36.493Z</time>
      </trkpt>
      <trkpt lat="44.80735" lon="1.67009">
        <ele>341.918121338</ele>
        <time>2015-07-04T08:07:37.482Z</time>
      </trkpt>
      <trkpt lat="44.80742" lon="1.67003">
        <ele>342.077331543</ele>
        <time>2015-07-04T08:07:46.425Z</time>
      </trkpt>
      <trkpt lat="44.80743" lon="1.67002">
        <ele>342.205810547</ele>
        <time>2015-07-04T08:07:47.498Z</time>
      </trkpt>
      <trkpt lat="44.80751" lon="1.66997">
        <ele>342.298980713</ele>
        <time>2015-07-04T08:07:55.493Z</time>
      </trkpt>
      <trkpt lat="44.80752" lon="1.66996">
        <ele>342.339782715</ele>
        <time>2015-07-04T08:07:56.468Z</time>
      </trkpt>
      <trkpt lat="44.80754" lon="1.66984">
        <ele>342.184326172</ele>
        <time>2015-07-04T08:08:08.495Z</time>
      </trkpt>
      <trkpt lat="44.80754" lon="1.66983">
        <ele>342.109588623</ele>
        <time>2015-07-04T08:08:09.498Z</time>
      </trkpt>
      <trkpt lat="44.80758" lon="1.66972">
        <ele>341.828338623</ele>
        <time>2015-07-04T08:08:17.484Z</time>
      </trkpt>
      <trkpt lat="44.80759" lon="1.66971">
        <ele>341.856201172</ele>
        <time>2015-07-04T08:08:18.432Z</time>
      </trkpt>
      <trkpt lat="44.80765" lon="1.66964">
        <ele>342.362701416</ele>
        <time>2015-07-04T08:08:25.74Z</time>
      </trkpt>
      <trkpt lat="44.80766" lon="1.66963">
        <ele>342.458618164</ele>
        <time>2015-07-04T08:08:26.515Z</time>
      </trkpt>
      <trkpt lat="44.80774" lon="1.66962">
        <ele>342.803344727</ele>
        <time>2015-07-04T08:08:33.542Z</time>
      </trkpt>
      <trkpt lat="44.80775" lon="1.66961">
        <ele>342.85345459</ele>
        <time>2015-07-04T08:08:34.51Z</time>
      </trkpt>
      <trkpt lat="44.80783" lon="1.66958">
        <ele>344.224609375</ele>
        <time>2015-07-04T08:08:44.496Z</time>
      </trkpt>
      <trkpt lat="44.80784" lon="1.66957">
        <ele>344.390716553</ele>
        <time>2015-07-04T08:08:45.493Z</time>
      </trkpt>
      <trkpt lat="44.8079" lon="1.66949">
        <ele>345.208312988</ele>
        <time>2015-07-04T08:08:52.492Z</time>
      </trkpt>
      <trkpt lat="44.80791" lon="1.66948">
        <ele>345.228607178</ele>
        <time>2015-07-04T08:08:53.517Z</time>
      </trkpt>
      <trkpt lat="44.808" lon="1.66944">
        <ele>345.172576904</ele>
        <time>2015-07-04T08:09:03.498Z</time>
      </trkpt>
      <trkpt lat="44.808" lon="1.66944">
        <ele>345.188049316</ele>
        <time>2015-07-04T08:09:04.499Z</time>
      </trkpt>
      <trkpt lat="44.80807" lon="1.66939">
        <ele>345.723297119</ele>
        <time>2015-07-04T08:09:10.496Z</time>
      </trkpt>
      <trkpt lat="44.80808" lon="1.66938">
        <ele>345.817687988</ele>
        <time>2015-07-04T08:09:11.49Z</time>
      </trkpt>
      <trkpt lat="44.80817" lon="1.66939">
        <ele>345.923980713</ele>
        <time>2015-07-04T08:09:19.494Z</time>
      </trkpt>
      <trkpt lat="44.80817" lon="1.66939">
        <ele>345.862365723</ele>
        <time>2015-07-04T08:09:20.492Z</time>
      </trkpt>
      <trkpt lat="44.80825" lon="1.66938">
        <ele>345.85836792</ele>
        <time>2015-07-04T08:09:29.595Z</time>
      </trkpt>
      <trkpt lat="44.80827" lon="1.66938">
        <ele>345.766113281</ele>
        <time>2015-07-04T08:09:30.483Z</time>
      </trkpt>
      <trkpt lat="44.80835" lon="1.66936">
        <ele>345.73236084</ele>
        <time>2015-07-04T08:09:48.437Z</time>
      </trkpt>
      <trkpt lat="44.80836" lon="1.66936">
        <ele>345.867797852</ele>
        <time>2015-07-04T08:09:49.484Z</time>
      </trkpt>
      <trkpt lat="44.80844" lon="1.66931">
        <ele>347.121124268</ele>
        <time>2015-07-04T08:10:04.484Z</time>
      </trkpt>
      <trkpt lat="44.80844" lon="1.6693">
        <ele>347.209686279</ele>
        <time>2015-07-04T08:10:05.519Z</time>
      </trkpt>
      <trkpt lat="44.8085" lon="1.66921">
        <ele>347.297210693</ele>
        <time>2015-07-04T08:10:18.487Z</time>
      </trkpt>
      <trkpt lat="44.80851" lon="1.6692">
        <ele>347.287200928</ele>
        <time>2015-07-04T08:10:19.441Z</time>
      </trkpt>
      <trkpt lat="44.80855" lon="1.66911">
        <ele>347.251525879</ele>
        <time>2015-07-04T08:10:28.496Z</time>
      </trkpt>
      <trkpt lat="44.80856" lon="1.6691">
        <ele>347.215484619</ele>
        <time>2015-07-04T08:10:29.497Z</time>
      </trkpt>
      <trkpt lat="44.80864" lon="1.66911">
        <ele>348.892272949</ele>
        <time>2015-07-04T08:11:17.437Z</time>
      </trkpt>
      <trkpt lat="44.80865" lon="1.66911">
        <ele>348.522460938</ele>
        <time>2015-07-04T08:11:18.426Z</time>
      </trkpt>
      <trkpt lat="44.80874" lon="1.66907">
        <ele>346.671051025</ele>
        <time>2015-07-04T08:21:56.399Z</time>
      </trkpt>
      <trkpt lat="44.80874" lon="1.66906">
        <ele>346.665710449</ele>
        <time>2015-07-04T08:21:57.474Z</time>
      </trkpt>
      <trkpt lat="44.80877" lon="1.66894">
        <ele>346.716796875</ele>
        <time>2015-07-04T08:22:06.483Z</time>
      </trkpt>
      <trkpt lat="44.80878" lon="1.66893">
        <ele>346.73336792</ele>
        <time>2015-07-04T08:22:07.489Z</time>
      </trkpt>
      <trkpt lat="44.80884" lon="1.66886">
        <ele>345.955871582</ele>
        <time>2015-07-04T08:23:32.446Z</time>
      </trkpt>
      <trkpt lat="44.80885" lon="1.66885">
        <ele>345.928253174</ele>
        <time>2015-07-04T08:23:33.499Z</time>
      </trkpt>
      <trkpt lat="44.80889" lon="1.66896">
        <ele>344.485412598</ele>
        <time>2015-07-04T08:23:49.514Z</time>
      </trkpt>
      <trkpt lat="44.8089" lon="1.66898">
        <ele>344.486328125</ele>
        <time>2015-07-04T08:23:50.496Z</time>
      </trkpt>
      <trkpt lat="44.80882" lon="1.66905">
        <ele>346.405792236</ele>
        <time>2015-07-04T08:24:03.608Z</time>
      </trkpt>
      <trkpt lat="44.80882" lon="1.66905">
        <ele>346.630554199</ele>
        <time>2015-07-04T08:24:04.511Z</time>
      </trkpt>
      <trkpt lat="44.80873" lon="1.66909">
        <ele>348.368347168</ele>
        <time>2015-07-04T08:24:16.452Z</time>
      </trkpt>
      <trkpt lat="44.80872" lon="1.66911">
        <ele>348.490753174</ele>
        <time>2015-07-04T08:24:17.489Z</time>
      </trkpt>
      <trkpt lat="44.80863" lon="1.66915">
        <ele>348.992401123</ele>
        <time>2015-07-04T08:25:29.441Z</time>
      </trkpt>
      <trkpt lat="44.80863" lon="1.66915">
        <ele>348.972595215</ele>
        <time>2015-07-04T08:25:30.435Z</time>
      </trkpt>
      <trkpt lat="44.80871" lon="1.66913">
        <ele>345.117950439</ele>
        <time>2015-07-04T08:30:06.277Z</time>
      </trkpt>
      <trkpt lat="44.80872" lon="1.66914">
        <ele>345.105895996</ele>
        <time>2015-07-04T08:30:07.231Z</time>
      </trkpt>
      <trkpt lat="44.8088" lon="1.6692">
        <ele>345.534210205</ele>
        <time>2015-07-04T08:30:16.244Z</time>
      </trkpt>
      <trkpt lat="44.80882" lon="1.66922">
        <ele>345.634674072</ele>
        <time>2015-07-04T08:30:17.239Z</time>
      </trkpt>
      <trkpt lat="44.80887" lon="1.66931">
        <ele>346.149139404</ele>
        <time>2015-07-04T08:30:24.404Z</time>
      </trkpt>
      <trkpt lat="44.80888" lon="1.66933">
        <ele>346.210662842</ele>
        <time>2015-07-04T08:30:25.379Z</time>
      </trkpt>
      <trkpt lat="44.80893" lon="1.66942">
        <ele>346.639648438</ele>
        <time>2015-07-04T08:30:36.434Z</time>
      </trkpt>
      <trkpt lat="44.80894" lon="1.66944">
        <ele>346.775421143</ele>
        <time>2015-07-04T08:30:37.347Z</time>
      </trkpt>
      <trkpt lat="44.80901" lon="1.6695">
        <ele>347.063659668</ele>
        <time>2015-07-04T08:30:44.423Z</time>
      </trkpt>
      <trkpt lat="44.80902" lon="1.6695">
        <ele>347.102630615</ele>
        <time>2015-07-04T08:30:45.413Z</time>
      </trkpt>
      <trkpt lat="44.80911" lon="1.6695">
        <ele>347.789611816</ele>
        <time>2015-07-04T08:30:52.447Z</time>
      </trkpt>
      <trkpt lat="44.80912" lon="1.6695">
        <ele>347.948913574</ele>
        <time>2015-07-04T08:30:53.38Z</time>
      </trkpt>
      <trkpt lat="44.8092" lon="1.66952">
        <ele>348.766967773</ele>
        <time>2015-07-04T08:30:59.464Z</time>
      </trkpt>
      <trkpt lat="44.80921" lon="1.66952">
        <ele>348.845214844</ele>
        <time>2015-07-04T08:31:00.429Z</time>
      </trkpt>
      <trkpt lat="44.80928" lon="1.66958">
        <ele>349.191009521</ele>
        <time>2015-07-04T08:31:06.965Z</time>
      </trkpt>
      <trkpt lat="44.80929" lon="1.66959">
        <ele>349.209259033</ele>
        <time>2015-07-04T08:31:07.401Z</time>
      </trkpt>
      <trkpt lat="44.80937" lon="1.66964">
        <ele>349.874725342</ele>
        <time>2015-07-04T08:31:17.386Z</time>
      </trkpt>
      <trkpt lat="44.80937" lon="1.66964">
        <ele>349.927612305</ele>
        <time>2015-07-04T08:31:18.389Z</time>
      </trkpt>
      <trkpt lat="44.80943" lon="1.66972">
        <ele>350.196258545</ele>
        <time>2015-07-04T08:31:25.582Z</time>
      </trkpt>
      <trkpt lat="44.80944" lon="1.66973">
        <ele>350.15057373</ele>
        <time>2015-07-04T08:31:26.358Z</time>
      </trkpt>
      <trkpt lat="44.80951" lon="1.66979">
        <ele>350.33114624</ele>
        <time>2015-07-04T08:31:33.41Z</time>
      </trkpt>
      <trkpt lat="44.80952" lon="1.6698">
        <ele>350.377807617</ele>
        <time>2015-07-04T08:31:34.349Z</time>
      </trkpt>
      <trkpt lat="44.80958" lon="1.66987">
        <ele>350.182556152</ele>
        <time>2015-07-04T08:31:40.794Z</time>
      </trkpt>
      <trkpt lat="44.80959" lon="1.66989">
        <ele>350.1847229</ele>
        <time>2015-07-04T08:31:41.425Z</time>
      </trkpt>
      <trkpt lat="44.80966" lon="1.66996">
        <ele>350.209686279</ele>
        <time>2015-07-04T08:31:47.414Z</time>
      </trkpt>
      <trkpt lat="44.80967" lon="1.66997">
        <ele>350.236358643</ele>
        <time>2015-07-04T08:31:48.398Z</time>
      </trkpt>
      <trkpt lat="44.80971" lon="1.67008">
        <ele>350.228485107</ele>
        <time>2015-07-04T08:31:56.22Z</time>
      </trkpt>
      <trkpt lat="44.80971" lon="1.67009">
        <ele>350.147460938</ele>
        <time>2015-07-04T08:31:56.507Z</time>
      </trkpt>
      <trkpt lat="44.80976" lon="1.67016">
        <ele>349.983062744</ele>
        <time>2015-07-04T08:32:02.438Z</time>
      </trkpt>
      <trkpt lat="44.80978" lon="1.67018">
        <ele>349.947692871</ele>
        <time>2015-07-04T08:32:03.401Z</time>
      </trkpt>
      <trkpt lat="44.80985" lon="1.67024">
        <ele>350.233032227</ele>
        <time>2015-07-04T08:32:09.394Z</time>
      </trkpt>
      <trkpt lat="44.80986" lon="1.67025">
        <ele>350.295837402</ele>
        <time>2015-07-04T08:32:10.351Z</time>
      </trkpt>
      <trkpt lat="44.80993" lon="1.67031">
        <ele>350.403106689</ele>
        <time>2015-07-04T08:32:19.426Z</time>
      </trkpt>
      <trkpt lat="44.80994" lon="1.67031">
        <ele>350.451202393</ele>
        <time>2015-07-04T08:32:20.493Z</time>
      </trkpt>
      <trkpt lat="44.81002" lon="1.67034">
        <ele>350.564666748</ele>
        <time>2015-07-04T08:32:28.417Z</time>
      </trkpt>
      <trkpt lat="44.81003" lon="1.67036">
        <ele>350.605316162</ele>
        <time>2015-07-04T08:32:29.442Z</time>
      </trkpt>
      <trkpt lat="44.8101" lon="1.67041">
        <ele>350.962127686</ele>
        <time>2015-07-04T08:32:37.442Z</time>
      </trkpt>
      <trkpt lat="44.81012" lon="1.67042">
        <ele>351.03137207</ele>
        <time>2015-07-04T08:32:38.405Z</time>
      </trkpt>
      <trkpt lat="44.8102" lon="1.67046">
        <ele>351.709411621</ele>
        <time>2015-07-04T08:32:48.414Z</time>
      </trkpt>
      <trkpt lat="44.81021" lon="1.67046">
        <ele>351.740447998</ele>
        <time>2015-07-04T08:32:49.524Z</time>
      </trkpt>
      <trkpt lat="44.81029" lon="1.67046">
        <ele>352.331665039</ele>
        <time>2015-07-04T08:32:58.414Z</time>
      </trkpt>
      <trkpt lat="44.81031" lon="1.67045">
        <ele>352.358032227</ele>
        <time>2015-07-04T08:32:59.412Z</time>
      </trkpt>
      <trkpt lat="44.81038" lon="1.67046">
        <ele>352.771850586</ele>
        <time>2015-07-04T08:33:06.874Z</time>
      </trkpt>
      <trkpt lat="44.8104" lon="1.67046">
        <ele>352.794616699</ele>
        <time>2015-07-04T08:33:07.399Z</time>
      </trkpt>
      <trkpt lat="44.81047" lon="1.67048">
        <ele>352.899383545</ele>
        <time>2015-07-04T08:33:13.417Z</time>
      </trkpt>
      <trkpt lat="44.81048" lon="1.67049">
        <ele>352.864196777</ele>
        <time>2015-07-04T08:33:14.39Z</time>
      </trkpt>
      <trkpt lat="44.81054" lon="1.67056">
        <ele>352.711853027</ele>
        <time>2015-07-04T08:33:20.2Z</time>
      </trkpt>
      <trkpt lat="44.81055" lon="1.67058">
        <ele>352.673461914</ele>
        <time>2015-07-04T08:33:20.552Z</time>
      </trkpt>
      <trkpt lat="44.81059" lon="1.67069">
        <ele>352.822814941</ele>
        <time>2015-07-04T08:33:27.839Z</time>
      </trkpt>
      <trkpt lat="44.8106" lon="1.67069">
        <ele>352.883758545</ele>
        <time>2015-07-04T08:33:28.913Z</time>
      </trkpt>
      <trkpt lat="44.81064" lon="1.6708">
        <ele>353.344909668</ele>
        <time>2015-07-04T08:33:39.442Z</time>
      </trkpt>
      <trkpt lat="44.81065" lon="1.67084">
        <ele>353.46697998</ele>
        <time>2015-07-04T08:33:40.459Z</time>
      </trkpt>
      <trkpt lat="44.81067" lon="1.67094">
        <ele>354.02722168</ele>
        <time>2015-07-04T08:33:49.43Z</time>
      </trkpt>
      <trkpt lat="44.81068" lon="1.67096">
        <ele>354.027740479</ele>
        <time>2015-07-04T08:33:50.451Z</time>
      </trkpt>
      <trkpt lat="44.81072" lon="1.67105">
        <ele>354.191375732</ele>
        <time>2015-07-04T08:33:55.453Z</time>
      </trkpt>
      <trkpt lat="44.81073" lon="1.67106">
        <ele>354.206512451</ele>
        <time>2015-07-04T08:33:56.48Z</time>
      </trkpt>
      <trkpt lat="44.81074" lon="1.67118">
        <ele>354.108062744</ele>
        <time>2015-07-04T08:34:02.458Z</time>
      </trkpt>
      <trkpt lat="44.81074" lon="1.67119">
        <ele>354.167053223</ele>
        <time>2015-07-04T08:34:03.488Z</time>
      </trkpt>
      <trkpt lat="44.81075" lon="1.6713">
        <ele>354.529144287</ele>
        <time>2015-07-04T08:34:10.452Z</time>
      </trkpt>
      <trkpt lat="44.81075" lon="1.67132">
        <ele>354.638427734</ele>
        <time>2015-07-04T08:34:11.46Z</time>
      </trkpt>
      <trkpt lat="44.81076" lon="1.67143">
        <ele>355.39074707</ele>
        <time>2015-07-04T08:34:18.467Z</time>
      </trkpt>
      <trkpt lat="44.81077" lon="1.67145">
        <ele>355.49822998</ele>
        <time>2015-07-04T08:34:19.401Z</time>
      </trkpt>
      <trkpt lat="44.81085" lon="1.67148">
        <ele>355.732330322</ele>
        <time>2015-07-04T08:34:30.695Z</time>
      </trkpt>
      <trkpt lat="44.81086" lon="1.67148">
        <ele>355.748413086</ele>
        <time>2015-07-04T08:34:31.401Z</time>
      </trkpt>
      <trkpt lat="44.81094" lon="1.67144">
        <ele>356.283233643</ele>
        <time>2015-07-04T08:34:38.47Z</time>
      </trkpt>
      <trkpt lat="44.81095" lon="1.67143">
        <ele>356.362823486</ele>
        <time>2015-07-04T08:34:39.443Z</time>
      </trkpt>
      <trkpt lat="44.81104" lon="1.67141">
        <ele>356.921508789</ele>
        <time>2015-07-04T08:34:47.476Z</time>
      </trkpt>
      <trkpt lat="44.81105" lon="1.6714">
        <ele>356.956359863</ele>
        <time>2015-07-04T08:34:48.56Z</time>
      </trkpt>
      <trkpt lat="44.81113" lon="1.67137">
        <ele>357.414489746</ele>
        <time>2015-07-04T08:34:59.472Z</time>
      </trkpt>
      <trkpt lat="44.81114" lon="1.67136">
        <ele>357.44909668</ele>
        <time>2015-07-04T08:35:00.462Z</time>
      </trkpt>
      <trkpt lat="44.81121" lon="1.67135">
        <ele>357.700286865</ele>
        <time>2015-07-04T08:35:05.455Z</time>
      </trkpt>
      <trkpt lat="44.81123" lon="1.67136">
        <ele>357.748260498</ele>
        <time>2015-07-04T08:35:06.436Z</time>
      </trkpt>
      <trkpt lat="44.81131" lon="1.67133">
        <ele>358.358001709</ele>
        <time>2015-07-04T08:35:13.452Z</time>
      </trkpt>
      <trkpt lat="44.81132" lon="1.67133">
        <ele>358.457336426</ele>
        <time>2015-07-04T08:35:14.401Z</time>
      </trkpt>
      <trkpt lat="44.8114" lon="1.67135">
        <ele>359.222900391</ele>
        <time>2015-07-04T08:35:20.597Z</time>
      </trkpt>
      <trkpt lat="44.81142" lon="1.67134">
        <ele>359.363983154</ele>
        <time>2015-07-04T08:35:21.45Z</time>
      </trkpt>
      <trkpt lat="44.81149" lon="1.67131">
        <ele>360.025024414</ele>
        <time>2015-07-04T08:35:29.537Z</time>
      </trkpt>
      <trkpt lat="44.8115" lon="1.6713">
        <ele>360.073150635</ele>
        <time>2015-07-04T08:35:30.446Z</time>
      </trkpt>
      <trkpt lat="44.81158" lon="1.67125">
        <ele>360.679351807</ele>
        <time>2015-07-04T08:35:39.462Z</time>
      </trkpt>
      <trkpt lat="44.8116" lon="1.67125">
        <ele>360.70880127</ele>
        <time>2015-07-04T08:35:40.589Z</time>
      </trkpt>
      <trkpt lat="44.81168" lon="1.67123">
        <ele>360.538360596</ele>
        <time>2015-07-04T08:35:46.728Z</time>
      </trkpt>
      <trkpt lat="44.81169" lon="1.67122">
        <ele>360.498077393</ele>
        <time>2015-07-04T08:35:47.461Z</time>
      </trkpt>
      <trkpt lat="44.81177" lon="1.6712">
        <ele>360.562927246</ele>
        <time>2015-07-04T08:35:54.476Z</time>
      </trkpt>
      <trkpt lat="44.81178" lon="1.67119">
        <ele>360.597717285</ele>
        <time>2015-07-04T08:35:55.907Z</time>
      </trkpt>
      <trkpt lat="44.81186" lon="1.67116">
        <ele>360.598815918</ele>
        <time>2015-07-04T08:36:00.439Z</time>
      </trkpt>
      <trkpt lat="44.81187" lon="1.67115">
        <ele>360.551330566</ele>
        <time>2015-07-04T08:36:01.441Z</time>
      </trkpt>
      <trkpt lat="44.81194" lon="1.67109">
        <ele>360.571685791</ele>
        <time>2015-07-04T08:36:10.443Z</time>
      </trkpt>
      <trkpt lat="44.81195" lon="1.67108">
        <ele>360.601135254</ele>
        <time>2015-07-04T08:36:11.441Z</time>
      </trkpt>
      <trkpt lat="44.81204" lon="1.67105">
        <ele>360.53414917</ele>
        <time>2015-07-04T08:36:19.46Z</time>
      </trkpt>
      <trkpt lat="44.81205" lon="1.67104">
        <ele>360.546203613</ele>
        <time>2015-07-04T08:36:20.488Z</time>
      </trkpt>
      <trkpt lat="44.81213" lon="1.67099">
        <ele>360.92578125</ele>
        <time>2015-07-04T08:36:28.46Z</time>
      </trkpt>
      <trkpt lat="44.81213" lon="1.67099">
        <ele>360.94430542</ele>
        <time>2015-07-04T08:36:29.473Z</time>
      </trkpt>
      <trkpt lat="44.81222" lon="1.67095">
        <ele>361.011413574</ele>
        <time>2015-07-04T08:36:36.404Z</time>
      </trkpt>
      <trkpt lat="44.81223" lon="1.67094">
        <ele>361.024841309</ele>
        <time>2015-07-04T08:36:37.469Z</time>
      </trkpt>
      <trkpt lat="44.81231" lon="1.67088">
        <ele>361.106048584</ele>
        <time>2015-07-04T08:36:44.519Z</time>
      </trkpt>
      <trkpt lat="44.81231" lon="1.67087">
        <ele>361.178222656</ele>
        <time>2015-07-04T08:36:45.459Z</time>
      </trkpt>
      <trkpt lat="44.8124" lon="1.67082">
        <ele>361.539001465</ele>
        <time>2015-07-04T08:36:55.473Z</time>
      </trkpt>
      <trkpt lat="44.81241" lon="1.67081">
        <ele>361.501373291</ele>
        <time>2015-07-04T08:36:56.473Z</time>
      </trkpt>
      <trkpt lat="44.81249" lon="1.67081">
        <ele>361.372314453</ele>
        <time>2015-07-04T08:37:04.385Z</time>
      </trkpt>
      <trkpt lat="44.81251" lon="1.67082">
        <ele>361.365692139</ele>
        <time>2015-07-04T08:37:05.461Z</time>
      </trkpt>
      <trkpt lat="44.81259" lon="1.6708">
        <ele>361.805114746</ele>
        <time>2015-07-04T08:37:12.439Z</time>
      </trkpt>
      <trkpt lat="44.8126" lon="1.6708">
        <ele>361.823577881</ele>
        <time>2015-07-04T08:37:13.482Z</time>
      </trkpt>
      <trkpt lat="44.81268" lon="1.67081">
        <ele>362.025939941</ele>
        <time>2015-07-04T08:37:21.482Z</time>
      </trkpt>
      <trkpt lat="44.81269" lon="1.67081">
        <ele>362.071258545</ele>
        <time>2015-07-04T08:37:22.451Z</time>
      </trkpt>
      <trkpt lat="44.81277" lon="1.67078">
        <ele>362.160308838</ele>
        <time>2015-07-04T08:37:38.472Z</time>
      </trkpt>
      <trkpt lat="44.81279" lon="1.67079">
        <ele>362.184020996</ele>
        <time>2015-07-04T08:37:39.464Z</time>
      </trkpt>
      <trkpt lat="44.81287" lon="1.67082">
        <ele>362.802032471</ele>
        <time>2015-07-04T08:37:46.626Z</time>
      </trkpt>
      <trkpt lat="44.81288" lon="1.67082">
        <ele>362.844024658</ele>
        <time>2015-07-04T08:37:48.029Z</time>
      </trkpt>
      <trkpt lat="44.81296" lon="1.67084">
        <ele>363.064239502</ele>
        <time>2015-07-04T08:37:55.52Z</time>
      </trkpt>
      <trkpt lat="44.81297" lon="1.67085">
        <ele>363.109741211</ele>
        <time>2015-07-04T08:37:56.423Z</time>
      </trkpt>
      <trkpt lat="44.81301" lon="1.67095">
        <ele>362.387329102</ele>
        <time>2015-07-04T08:38:07.074Z</time>
      </trkpt>
      <trkpt lat="44.81301" lon="1.67097">
        <ele>362.279968262</ele>
        <time>2015-07-04T08:38:07.436Z</time>
      </trkpt>
      <trkpt lat="44.8131" lon="1.67101">
        <ele>361.514251709</ele>
        <time>2015-07-04T08:38:20.503Z</time>
      </trkpt>
      <trkpt lat="44.8131" lon="1.67101">
        <ele>361.518676758</ele>
        <time>2015-07-04T08:38:21.461Z</time>
      </trkpt>
      <trkpt lat="44.81318" lon="1.67105">
        <ele>362.16619873</ele>
        <time>2015-07-04T08:38:49.722Z</time>
      </trkpt>
      <trkpt lat="44.81319" lon="1.67105">
        <ele>362.162445068</ele>
        <time>2015-07-04T08:38:50.722Z</time>
      </trkpt>
      <trkpt lat="44.81326" lon="1.67112">
        <ele>362.380157471</ele>
        <time>2015-07-04T08:39:01.429Z</time>
      </trkpt>
      <trkpt lat="44.81327" lon="1.67112">
        <ele>362.362609863</ele>
        <time>2015-07-04T08:39:01.679Z</time>
      </trkpt>
      <trkpt lat="44.81335" lon="1.67116">
        <ele>362.178588867</ele>
        <time>2015-07-04T08:39:11.499Z</time>
      </trkpt>
      <trkpt lat="44.81336" lon="1.67116">
        <ele>362.17276001</ele>
        <time>2015-07-04T08:39:11.778Z</time>
      </trkpt>
      <trkpt lat="44.81343" lon="1.67123">
        <ele>361.788879395</ele>
        <time>2015-07-04T08:39:18.73Z</time>
      </trkpt>
      <trkpt lat="44.81344" lon="1.67124">
        <ele>361.702728271</ele>
        <time>2015-07-04T08:39:19.704Z</time>
      </trkpt>
      <trkpt lat="44.81352" lon="1.6713">
        <ele>360.746826172</ele>
        <time>2015-07-04T08:39:29.7Z</time>
      </trkpt>
      <trkpt lat="44.81352" lon="1.6713">
        <ele>360.741516113</ele>
        <time>2015-07-04T08:39:30.759Z</time>
      </trkpt>
      <trkpt lat="44.81358" lon="1.67138">
        <ele>360.493896484</ele>
        <time>2015-07-04T08:39:40.679Z</time>
      </trkpt>
      <trkpt lat="44.81359" lon="1.6714">
        <ele>360.524200439</ele>
        <time>2015-07-04T08:39:41.731Z</time>
      </trkpt>
      <trkpt lat="44.81365" lon="1.67145">
        <ele>360.72644043</ele>
        <time>2015-07-04T08:39:49.665Z</time>
      </trkpt>
      <trkpt lat="44.81368" lon="1.67145">
        <ele>360.886413574</ele>
        <time>2015-07-04T08:39:50.75Z</time>
      </trkpt>
      <trkpt lat="44.81376" lon="1.67146">
        <ele>362.254760742</ele>
        <time>2015-07-04T08:40:02.409Z</time>
      </trkpt>
      <trkpt lat="44.81377" lon="1.67146">
        <ele>362.426025391</ele>
        <time>2015-07-04T08:40:02.647Z</time>
      </trkpt>
      <trkpt lat="44.81381" lon="1.67156">
        <ele>363.131835938</ele>
        <time>2015-07-04T08:40:08.73Z</time>
      </trkpt>
      <trkpt lat="44.81382" lon="1.67157">
        <ele>363.114715576</ele>
        <time>2015-07-04T08:40:09.743Z</time>
      </trkpt>
      <trkpt lat="44.81387" lon="1.67166">
        <ele>363.987213135</ele>
        <time>2015-07-04T08:40:18.215Z</time>
      </trkpt>
      <trkpt lat="44.81388" lon="1.67168">
        <ele>364.065826416</ele>
        <time>2015-07-04T08:40:19.262Z</time>
      </trkpt>
      <trkpt lat="44.81393" lon="1.67176">
        <ele>364.648193359</ele>
        <time>2015-07-04T08:40:28.884Z</time>
      </trkpt>
      <trkpt lat="44.81394" lon="1.67178">
        <ele>364.704467773</ele>
        <time>2015-07-04T08:40:29.272Z</time>
      </trkpt>
      <trkpt lat="44.81402" lon="1.67182">
        <ele>365.988494873</ele>
        <time>2015-07-04T08:40:44.34Z</time>
      </trkpt>
      <trkpt lat="44.81403" lon="1.67184">
        <ele>366.165649414</ele>
        <time>2015-07-04T08:40:45.292Z</time>
      </trkpt>
      <trkpt lat="44.81406" lon="1.67194">
        <ele>367.509368896</ele>
        <time>2015-07-04T08:40:55.286Z</time>
      </trkpt>
      <trkpt lat="44.81407" lon="1.67196">
        <ele>367.65145874</ele>
        <time>2015-07-04T08:40:56.286Z</time>
      </trkpt>
      <trkpt lat="44.81411" lon="1.67206">
        <ele>368.208251953</ele>
        <time>2015-07-04T08:41:04.495Z</time>
      </trkpt>
      <trkpt lat="44.81411" lon="1.67207">
        <ele>368.255462646</ele>
        <time>2015-07-04T08:41:05.35Z</time>
      </trkpt>
      <trkpt lat="44.81418" lon="1.67214">
        <ele>368.475311279</ele>
        <time>2015-07-04T08:41:13.33Z</time>
      </trkpt>
      <trkpt lat="44.81419" lon="1.67215">
        <ele>368.485137939</ele>
        <time>2015-07-04T08:41:14.314Z</time>
      </trkpt>
      <trkpt lat="44.81425" lon="1.67222">
        <ele>368.722900391</ele>
        <time>2015-07-04T08:41:22.309Z</time>
      </trkpt>
      <trkpt lat="44.81426" lon="1.67223">
        <ele>368.771362305</ele>
        <time>2015-07-04T08:41:23.282Z</time>
      </trkpt>
      <trkpt lat="44.81431" lon="1.67233">
        <ele>369.244750977</ele>
        <time>2015-07-04T08:41:31.295Z</time>
      </trkpt>
      <trkpt lat="44.81432" lon="1.67233">
        <ele>369.307434082</ele>
        <time>2015-07-04T08:41:32.305Z</time>
      </trkpt>
      <trkpt lat="44.81433" lon="1.67245">
        <ele>369.912872314</ele>
        <time>2015-07-04T08:41:39.309Z</time>
      </trkpt>
      <trkpt lat="44.81434" lon="1.67246">
        <ele>369.96673584</ele>
        <time>2015-07-04T08:41:40.319Z</time>
      </trkpt>
      <trkpt lat="44.81439" lon="1.67255">
        <ele>370.611755371</ele>
        <time>2015-07-04T08:41:47.3Z</time>
      </trkpt>
      <trkpt lat="44.81439" lon="1.67257">
        <ele>370.672698975</ele>
        <time>2015-07-04T08:41:48.305Z</time>
      </trkpt>
      <trkpt lat="44.8144" lon="1.67269">
        <ele>371.480194092</ele>
        <time>2015-07-04T08:41:58.315Z</time>
      </trkpt>
      <trkpt lat="44.8144" lon="1.67271">
        <ele>371.499359131</ele>
        <time>2015-07-04T08:41:59.294Z</time>
      </trkpt>
      <trkpt lat="44.81442" lon="1.67283">
        <ele>371.390045166</ele>
        <time>2015-07-04T08:42:09.314Z</time>
      </trkpt>
      <trkpt lat="44.81443" lon="1.67284">
        <ele>371.360534668</ele>
        <time>2015-07-04T08:42:10.252Z</time>
      </trkpt>
      <trkpt lat="44.8144" lon="1.67295">
        <ele>371.984100342</ele>
        <time>2015-07-04T08:44:39.223Z</time>
      </trkpt>
      <trkpt lat="44.8144" lon="1.67296">
        <ele>372.187225342</ele>
        <time>2015-07-04T08:44:40.269Z</time>
      </trkpt>
      <trkpt lat="44.81442" lon="1.67308">
        <ele>373.917602539</ele>
        <time>2015-07-04T08:45:19.284Z</time>
      </trkpt>
      <trkpt lat="44.81442" lon="1.6731">
        <ele>373.754241943</ele>
        <time>2015-07-04T08:45:20.278Z</time>
      </trkpt>
      <trkpt lat="44.81444" lon="1.67321">
        <ele>373.204223633</ele>
        <time>2015-07-04T08:45:27.283Z</time>
      </trkpt>
      <trkpt lat="44.81444" lon="1.67323">
        <ele>373.115325928</ele>
        <time>2015-07-04T08:45:28.28Z</time>
      </trkpt>
      <trkpt lat="44.81446" lon="1.67334">
        <ele>372.775878906</ele>
        <time>2015-07-04T08:45:38.278Z</time>
      </trkpt>
      <trkpt lat="44.81446" lon="1.67335">
        <ele>372.772857666</ele>
        <time>2015-07-04T08:45:39.278Z</time>
      </trkpt>
      <trkpt lat="44.8145" lon="1.67346">
        <ele>372.821746826</ele>
        <time>2015-07-04T08:45:46.239Z</time>
      </trkpt>
      <trkpt lat="44.81451" lon="1.67348">
        <ele>372.787231445</ele>
        <time>2015-07-04T08:45:47.297Z</time>
      </trkpt>
      <trkpt lat="44.81454" lon="1.67358">
        <ele>372.440582275</ele>
        <time>2015-07-04T08:45:55.337Z</time>
      </trkpt>
      <trkpt lat="44.81454" lon="1.6736">
        <ele>372.298553467</ele>
        <time>2015-07-04T08:45:56.289Z</time>
      </trkpt>
      <trkpt lat="44.81458" lon="1.67369">
        <ele>371.890014648</ele>
        <time>2015-07-04T08:46:02.286Z</time>
      </trkpt>
      <trkpt lat="44.81458" lon="1.67372">
        <ele>371.847991943</ele>
        <time>2015-07-04T08:46:03.32Z</time>
      </trkpt>
      <trkpt lat="44.8146" lon="1.67383">
        <ele>371.602172852</ele>
        <time>2015-07-04T08:46:10.279Z</time>
      </trkpt>
      <trkpt lat="44.8146" lon="1.67384">
        <ele>371.514251709</ele>
        <time>2015-07-04T08:46:11.284Z</time>
      </trkpt>
      <trkpt lat="44.8146" lon="1.67395">
        <ele>371.323913574</ele>
        <time>2015-07-04T08:46:17.287Z</time>
      </trkpt>
      <trkpt lat="44.8146" lon="1.67397">
        <ele>371.270568848</ele>
        <time>2015-07-04T08:46:18.313Z</time>
      </trkpt>
      <trkpt lat="44.81461" lon="1.67408">
        <ele>371.504852295</ele>
        <time>2015-07-04T08:46:25.297Z</time>
      </trkpt>
      <trkpt lat="44.81461" lon="1.6741">
        <ele>371.540405273</ele>
        <time>2015-07-04T08:46:26.752Z</time>
      </trkpt>
      <trkpt lat="44.81461" lon="1.67421">
        <ele>371.557983398</ele>
        <time>2015-07-04T08:46:32.278Z</time>
      </trkpt>
      <trkpt lat="44.81461" lon="1.67423">
        <ele>371.50213623</ele>
        <time>2015-07-04T08:46:33.283Z</time>
      </trkpt>
      <trkpt lat="44.81459" lon="1.67435">
        <ele>370.666412354</ele>
        <time>2015-07-04T08:46:41.28Z</time>
      </trkpt>
      <trkpt lat="44.8146" lon="1.67437">
        <ele>370.59753418</ele>
        <time>2015-07-04T08:46:42.285Z</time>
      </trkpt>
      <trkpt lat="44.81461" lon="1.67449">
        <ele>370.59387207</ele>
        <time>2015-07-04T08:46:50.306Z</time>
      </trkpt>
      <trkpt lat="44.81461" lon="1.67451">
        <ele>370.645904541</ele>
        <time>2015-07-04T08:46:50.973Z</time>
      </trkpt>
      <trkpt lat="44.81463" lon="1.67462">
        <ele>370.537353516</ele>
        <time>2015-07-04T08:46:57.047Z</time>
      </trkpt>
      <trkpt lat="44.81464" lon="1.67465">
        <ele>370.589691162</ele>
        <time>2015-07-04T08:46:58.042Z</time>
      </trkpt>
      <trkpt lat="44.81468" lon="1.67476">
        <ele>370.561431885</ele>
        <time>2015-07-04T08:47:05.042Z</time>
      </trkpt>
      <trkpt lat="44.81468" lon="1.67477">
        <ele>370.531005859</ele>
        <time>2015-07-04T08:47:06.042Z</time>
      </trkpt>
      <trkpt lat="44.81472" lon="1.67488">
        <ele>370.490722656</ele>
        <time>2015-07-04T08:47:14.079Z</time>
      </trkpt>
      <trkpt lat="44.81473" lon="1.67489">
        <ele>370.523071289</ele>
        <time>2015-07-04T08:47:15.003Z</time>
      </trkpt>
      <trkpt lat="44.81475" lon="1.67501">
        <ele>370.699737549</ele>
        <time>2015-07-04T08:47:23.109Z</time>
      </trkpt>
      <trkpt lat="44.81475" lon="1.67502">
        <ele>370.781341553</ele>
        <time>2015-07-04T08:47:24.056Z</time>
      </trkpt>
      <trkpt lat="44.81479" lon="1.67513">
        <ele>370.862030029</ele>
        <time>2015-07-04T08:47:32.055Z</time>
      </trkpt>
      <trkpt lat="44.8148" lon="1.67515">
        <ele>370.822021484</ele>
        <time>2015-07-04T08:47:33.048Z</time>
      </trkpt>
      <trkpt lat="44.81484" lon="1.67524">
        <ele>371.035522461</ele>
        <time>2015-07-04T08:47:39.026Z</time>
      </trkpt>
      <trkpt lat="44.81484" lon="1.67526">
        <ele>371.143035889</ele>
        <time>2015-07-04T08:47:40.044Z</time>
      </trkpt>
      <trkpt lat="44.81487" lon="1.67538">
        <ele>371.872009277</ele>
        <time>2015-07-04T08:47:48.054Z</time>
      </trkpt>
      <trkpt lat="44.81487" lon="1.67539">
        <ele>371.896118164</ele>
        <time>2015-07-04T08:47:49.597Z</time>
      </trkpt>
      <trkpt lat="44.81491" lon="1.6755">
        <ele>371.897003174</ele>
        <time>2015-07-04T08:47:56.044Z</time>
      </trkpt>
      <trkpt lat="44.81491" lon="1.67552">
        <ele>371.863952637</ele>
        <time>2015-07-04T08:47:57.119Z</time>
      </trkpt>
      <trkpt lat="44.81495" lon="1.67563">
        <ele>371.295135498</ele>
        <time>2015-07-04T08:48:04.053Z</time>
      </trkpt>
      <trkpt lat="44.81495" lon="1.67564">
        <ele>371.201477051</ele>
        <time>2015-07-04T08:48:05.061Z</time>
      </trkpt>
      <trkpt lat="44.815" lon="1.67574">
        <ele>370.958251953</ele>
        <time>2015-07-04T08:48:15.785Z</time>
      </trkpt>
      <trkpt lat="44.81501" lon="1.67575">
        <ele>371.015258789</ele>
        <time>2015-07-04T08:48:16.097Z</time>
      </trkpt>
      <trkpt lat="44.81507" lon="1.67583">
        <ele>370.886047363</ele>
        <time>2015-07-04T08:48:23.076Z</time>
      </trkpt>
      <trkpt lat="44.81508" lon="1.67584">
        <ele>370.782806396</ele>
        <time>2015-07-04T08:48:24.044Z</time>
      </trkpt>
      <trkpt lat="44.81513" lon="1.67593">
        <ele>370.243621826</ele>
        <time>2015-07-04T08:48:32.04Z</time>
      </trkpt>
      <trkpt lat="44.81513" lon="1.67594">
        <ele>370.163818359</ele>
        <time>2015-07-04T08:48:33.04Z</time>
      </trkpt>
      <trkpt lat="44.81519" lon="1.67604">
        <ele>369.820739746</ele>
        <time>2015-07-04T08:48:41.669Z</time>
      </trkpt>
      <trkpt lat="44.81519" lon="1.67605">
        <ele>369.773956299</ele>
        <time>2015-07-04T08:48:42.039Z</time>
      </trkpt>
      <trkpt lat="44.81524" lon="1.67615">
        <ele>369.762390137</ele>
        <time>2015-07-04T08:48:51.035Z</time>
      </trkpt>
      <trkpt lat="44.81525" lon="1.67617">
        <ele>369.743041992</ele>
        <time>2015-07-04T08:48:52.099Z</time>
      </trkpt>
      <trkpt lat="44.81531" lon="1.67622">
        <ele>369.555908203</ele>
        <time>2015-07-04T08:48:57.98Z</time>
      </trkpt>
      <trkpt lat="44.81533" lon="1.67623">
        <ele>369.509124756</ele>
        <time>2015-07-04T08:48:59.019Z</time>
      </trkpt>
      <trkpt lat="44.81539" lon="1.6763">
        <ele>369.239654541</ele>
        <time>2015-07-04T08:49:07.024Z</time>
      </trkpt>
      <trkpt lat="44.8154" lon="1.67631">
        <ele>369.171600342</ele>
        <time>2015-07-04T08:49:07.537Z</time>
      </trkpt>
      <trkpt lat="44.81546" lon="1.6764">
        <ele>368.730682373</ele>
        <time>2015-07-04T08:49:15.891Z</time>
      </trkpt>
      <trkpt lat="44.81546" lon="1.67642">
        <ele>368.63885498</ele>
        <time>2015-07-04T08:49:16.472Z</time>
      </trkpt>
      <trkpt lat="44.81553" lon="1.6765">
        <ele>367.386810303</ele>
        <time>2015-07-04T08:49:30.8Z</time>
      </trkpt>
      <trkpt lat="44.81554" lon="1.6765">
        <ele>367.193786621</ele>
        <time>2015-07-04T08:49:31.548Z</time>
      </trkpt>
      <trkpt lat="44.81561" lon="1.67656">
        <ele>366.415008545</ele>
        <time>2015-07-04T08:49:37.527Z</time>
      </trkpt>
      <trkpt lat="44.81562" lon="1.67658">
        <ele>366.317108154</ele>
        <time>2015-07-04T08:49:38.528Z</time>
      </trkpt>
      <trkpt lat="44.81567" lon="1.67666">
        <ele>365.795196533</ele>
        <time>2015-07-04T08:49:46.242Z</time>
      </trkpt>
      <trkpt lat="44.81569" lon="1.67667">
        <ele>365.706970215</ele>
        <time>2015-07-04T08:49:46.624Z</time>
      </trkpt>
      <trkpt lat="44.81574" lon="1.67675">
        <ele>365.116607666</ele>
        <time>2015-07-04T08:49:52.528Z</time>
      </trkpt>
      <trkpt lat="44.81575" lon="1.67676">
        <ele>365.058105469</ele>
        <time>2015-07-04T08:49:53.533Z</time>
      </trkpt>
      <trkpt lat="44.81581" lon="1.67684">
        <ele>364.013366699</ele>
        <time>2015-07-04T08:50:03.531Z</time>
      </trkpt>
      <trkpt lat="44.81583" lon="1.67686">
        <ele>363.981323242</ele>
        <time>2015-07-04T08:50:04.464Z</time>
      </trkpt>
      <trkpt lat="44.81588" lon="1.67695">
        <ele>363.347290039</ele>
        <time>2015-07-04T08:50:10.538Z</time>
      </trkpt>
      <trkpt lat="44.81588" lon="1.67696">
        <ele>363.179992676</ele>
        <time>2015-07-04T08:50:11.558Z</time>
      </trkpt>
      <trkpt lat="44.81593" lon="1.67705">
        <ele>362.519134521</ele>
        <time>2015-07-04T08:50:18.519Z</time>
      </trkpt>
      <trkpt lat="44.81594" lon="1.67706">
        <ele>362.394836426</ele>
        <time>2015-07-04T08:50:19.521Z</time>
      </trkpt>
      <trkpt lat="44.81598" lon="1.67715">
        <ele>361.508605957</ele>
        <time>2015-07-04T08:50:28.518Z</time>
      </trkpt>
      <trkpt lat="44.816" lon="1.67716">
        <ele>361.544799805</ele>
        <time>2015-07-04T08:50:29.508Z</time>
      </trkpt>
      <trkpt lat="44.81607" lon="1.67724">
        <ele>361.609344482</ele>
        <time>2015-07-04T08:50:36.514Z</time>
      </trkpt>
      <trkpt lat="44.81608" lon="1.67724">
        <ele>361.55380249</ele>
        <time>2015-07-04T08:50:37.517Z</time>
      </trkpt>
      <trkpt lat="44.81613" lon="1.67733">
        <ele>362.01260376</ele>
        <time>2015-07-04T08:50:46.529Z</time>
      </trkpt>
      <trkpt lat="44.81614" lon="1.67735">
        <ele>362.101318359</ele>
        <time>2015-07-04T08:50:47.513Z</time>
      </trkpt>
      <trkpt lat="44.81619" lon="1.67744">
        <ele>362.253814697</ele>
        <time>2015-07-04T08:50:54.563Z</time>
      </trkpt>
      <trkpt lat="44.8162" lon="1.67746">
        <ele>362.256469727</ele>
        <time>2015-07-04T08:50:55.533Z</time>
      </trkpt>
      <trkpt lat="44.81626" lon="1.67755">
        <ele>361.408325195</ele>
        <time>2015-07-04T08:51:03.522Z</time>
      </trkpt>
      <trkpt lat="44.81627" lon="1.67756">
        <ele>361.328552246</ele>
        <time>2015-07-04T08:51:04.474Z</time>
      </trkpt>
      <trkpt lat="44.81633" lon="1.67764">
        <ele>360.754180908</ele>
        <time>2015-07-04T08:51:11.681Z</time>
      </trkpt>
      <trkpt lat="44.81634" lon="1.67766">
        <ele>360.711029053</ele>
        <time>2015-07-04T08:51:12.553Z</time>
      </trkpt>
      <trkpt lat="44.81639" lon="1.67776">
        <ele>360.169921875</ele>
        <time>2015-07-04T08:51:19.531Z</time>
      </trkpt>
      <trkpt lat="44.8164" lon="1.67777">
        <ele>360.07824707</ele>
        <time>2015-07-04T08:51:20.593Z</time>
      </trkpt>
      <trkpt lat="44.81648" lon="1.67782">
        <ele>359.338531494</ele>
        <time>2015-07-04T08:51:29.527Z</time>
      </trkpt>
      <trkpt lat="44.81649" lon="1.67783">
        <ele>359.301147461</ele>
        <time>2015-07-04T08:51:30.538Z</time>
      </trkpt>
      <trkpt lat="44.81656" lon="1.67789">
        <ele>358.48840332</ele>
        <time>2015-07-04T08:51:38.536Z</time>
      </trkpt>
      <trkpt lat="44.81657" lon="1.6779">
        <ele>358.473388672</ele>
        <time>2015-07-04T08:51:39.536Z</time>
      </trkpt>
      <trkpt lat="44.81663" lon="1.67799">
        <ele>358.363983154</ele>
        <time>2015-07-04T08:51:48.518Z</time>
      </trkpt>
      <trkpt lat="44.81665" lon="1.678">
        <ele>358.375549316</ele>
        <time>2015-07-04T08:51:49.503Z</time>
      </trkpt>
      <trkpt lat="44.8167" lon="1.67807">
        <ele>358.453918457</ele>
        <time>2015-07-04T08:51:55.532Z</time>
      </trkpt>
      <trkpt lat="44.81672" lon="1.67808">
        <ele>358.425384521</ele>
        <time>2015-07-04T08:51:56.532Z</time>
      </trkpt>
      <trkpt lat="44.81677" lon="1.67818">
        <ele>358.170288086</ele>
        <time>2015-07-04T08:52:05.54Z</time>
      </trkpt>
      <trkpt lat="44.81678" lon="1.67819">
        <ele>358.281066895</ele>
        <time>2015-07-04T08:52:06.511Z</time>
      </trkpt>
      <trkpt lat="44.81682" lon="1.67829">
        <ele>358.683410645</ele>
        <time>2015-07-04T08:52:13.473Z</time>
      </trkpt>
      <trkpt lat="44.81683" lon="1.67831">
        <ele>358.677734375</ele>
        <time>2015-07-04T08:52:14.537Z</time>
      </trkpt>
      <trkpt lat="44.81687" lon="1.67842">
        <ele>358.799713135</ele>
        <time>2015-07-04T08:52:26.526Z</time>
      </trkpt>
      <trkpt lat="44.81688" lon="1.67843">
        <ele>358.850067139</ele>
        <time>2015-07-04T08:52:27.506Z</time>
      </trkpt>
      <trkpt lat="44.81693" lon="1.6785">
        <ele>358.502410889</ele>
        <time>2015-07-04T08:52:36.514Z</time>
      </trkpt>
      <trkpt lat="44.81695" lon="1.67853">
        <ele>358.542449951</ele>
        <time>2015-07-04T08:52:37.508Z</time>
      </trkpt>
      <trkpt lat="44.81701" lon="1.67862">
        <ele>358.571990967</ele>
        <time>2015-07-04T08:52:41.566Z</time>
      </trkpt>
      <trkpt lat="44.81702" lon="1.67863">
        <ele>358.594909668</ele>
        <time>2015-07-04T08:52:42.527Z</time>
      </trkpt>
      <trkpt lat="44.81706" lon="1.67873">
        <ele>358.717681885</ele>
        <time>2015-07-04T08:52:50.54Z</time>
      </trkpt>
      <trkpt lat="44.81708" lon="1.67875">
        <ele>358.746185303</ele>
        <time>2015-07-04T08:52:51.609Z</time>
      </trkpt>
      <trkpt lat="44.81711" lon="1.67885">
        <ele>358.845825195</ele>
        <time>2015-07-04T08:52:58.51Z</time>
      </trkpt>
      <trkpt lat="44.81711" lon="1.67887">
        <ele>358.864440918</ele>
        <time>2015-07-04T08:52:59.509Z</time>
      </trkpt>
      <trkpt lat="44.81714" lon="1.67898">
        <ele>358.5753479</ele>
        <time>2015-07-04T08:53:08.207Z</time>
      </trkpt>
      <trkpt lat="44.81714" lon="1.67898">
        <ele>358.586853027</ele>
        <time>2015-07-04T08:53:09.23Z</time>
      </trkpt>
      <trkpt lat="44.8172" lon="1.67908">
        <ele>359.123016357</ele>
        <time>2015-07-04T08:53:17.16Z</time>
      </trkpt>
      <trkpt lat="44.81721" lon="1.6791">
        <ele>359.288787842</ele>
        <time>2015-07-04T08:53:18.202Z</time>
      </trkpt>
      <trkpt lat="44.81723" lon="1.67921">
        <ele>360.291229248</ele>
        <time>2015-07-04T08:53:25.201Z</time>
      </trkpt>
      <trkpt lat="44.81724" lon="1.67922">
        <ele>360.394744873</ele>
        <time>2015-07-04T08:53:26.35Z</time>
      </trkpt>
      <trkpt lat="44.81729" lon="1.67931">
        <ele>360.770812988</ele>
        <time>2015-07-04T08:53:37.246Z</time>
      </trkpt>
      <trkpt lat="44.8173" lon="1.67933">
        <ele>360.792022705</ele>
        <time>2015-07-04T08:53:38.151Z</time>
      </trkpt>
      <trkpt lat="44.81733" lon="1.67944">
        <ele>361.004180908</ele>
        <time>2015-07-04T08:53:43.221Z</time>
      </trkpt>
      <trkpt lat="44.81733" lon="1.67945">
        <ele>360.999969482</ele>
        <time>2015-07-04T08:53:44.226Z</time>
      </trkpt>
      <trkpt lat="44.81733" lon="1.67956">
        <ele>360.850341797</ele>
        <time>2015-07-04T08:53:53.254Z</time>
      </trkpt>
      <trkpt lat="44.81734" lon="1.67959">
        <ele>360.915557861</ele>
        <time>2015-07-04T08:53:54.215Z</time>
      </trkpt>
      <trkpt lat="44.81735" lon="1.67971">
        <ele>360.826141357</ele>
        <time>2015-07-04T08:54:01.245Z</time>
      </trkpt>
      <trkpt lat="44.81735" lon="1.67972">
        <ele>360.803009033</ele>
        <time>2015-07-04T08:54:02.187Z</time>
      </trkpt>
      <trkpt lat="44.81737" lon="1.67983">
        <ele>360.74508667</ele>
        <time>2015-07-04T08:54:09.264Z</time>
      </trkpt>
      <trkpt lat="44.81738" lon="1.67984">
        <ele>360.74798584</ele>
        <time>2015-07-04T08:54:10.29Z</time>
      </trkpt>
      <trkpt lat="44.8174" lon="1.67995">
        <ele>361.319976807</ele>
        <time>2015-07-04T08:54:16.217Z</time>
      </trkpt>
      <trkpt lat="44.8174" lon="1.67997">
        <ele>361.406616211</ele>
        <time>2015-07-04T08:54:17.252Z</time>
      </trkpt>
      <trkpt lat="44.81742" lon="1.68007">
        <ele>361.673858643</ele>
        <time>2015-07-04T08:54:23.216Z</time>
      </trkpt>
      <trkpt lat="44.81743" lon="1.68009">
        <ele>361.731140137</ele>
        <time>2015-07-04T08:54:24.264Z</time>
      </trkpt>
      <trkpt lat="44.81746" lon="1.68021">
        <ele>361.670806885</ele>
        <time>2015-07-04T08:54:32.217Z</time>
      </trkpt>
      <trkpt lat="44.81746" lon="1.68022">
        <ele>361.710296631</ele>
        <time>2015-07-04T08:54:33.249Z</time>
      </trkpt>
      <trkpt lat="44.81749" lon="1.68033">
        <ele>361.515533447</ele>
        <time>2015-07-04T08:54:42.51Z</time>
      </trkpt>
      <trkpt lat="44.81749" lon="1.68034">
        <ele>361.470458984</ele>
        <time>2015-07-04T08:54:43.154Z</time>
      </trkpt>
      <trkpt lat="44.8175" lon="1.68045">
        <ele>361.593261719</ele>
        <time>2015-07-04T08:54:50.326Z</time>
      </trkpt>
      <trkpt lat="44.8175" lon="1.68047">
        <ele>361.6590271</ele>
        <time>2015-07-04T08:54:51.216Z</time>
      </trkpt>
      <trkpt lat="44.8175" lon="1.68058">
        <ele>362.154785156</ele>
        <time>2015-07-04T08:55:00.353Z</time>
      </trkpt>
      <trkpt lat="44.81751" lon="1.68059">
        <ele>362.111022949</ele>
        <time>2015-07-04T08:55:01.216Z</time>
      </trkpt>
      <trkpt lat="44.81754" lon="1.68069">
        <ele>362.128997803</ele>
        <time>2015-07-04T08:55:07.86Z</time>
      </trkpt>
      <trkpt lat="44.81755" lon="1.68071">
        <ele>362.058105469</ele>
        <time>2015-07-04T08:55:08.223Z</time>
      </trkpt>
      <trkpt lat="44.8176" lon="1.68079">
        <ele>362.222320557</ele>
        <time>2015-07-04T08:55:16.222Z</time>
      </trkpt>
      <trkpt lat="44.81761" lon="1.68081">
        <ele>362.303375244</ele>
        <time>2015-07-04T08:55:17.365Z</time>
      </trkpt>
      <trkpt lat="44.81766" lon="1.68089">
        <ele>362.633728027</ele>
        <time>2015-07-04T08:55:25.223Z</time>
      </trkpt>
      <trkpt lat="44.81767" lon="1.6809">
        <ele>362.651092529</ele>
        <time>2015-07-04T08:55:26.219Z</time>
      </trkpt>
      <trkpt lat="44.8177" lon="1.681">
        <ele>362.408721924</ele>
        <time>2015-07-04T08:55:32.3Z</time>
      </trkpt>
      <trkpt lat="44.81771" lon="1.68102">
        <ele>362.359558105</ele>
        <time>2015-07-04T08:55:33.203Z</time>
      </trkpt>
      <trkpt lat="44.81774" lon="1.68113">
        <ele>361.98815918</ele>
        <time>2015-07-04T08:55:41.405Z</time>
      </trkpt>
      <trkpt lat="44.81775" lon="1.68115">
        <ele>361.937835693</ele>
        <time>2015-07-04T08:55:42.398Z</time>
      </trkpt>
      <trkpt lat="44.81779" lon="1.68124">
        <ele>362.022583008</ele>
        <time>2015-07-04T08:55:48.346Z</time>
      </trkpt>
      <trkpt lat="44.8178" lon="1.68125">
        <ele>361.984832764</ele>
        <time>2015-07-04T08:55:49.392Z</time>
      </trkpt>
      <trkpt lat="44.81784" lon="1.68136">
        <ele>362.175354004</ele>
        <time>2015-07-04T08:55:57.439Z</time>
      </trkpt>
      <trkpt lat="44.81784" lon="1.68137">
        <ele>362.201812744</ele>
        <time>2015-07-04T08:55:58.426Z</time>
      </trkpt>
      <trkpt lat="44.81784" lon="1.68149">
        <ele>362.162261963</ele>
        <time>2015-07-04T08:56:04.423Z</time>
      </trkpt>
      <trkpt lat="44.81784" lon="1.6815">
        <ele>362.096984863</ele>
        <time>2015-07-04T08:56:05.404Z</time>
      </trkpt>
      <trkpt lat="44.81786" lon="1.68162">
        <ele>361.681732178</ele>
        <time>2015-07-04T08:56:15.171Z</time>
      </trkpt>
      <trkpt lat="44.81786" lon="1.68163">
        <ele>361.68637085</ele>
        <time>2015-07-04T08:56:15.445Z</time>
      </trkpt>
      <trkpt lat="44.81787" lon="1.68175">
        <ele>361.619262695</ele>
        <time>2015-07-04T08:56:21.415Z</time>
      </trkpt>
      <trkpt lat="44.81786" lon="1.68176">
        <ele>361.564849854</ele>
        <time>2015-07-04T08:56:22.378Z</time>
      </trkpt>
      <trkpt lat="44.81784" lon="1.68187">
        <ele>361.283843994</ele>
        <time>2015-07-04T08:56:30.557Z</time>
      </trkpt>
      <trkpt lat="44.81783" lon="1.68189">
        <ele>361.288696289</ele>
        <time>2015-07-04T08:56:31.441Z</time>
      </trkpt>
      <trkpt lat="44.81781" lon="1.68201">
        <ele>361.853881836</ele>
        <time>2015-07-04T08:56:39.393Z</time>
      </trkpt>
      <trkpt lat="44.81781" lon="1.68202">
        <ele>361.996856689</ele>
        <time>2015-07-04T08:56:40.381Z</time>
      </trkpt>
      <trkpt lat="44.8178" lon="1.68214">
        <ele>362.353363037</ele>
        <time>2015-07-04T08:56:47.362Z</time>
      </trkpt>
      <trkpt lat="44.8178" lon="1.68215">
        <ele>362.388671875</ele>
        <time>2015-07-04T08:56:48.399Z</time>
      </trkpt>
      <trkpt lat="44.81776" lon="1.68227">
        <ele>362.769836426</ele>
        <time>2015-07-04T08:56:56.423Z</time>
      </trkpt>
      <trkpt lat="44.81776" lon="1.68229">
        <ele>362.824707031</ele>
        <time>2015-07-04T08:56:57.381Z</time>
      </trkpt>
      <trkpt lat="44.81772" lon="1.68239">
        <ele>362.923858643</ele>
        <time>2015-07-04T08:57:06.007Z</time>
      </trkpt>
      <trkpt lat="44.81772" lon="1.68241">
        <ele>363.022338867</ele>
        <time>2015-07-04T08:57:06.39Z</time>
      </trkpt>
      <trkpt lat="44.8177" lon="1.68253">
        <ele>363.38583374</ele>
        <time>2015-07-04T08:57:15.077Z</time>
      </trkpt>
      <trkpt lat="44.8177" lon="1.68254">
        <ele>363.402313232</ele>
        <time>2015-07-04T08:57:15.346Z</time>
      </trkpt>
      <trkpt lat="44.81769" lon="1.68266">
        <ele>363.808502197</ele>
        <time>2015-07-04T08:57:25.18Z</time>
      </trkpt>
      <trkpt lat="44.81769" lon="1.68267">
        <ele>363.902252197</ele>
        <time>2015-07-04T08:57:25.532Z</time>
      </trkpt>
      <trkpt lat="44.8177" lon="1.6828">
        <ele>364.760925293</ele>
        <time>2015-07-04T08:57:33.409Z</time>
      </trkpt>
      <trkpt lat="44.8177" lon="1.68281">
        <ele>364.814666748</ele>
        <time>2015-07-04T08:57:34.412Z</time>
      </trkpt>
      <trkpt lat="44.81769" lon="1.68292">
        <ele>365.118499756</ele>
        <time>2015-07-04T08:57:41.423Z</time>
      </trkpt>
      <trkpt lat="44.8177" lon="1.68294">
        <ele>365.126953125</ele>
        <time>2015-07-04T08:57:42.391Z</time>
      </trkpt>
      <trkpt lat="44.81772" lon="1.68306">
        <ele>365.117706299</ele>
        <time>2015-07-04T08:57:50.411Z</time>
      </trkpt>
      <trkpt lat="44.81772" lon="1.68307">
        <ele>365.139923096</ele>
        <time>2015-07-04T08:57:51.446Z</time>
      </trkpt>
      <trkpt lat="44.81774" lon="1.68318">
        <ele>365.615692139</ele>
        <time>2015-07-04T08:58:01.542Z</time>
      </trkpt>
      <trkpt lat="44.81774" lon="1.68319">
        <ele>365.672821045</ele>
        <time>2015-07-04T08:58:02.375Z</time>
      </trkpt>
      <trkpt lat="44.81777" lon="1.68331">
        <ele>365.999816895</ele>
        <time>2015-07-04T08:58:10.39Z</time>
      </trkpt>
      <trkpt lat="44.81778" lon="1.68332">
        <ele>366.090820312</ele>
        <time>2015-07-04T08:58:11.458Z</time>
      </trkpt>
      <trkpt lat="44.81782" lon="1.68342">
        <ele>366.819244385</ele>
        <time>2015-07-04T08:58:20.545Z</time>
      </trkpt>
      <trkpt lat="44.81783" lon="1.68343">
        <ele>366.954864502</ele>
        <time>2015-07-04T08:58:21.392Z</time>
      </trkpt>
      <trkpt lat="44.81788" lon="1.68352">
        <ele>367.469299316</ele>
        <time>2015-07-04T08:58:30.922Z</time>
      </trkpt>
      <trkpt lat="44.81788" lon="1.68354">
        <ele>367.434082031</ele>
        <time>2015-07-04T08:58:31.438Z</time>
      </trkpt>
      <trkpt lat="44.81792" lon="1.68365">
        <ele>367.596618652</ele>
        <time>2015-07-04T08:58:41.056Z</time>
      </trkpt>
      <trkpt lat="44.81792" lon="1.68367">
        <ele>367.641540527</ele>
        <time>2015-07-04T08:58:41.443Z</time>
      </trkpt>
      <trkpt lat="44.81795" lon="1.68379">
        <ele>367.884216309</ele>
        <time>2015-07-04T08:58:50.417Z</time>
      </trkpt>
      <trkpt lat="44.81795" lon="1.68381">
        <ele>367.961334229</ele>
        <time>2015-07-04T08:58:51.426Z</time>
      </trkpt>
      <trkpt lat="44.81797" lon="1.68392">
        <ele>368.033416748</ele>
        <time>2015-07-04T08:58:59.417Z</time>
      </trkpt>
      <trkpt lat="44.81797" lon="1.68393">
        <ele>368.018737793</ele>
        <time>2015-07-04T08:59:00.475Z</time>
      </trkpt>
      <trkpt lat="44.818" lon="1.68402">
        <ele>367.804321289</ele>
        <time>2015-07-04T08:59:09.451Z</time>
      </trkpt>
      <trkpt lat="44.81801" lon="1.68405">
        <ele>367.860870361</ele>
        <time>2015-07-04T08:59:10.346Z</time>
      </trkpt>
      <trkpt lat="44.81803" lon="1.68416">
        <ele>368.128204346</ele>
        <time>2015-07-04T08:59:16.352Z</time>
      </trkpt>
      <trkpt lat="44.81803" lon="1.68418">
        <ele>368.179473877</ele>
        <time>2015-07-04T08:59:17.413Z</time>
      </trkpt>
      <trkpt lat="44.81804" lon="1.68429">
        <ele>368.602752686</ele>
        <time>2015-07-04T08:59:23.401Z</time>
      </trkpt>
      <trkpt lat="44.81805" lon="1.68431">
        <ele>368.702758789</ele>
        <time>2015-07-04T08:59:24.39Z</time>
      </trkpt>
      <trkpt lat="44.81806" lon="1.68442">
        <ele>368.487091064</ele>
        <time>2015-07-04T08:59:31.141Z</time>
      </trkpt>
      <trkpt lat="44.81806" lon="1.68445">
        <ele>368.411224365</ele>
        <time>2015-07-04T08:59:31.405Z</time>
      </trkpt>
      <trkpt lat="44.81803" lon="1.68456">
        <ele>368.391937256</ele>
        <time>2015-07-04T08:59:37.39Z</time>
      </trkpt>
      <trkpt lat="44.81803" lon="1.68457">
        <ele>368.402893066</ele>
        <time>2015-07-04T08:59:38.378Z</time>
      </trkpt>
      <trkpt lat="44.81799" lon="1.68466">
        <ele>367.945709229</ele>
        <time>2015-07-04T08:59:45.378Z</time>
      </trkpt>
      <trkpt lat="44.81798" lon="1.68468">
        <ele>367.885192871</ele>
        <time>2015-07-04T08:59:46.391Z</time>
      </trkpt>
      <trkpt lat="44.81794" lon="1.68478">
        <ele>367.563568115</ele>
        <time>2015-07-04T08:59:53.387Z</time>
      </trkpt>
      <trkpt lat="44.81793" lon="1.68479">
        <ele>367.527648926</ele>
        <time>2015-07-04T08:59:54.39Z</time>
      </trkpt>
      <trkpt lat="44.8179" lon="1.68489">
        <ele>366.997344971</ele>
        <time>2015-07-04T09:00:02.393Z</time>
      </trkpt>
      <trkpt lat="44.81789" lon="1.68491">
        <ele>366.861785889</ele>
        <time>2015-07-04T09:00:03.382Z</time>
      </trkpt>
      <trkpt lat="44.81785" lon="1.68501">
        <ele>366.512207031</ele>
        <time>2015-07-04T09:00:10.385Z</time>
      </trkpt>
      <trkpt lat="44.81784" lon="1.68502">
        <ele>366.475646973</ele>
        <time>2015-07-04T09:00:11.392Z</time>
      </trkpt>
      <trkpt lat="44.8178" lon="1.68513">
        <ele>366.611358643</ele>
        <time>2015-07-04T09:00:18.388Z</time>
      </trkpt>
      <trkpt lat="44.81779" lon="1.68514">
        <ele>366.547790527</ele>
        <time>2015-07-04T09:00:19.392Z</time>
      </trkpt>
      <trkpt lat="44.81776" lon="1.68525">
        <ele>366.3644104</ele>
        <time>2015-07-04T09:00:26.373Z</time>
      </trkpt>
      <trkpt lat="44.81776" lon="1.68526">
        <ele>366.428985596</ele>
        <time>2015-07-04T09:00:27.424Z</time>
      </trkpt>
      <trkpt lat="44.81773" lon="1.68536">
        <ele>366.7840271</ele>
        <time>2015-07-04T09:00:32.386Z</time>
      </trkpt>
      <trkpt lat="44.81773" lon="1.68538">
        <ele>366.817871094</ele>
        <time>2015-07-04T09:00:33.403Z</time>
      </trkpt>
      <trkpt lat="44.81771" lon="1.68551">
        <ele>366.982177734</ele>
        <time>2015-07-04T09:00:43.416Z</time>
      </trkpt>
      <trkpt lat="44.81771" lon="1.68552">
        <ele>367.002197266</ele>
        <time>2015-07-04T09:00:44.399Z</time>
      </trkpt>
      <trkpt lat="44.8177" lon="1.68563">
        <ele>366.778106689</ele>
        <time>2015-07-04T09:00:54.416Z</time>
      </trkpt>
      <trkpt lat="44.81769" lon="1.68564">
        <ele>366.749755859</ele>
        <time>2015-07-04T09:00:55.471Z</time>
      </trkpt>
      <trkpt lat="44.81765" lon="1.68575">
        <ele>366.867279053</ele>
        <time>2015-07-04T09:01:02.478Z</time>
      </trkpt>
      <trkpt lat="44.81765" lon="1.68576">
        <ele>366.869598389</ele>
        <time>2015-07-04T09:01:03.441Z</time>
      </trkpt>
      <trkpt lat="44.81763" lon="1.68587">
        <ele>367.794525146</ele>
        <time>2015-07-04T09:01:13.417Z</time>
      </trkpt>
      <trkpt lat="44.81763" lon="1.6859">
        <ele>367.857391357</ele>
        <time>2015-07-04T09:01:14.414Z</time>
      </trkpt>
      <trkpt lat="44.81762" lon="1.68601">
        <ele>368.8621521</ele>
        <time>2015-07-04T09:01:23.395Z</time>
      </trkpt>
      <trkpt lat="44.81763" lon="1.68602">
        <ele>368.991760254</ele>
        <time>2015-07-04T09:01:24.403Z</time>
      </trkpt>
      <trkpt lat="44.81766" lon="1.68613">
        <ele>369.220153809</ele>
        <time>2015-07-04T09:01:28.371Z</time>
      </trkpt>
      <trkpt lat="44.81766" lon="1.68614">
        <ele>369.244354248</ele>
        <time>2015-07-04T09:01:29.424Z</time>
      </trkpt>
      <trkpt lat="44.81767" lon="1.68625">
        <ele>369.722137451</ele>
        <time>2015-07-04T09:01:37.393Z</time>
      </trkpt>
      <trkpt lat="44.81767" lon="1.68627">
        <ele>369.712860107</ele>
        <time>2015-07-04T09:01:38.486Z</time>
      </trkpt>
      <trkpt lat="44.81768" lon="1.68639">
        <ele>370.630096436</ele>
        <time>2015-07-04T09:01:47.411Z</time>
      </trkpt>
      <trkpt lat="44.81769" lon="1.68641">
        <ele>370.773986816</ele>
        <time>2015-07-04T09:01:48.433Z</time>
      </trkpt>
      <trkpt lat="44.81769" lon="1.68652">
        <ele>371.122314453</ele>
        <time>2015-07-04T09:01:56.652Z</time>
      </trkpt>
      <trkpt lat="44.81769" lon="1.68654">
        <ele>371.206939697</ele>
        <time>2015-07-04T09:01:57.355Z</time>
      </trkpt>
      <trkpt lat="44.8177" lon="1.68666">
        <ele>371.60269165</ele>
        <time>2015-07-04T09:02:07.419Z</time>
      </trkpt>
      <trkpt lat="44.8177" lon="1.68669">
        <ele>371.586456299</ele>
        <time>2015-07-04T09:02:08.424Z</time>
      </trkpt>
      <trkpt lat="44.81768" lon="1.68681">
        <ele>372.078277588</ele>
        <time>2015-07-04T09:02:18.415Z</time>
      </trkpt>
      <trkpt lat="44.81768" lon="1.68684">
        <ele>372.149963379</ele>
        <time>2015-07-04T09:02:19.435Z</time>
      </trkpt>
      <trkpt lat="44.81763" lon="1.68694">
        <ele>372.656890869</ele>
        <time>2015-07-04T09:02:25.599Z</time>
      </trkpt>
      <trkpt lat="44.81762" lon="1.68695">
        <ele>372.739196777</ele>
        <time>2015-07-04T09:02:26.352Z</time>
      </trkpt>
      <trkpt lat="44.81759" lon="1.68706">
        <ele>372.986083984</ele>
        <time>2015-07-04T09:02:35.835Z</time>
      </trkpt>
      <trkpt lat="44.81758" lon="1.68707">
        <ele>373.030303955</ele>
        <time>2015-07-04T09:02:36.373Z</time>
      </trkpt>
      <trkpt lat="44.81752" lon="1.68717">
        <ele>374.144744873</ele>
        <time>2015-07-04T09:02:47.561Z</time>
      </trkpt>
      <trkpt lat="44.81751" lon="1.68717">
        <ele>374.259277344</ele>
        <time>2015-07-04T09:02:48.391Z</time>
      </trkpt>
      <trkpt lat="44.81746" lon="1.68727">
        <ele>374.12286377</ele>
        <time>2015-07-04T09:02:56.663Z</time>
      </trkpt>
      <trkpt lat="44.81746" lon="1.68728">
        <ele>374.176605225</ele>
        <time>2015-07-04T09:02:57.414Z</time>
      </trkpt>
      <trkpt lat="44.81739" lon="1.68736">
        <ele>374.166107178</ele>
        <time>2015-07-04T09:03:06.419Z</time>
      </trkpt>
      <trkpt lat="44.81739" lon="1.68737">
        <ele>374.156921387</ele>
        <time>2015-07-04T09:03:07.425Z</time>
      </trkpt>
      <trkpt lat="44.81734" lon="1.68748">
        <ele>373.933227539</ele>
        <time>2015-07-04T09:03:13.431Z</time>
      </trkpt>
      <trkpt lat="44.81734" lon="1.68748">
        <ele>373.928131104</ele>
        <time>2015-07-04T09:03:14.406Z</time>
      </trkpt>
      <trkpt lat="44.8173" lon="1.6876">
        <ele>373.548095703</ele>
        <time>2015-07-04T09:03:24.48Z</time>
      </trkpt>
      <trkpt lat="44.81729" lon="1.68761">
        <ele>373.575134277</ele>
        <time>2015-07-04T09:03:25.417Z</time>
      </trkpt>
      <trkpt lat="44.81725" lon="1.68772">
        <ele>373.5831604</ele>
        <time>2015-07-04T09:03:43.413Z</time>
      </trkpt>
      <trkpt lat="44.81724" lon="1.68773">
        <ele>373.569732666</ele>
        <time>2015-07-04T09:03:44.413Z</time>
      </trkpt>
      <trkpt lat="44.8172" lon="1.68784">
        <ele>373.237823486</ele>
        <time>2015-07-04T09:04:41.542Z</time>
      </trkpt>
      <trkpt lat="44.81719" lon="1.68784">
        <ele>373.114044189</ele>
        <time>2015-07-04T09:04:42.411Z</time>
      </trkpt>
      <trkpt lat="44.81714" lon="1.68794">
        <ele>373.04473877</ele>
        <time>2015-07-04T09:04:57.41Z</time>
      </trkpt>
      <trkpt lat="44.81713" lon="1.68794">
        <ele>373.094085693</ele>
        <time>2015-07-04T09:04:58.413Z</time>
      </trkpt>
      <trkpt lat="44.81706" lon="1.68798">
        <ele>374.057647705</ele>
        <time>2015-07-04T09:05:27.395Z</time>
      </trkpt>
      <trkpt lat="44.81705" lon="1.68799">
        <ele>374.203308105</ele>
        <time>2015-07-04T09:05:28.424Z</time>
      </trkpt>
      <trkpt lat="44.81701" lon="1.68809">
        <ele>374.449737549</ele>
        <time>2015-07-04T09:05:46.488Z</time>
      </trkpt>
      <trkpt lat="44.817" lon="1.6881">
        <ele>374.358825684</ele>
        <time>2015-07-04T09:05:47.393Z</time>
      </trkpt>
      <trkpt lat="44.81693" lon="1.68817">
        <ele>373.776641846</ele>
        <time>2015-07-04T09:05:56.686Z</time>
      </trkpt>
      <trkpt lat="44.81691" lon="1.68818">
        <ele>373.76940918</ele>
        <time>2015-07-04T09:05:57.35Z</time>
      </trkpt>
      <trkpt lat="44.81685" lon="1.68827">
        <ele>374.311920166</ele>
        <time>2015-07-04T09:06:06.8Z</time>
      </trkpt>
      <trkpt lat="44.81685" lon="1.68828">
        <ele>374.345214844</ele>
        <time>2015-07-04T09:06:07.409Z</time>
      </trkpt>
      <trkpt lat="44.81678" lon="1.68835">
        <ele>374.37878418</ele>
        <time>2015-07-04T09:06:15.444Z</time>
      </trkpt>
      <trkpt lat="44.81676" lon="1.68837">
        <ele>374.338104248</ele>
        <time>2015-07-04T09:06:16.364Z</time>
      </trkpt>
      <trkpt lat="44.8167" lon="1.68846">
        <ele>373.820648193</ele>
        <time>2015-07-04T09:06:21.423Z</time>
      </trkpt>
      <trkpt lat="44.81669" lon="1.68847">
        <ele>373.746398926</ele>
        <time>2015-07-04T09:06:22.473Z</time>
      </trkpt>
      <trkpt lat="44.81664" lon="1.68857">
        <ele>373.480102539</ele>
        <time>2015-07-04T09:06:33.41Z</time>
      </trkpt>
      <trkpt lat="44.81664" lon="1.68858">
        <ele>373.486907959</ele>
        <time>2015-07-04T09:06:34.389Z</time>
      </trkpt>
      <trkpt lat="44.81659" lon="1.68868">
        <ele>373.475830078</ele>
        <time>2015-07-04T09:06:44.142Z</time>
      </trkpt>
      <trkpt lat="44.81658" lon="1.6887">
        <ele>373.428375244</ele>
        <time>2015-07-04T09:06:45.087Z</time>
      </trkpt>
      <trkpt lat="44.81652" lon="1.68878">
        <ele>373.384643555</ele>
        <time>2015-07-04T09:06:54.121Z</time>
      </trkpt>
      <trkpt lat="44.81651" lon="1.6888">
        <ele>373.397277832</ele>
        <time>2015-07-04T09:06:55.19Z</time>
      </trkpt>
      <trkpt lat="44.81647" lon="1.6889">
        <ele>374.247558594</ele>
        <time>2015-07-04T09:07:05.099Z</time>
      </trkpt>
      <trkpt lat="44.81646" lon="1.68892">
        <ele>374.318939209</ele>
        <time>2015-07-04T09:07:06.083Z</time>
      </trkpt>
      <trkpt lat="44.81642" lon="1.68902">
        <ele>375.307800293</ele>
        <time>2015-07-04T09:07:15.112Z</time>
      </trkpt>
      <trkpt lat="44.81641" lon="1.68904">
        <ele>375.378204346</ele>
        <time>2015-07-04T09:07:16.127Z</time>
      </trkpt>
      <trkpt lat="44.81638" lon="1.68915">
        <ele>375.126922607</ele>
        <time>2015-07-04T09:07:24.108Z</time>
      </trkpt>
      <trkpt lat="44.81637" lon="1.68916">
        <ele>375.130584717</ele>
        <time>2015-07-04T09:07:25.156Z</time>
      </trkpt>
      <trkpt lat="44.81634" lon="1.68927">
        <ele>375.63079834</ele>
        <time>2015-07-04T09:07:34.067Z</time>
      </trkpt>
      <trkpt lat="44.81634" lon="1.68928">
        <ele>375.752655029</ele>
        <time>2015-07-04T09:07:35.031Z</time>
      </trkpt>
      <trkpt lat="44.81633" lon="1.6894">
        <ele>376.433166504</ele>
        <time>2015-07-04T09:07:43.075Z</time>
      </trkpt>
      <trkpt lat="44.81633" lon="1.68941">
        <ele>376.528320312</ele>
        <time>2015-07-04T09:07:44.097Z</time>
      </trkpt>
      <trkpt lat="44.81633" lon="1.68953">
        <ele>377.344696045</ele>
        <time>2015-07-04T09:07:54.107Z</time>
      </trkpt>
      <trkpt lat="44.81633" lon="1.68954">
        <ele>377.323059082</ele>
        <time>2015-07-04T09:07:55.096Z</time>
      </trkpt>
      <trkpt lat="44.81636" lon="1.68965">
        <ele>377.657043457</ele>
        <time>2015-07-04T09:08:04.19Z</time>
      </trkpt>
      <trkpt lat="44.81637" lon="1.68966">
        <ele>377.665039062</ele>
        <time>2015-07-04T09:08:05.11Z</time>
      </trkpt>
      <trkpt lat="44.81642" lon="1.68975">
        <ele>377.538787842</ele>
        <time>2015-07-04T09:08:15.062Z</time>
      </trkpt>
      <trkpt lat="44.81643" lon="1.68975">
        <ele>377.523193359</ele>
        <time>2015-07-04T09:08:16.521Z</time>
      </trkpt>
      <trkpt lat="44.81644" lon="1.68987">
        <ele>377.740814209</ele>
        <time>2015-07-04T09:08:23.094Z</time>
      </trkpt>
      <trkpt lat="44.81644" lon="1.68988">
        <ele>377.719909668</ele>
        <time>2015-07-04T09:08:24.097Z</time>
      </trkpt>
      <trkpt lat="44.81637" lon="1.68995">
        <ele>378.419311523</ele>
        <time>2015-07-04T09:08:42.418Z</time>
      </trkpt>
      <trkpt lat="44.81636" lon="1.68995">
        <ele>378.345703125</ele>
        <time>2015-07-04T09:08:43.047Z</time>
      </trkpt>
      <trkpt lat="44.81639" lon="1.69007">
        <ele>378.241821289</ele>
        <time>2015-07-04T09:14:22.94Z</time>
      </trkpt>
      <trkpt lat="44.8164" lon="1.69007">
        <ele>378.265441895</ele>
        <time>2015-07-04T09:14:23.968Z</time>
      </trkpt>
      <trkpt lat="44.81644" lon="1.69015">
        <ele>379.000640869</ele>
        <time>2015-07-04T09:15:04.995Z</time>
      </trkpt>
      <trkpt lat="44.81646" lon="1.69016">
        <ele>378.934997559</ele>
        <time>2015-07-04T09:15:06.005Z</time>
      </trkpt>
      <trkpt lat="44.81648" lon="1.69027">
        <ele>378.55279541</ele>
        <time>2015-07-04T09:15:11.991Z</time>
      </trkpt>
      <trkpt lat="44.81649" lon="1.69029">
        <ele>378.544799805</ele>
        <time>2015-07-04T09:15:13.012Z</time>
      </trkpt>
      <trkpt lat="44.81653" lon="1.69039">
        <ele>378.993164062</ele>
        <time>2015-07-04T09:15:20.836Z</time>
      </trkpt>
      <trkpt lat="44.81653" lon="1.6904">
        <ele>378.959350586</ele>
        <time>2015-07-04T09:15:20.99Z</time>
      </trkpt>
      <trkpt lat="44.81659" lon="1.6905">
        <ele>377.962799072</ele>
        <time>2015-07-04T09:15:32.12Z</time>
      </trkpt>
      <trkpt lat="44.81659" lon="1.6905">
        <ele>377.961669922</ele>
        <time>2015-07-04T09:15:33.169Z</time>
      </trkpt>
      <trkpt lat="44.81664" lon="1.69059">
        <ele>377.689971924</ele>
        <time>2015-07-04T09:15:42.002Z</time>
      </trkpt>
      <trkpt lat="44.81665" lon="1.69061">
        <ele>377.746063232</ele>
        <time>2015-07-04T09:15:43Z</time>
      </trkpt>
      <trkpt lat="44.81668" lon="1.69071">
        <ele>378.24331665</ele>
        <time>2015-07-04T09:15:48.047Z</time>
      </trkpt>
      <trkpt lat="44.81669" lon="1.69072">
        <ele>378.218383789</ele>
        <time>2015-07-04T09:15:49.093Z</time>
      </trkpt>
      <trkpt lat="44.81674" lon="1.69081">
        <ele>377.650695801</ele>
        <time>2015-07-04T09:15:59.106Z</time>
      </trkpt>
      <trkpt lat="44.81674" lon="1.69083">
        <ele>377.631103516</ele>
        <time>2015-07-04T09:16:00.094Z</time>
      </trkpt>
      <trkpt lat="44.81675" lon="1.69094">
        <ele>377.252990723</ele>
        <time>2015-07-04T09:16:12.07Z</time>
      </trkpt>
      <trkpt lat="44.81675" lon="1.69095">
        <ele>377.32333374</ele>
        <time>2015-07-04T09:16:13.076Z</time>
      </trkpt>
      <trkpt lat="44.81677" lon="1.69107">
        <ele>378.363830566</ele>
        <time>2015-07-04T09:16:24.089Z</time>
      </trkpt>
      <trkpt lat="44.81678" lon="1.69108">
        <ele>378.485168457</ele>
        <time>2015-07-04T09:16:25.15Z</time>
      </trkpt>
      <trkpt lat="44.81682" lon="1.69119">
        <ele>379.394256592</ele>
        <time>2015-07-04T09:16:35.026Z</time>
      </trkpt>
      <trkpt lat="44.81683" lon="1.69119">
        <ele>379.427764893</ele>
        <time>2015-07-04T09:16:36.077Z</time>
      </trkpt>
      <trkpt lat="44.81688" lon="1.69128">
        <ele>379.453338623</ele>
        <time>2015-07-04T09:16:43.102Z</time>
      </trkpt>
      <trkpt lat="44.81688" lon="1.69129">
        <ele>379.396087646</ele>
        <time>2015-07-04T09:16:44.072Z</time>
      </trkpt>
      <trkpt lat="44.81691" lon="1.69141">
        <ele>379.517974854</ele>
        <time>2015-07-04T09:16:54.089Z</time>
      </trkpt>
      <trkpt lat="44.81691" lon="1.69142">
        <ele>379.622741699</ele>
        <time>2015-07-04T09:16:55.194Z</time>
      </trkpt>
      <trkpt lat="44.81691" lon="1.69155">
        <ele>380.350036621</ele>
        <time>2015-07-04T09:17:02.61Z</time>
      </trkpt>
      <trkpt lat="44.8169" lon="1.69156">
        <ele>380.400970459</ele>
        <time>2015-07-04T09:17:03.101Z</time>
      </trkpt>
      <trkpt lat="44.81688" lon="1.69167">
        <ele>382.074981689</ele>
        <time>2015-07-04T09:17:14.085Z</time>
      </trkpt>
      <trkpt lat="44.81688" lon="1.69168">
        <ele>382.183776855</ele>
        <time>2015-07-04T09:17:15.079Z</time>
      </trkpt>
      <trkpt lat="44.81688" lon="1.6918">
        <ele>382.890594482</ele>
        <time>2015-07-04T09:17:24.07Z</time>
      </trkpt>
      <trkpt lat="44.81687" lon="1.69182">
        <ele>382.970062256</ele>
        <time>2015-07-04T09:17:25.09Z</time>
      </trkpt>
      <trkpt lat="44.81686" lon="1.69194">
        <ele>384.127410889</ele>
        <time>2015-07-04T09:17:36.342Z</time>
      </trkpt>
      <trkpt lat="44.81686" lon="1.69195">
        <ele>384.140136719</ele>
        <time>2015-07-04T09:17:37.061Z</time>
      </trkpt>
      <trkpt lat="44.81678" lon="1.69198">
        <ele>386.449310303</ele>
        <time>2015-07-04T09:18:04.061Z</time>
      </trkpt>
      <trkpt lat="44.81675" lon="1.69197">
        <ele>386.355499268</ele>
        <time>2015-07-04T09:18:05.083Z</time>
      </trkpt>
      <trkpt lat="44.81668" lon="1.69192">
        <ele>386.301605225</ele>
        <time>2015-07-04T09:18:13.17Z</time>
      </trkpt>
      <trkpt lat="44.81667" lon="1.69192">
        <ele>386.293304443</ele>
        <time>2015-07-04T09:18:14.104Z</time>
      </trkpt>
      <trkpt lat="44.81658" lon="1.6919">
        <ele>386.253417969</ele>
        <time>2015-07-04T09:18:22.094Z</time>
      </trkpt>
      <trkpt lat="44.81657" lon="1.69191">
        <ele>386.259918213</ele>
        <time>2015-07-04T09:18:23.088Z</time>
      </trkpt>
      <trkpt lat="44.81649" lon="1.69193">
        <ele>385.972229004</ele>
        <time>2015-07-04T09:18:39.066Z</time>
      </trkpt>
      <trkpt lat="44.81648" lon="1.69192">
        <ele>386.013641357</ele>
        <time>2015-07-04T09:18:40.085Z</time>
      </trkpt>
      <trkpt lat="44.81639" lon="1.69191">
        <ele>385.925018311</ele>
        <time>2015-07-04T09:18:47.856Z</time>
      </trkpt>
      <trkpt lat="44.81639" lon="1.69191">
        <ele>385.9190979</ele>
        <time>2015-07-04T09:18:48.876Z</time>
      </trkpt>
      <trkpt lat="44.8163" lon="1.69188">
        <ele>384.455596924</ele>
        <time>2015-07-04T09:18:57.855Z</time>
      </trkpt>
      <trkpt lat="44.81628" lon="1.69188">
        <ele>384.229644775</ele>
        <time>2015-07-04T09:18:58.902Z</time>
      </trkpt>
      <trkpt lat="44.8162" lon="1.69183">
        <ele>382.882110596</ele>
        <time>2015-07-04T09:19:08.878Z</time>
      </trkpt>
      <trkpt lat="44.8162" lon="1.69182">
        <ele>382.834442139</ele>
        <time>2015-07-04T09:19:09.87Z</time>
      </trkpt>
      <trkpt lat="44.81612" lon="1.69177">
        <ele>382.261383057</ele>
        <time>2015-07-04T09:19:19.801Z</time>
      </trkpt>
      <trkpt lat="44.81611" lon="1.69177">
        <ele>382.227996826</ele>
        <time>2015-07-04T09:19:20.903Z</time>
      </trkpt>
      <trkpt lat="44.81604" lon="1.69171">
        <ele>382.465301514</ele>
        <time>2015-07-04T09:19:28.874Z</time>
      </trkpt>
      <trkpt lat="44.81602" lon="1.6917">
        <ele>382.430328369</ele>
        <time>2015-07-04T09:19:29.863Z</time>
      </trkpt>
      <trkpt lat="44.81594" lon="1.69165">
        <ele>382.073638916</ele>
        <time>2015-07-04T09:19:36.87Z</time>
      </trkpt>
      <trkpt lat="44.81593" lon="1.69164">
        <ele>381.924530029</ele>
        <time>2015-07-04T09:19:37.857Z</time>
      </trkpt>
      <trkpt lat="44.81586" lon="1.69158">
        <ele>381.465301514</ele>
        <time>2015-07-04T09:19:47.852Z</time>
      </trkpt>
      <trkpt lat="44.81585" lon="1.69157">
        <ele>381.548583984</ele>
        <time>2015-07-04T09:19:48.854Z</time>
      </trkpt>
      <trkpt lat="44.81578" lon="1.69151">
        <ele>382.17401123</ele>
        <time>2015-07-04T09:19:57.87Z</time>
      </trkpt>
      <trkpt lat="44.81577" lon="1.6915">
        <ele>382.262573242</ele>
        <time>2015-07-04T09:19:58.853Z</time>
      </trkpt>
      <trkpt lat="44.81569" lon="1.69144">
        <ele>381.948150635</ele>
        <time>2015-07-04T09:20:04.873Z</time>
      </trkpt>
      <trkpt lat="44.81569" lon="1.69143">
        <ele>381.724822998</ele>
        <time>2015-07-04T09:20:05.855Z</time>
      </trkpt>
      <trkpt lat="44.81564" lon="1.69135">
        <ele>380.498443604</ele>
        <time>2015-07-04T09:20:12.842Z</time>
      </trkpt>
      <trkpt lat="44.81562" lon="1.69134">
        <ele>380.397033691</ele>
        <time>2015-07-04T09:20:13.941Z</time>
      </trkpt>
      <trkpt lat="44.81556" lon="1.69125">
        <ele>379.821258545</ele>
        <time>2015-07-04T09:20:19.855Z</time>
      </trkpt>
      <trkpt lat="44.81555" lon="1.69124">
        <ele>379.687927246</ele>
        <time>2015-07-04T09:20:20.936Z</time>
      </trkpt>
      <trkpt lat="44.81549" lon="1.69118">
        <ele>378.530181885</ele>
        <time>2015-07-04T09:20:27.855Z</time>
      </trkpt>
      <trkpt lat="44.81547" lon="1.69117">
        <ele>378.357879639</ele>
        <time>2015-07-04T09:20:28.862Z</time>
      </trkpt>
      <trkpt lat="44.8154" lon="1.69111">
        <ele>377.062774658</ele>
        <time>2015-07-04T09:20:36.843Z</time>
      </trkpt>
      <trkpt lat="44.81539" lon="1.6911">
        <ele>376.967102051</ele>
        <time>2015-07-04T09:20:37.899Z</time>
      </trkpt>
      <trkpt lat="44.81533" lon="1.69101">
        <ele>376.311157227</ele>
        <time>2015-07-04T09:20:46.975Z</time>
      </trkpt>
      <trkpt lat="44.81532" lon="1.69101">
        <ele>376.258636475</ele>
        <time>2015-07-04T09:20:47.827Z</time>
      </trkpt>
      <trkpt lat="44.81525" lon="1.69095">
        <ele>375.373718262</ele>
        <time>2015-07-04T09:20:55.871Z</time>
      </trkpt>
      <trkpt lat="44.81524" lon="1.69094">
        <ele>375.418182373</ele>
        <time>2015-07-04T09:20:56.878Z</time>
      </trkpt>
      <trkpt lat="44.81517" lon="1.69086">
        <ele>374.822235107</ele>
        <time>2015-07-04T09:21:03.872Z</time>
      </trkpt>
      <trkpt lat="44.81517" lon="1.69086">
        <ele>374.688537598</ele>
        <time>2015-07-04T09:21:04.89Z</time>
      </trkpt>
      <trkpt lat="44.8151" lon="1.69078">
        <ele>372.966003418</ele>
        <time>2015-07-04T09:21:14.871Z</time>
      </trkpt>
      <trkpt lat="44.8151" lon="1.69077">
        <ele>372.708709717</ele>
        <time>2015-07-04T09:21:15.916Z</time>
      </trkpt>
      <trkpt lat="44.81503" lon="1.6907">
        <ele>371.511810303</ele>
        <time>2015-07-04T09:21:22.846Z</time>
      </trkpt>
      <trkpt lat="44.81502" lon="1.69069">
        <ele>371.411834717</ele>
        <time>2015-07-04T09:21:23.852Z</time>
      </trkpt>
      <trkpt lat="44.81495" lon="1.69061">
        <ele>370.748199463</ele>
        <time>2015-07-04T09:21:31.288Z</time>
      </trkpt>
      <trkpt lat="44.81494" lon="1.69061">
        <ele>370.730133057</ele>
        <time>2015-07-04T09:21:31.866Z</time>
      </trkpt>
      <trkpt lat="44.81488" lon="1.69053">
        <ele>370.914672852</ele>
        <time>2015-07-04T09:21:37.864Z</time>
      </trkpt>
      <trkpt lat="44.81487" lon="1.69052">
        <ele>370.894500732</ele>
        <time>2015-07-04T09:21:38.858Z</time>
      </trkpt>
      <trkpt lat="44.81479" lon="1.69046">
        <ele>371.380065918</ele>
        <time>2015-07-04T09:21:49.871Z</time>
      </trkpt>
      <trkpt lat="44.81478" lon="1.69046">
        <ele>371.442657471</ele>
        <time>2015-07-04T09:21:50.872Z</time>
      </trkpt>
      <trkpt lat="44.81471" lon="1.69043">
        <ele>372.330047607</ele>
        <time>2015-07-04T09:21:57.871Z</time>
      </trkpt>
      <trkpt lat="44.81469" lon="1.69042">
        <ele>372.294128418</ele>
        <time>2015-07-04T09:21:58.868Z</time>
      </trkpt>
      <trkpt lat="44.81461" lon="1.69039">
        <ele>372.122528076</ele>
        <time>2015-07-04T09:22:07.381Z</time>
      </trkpt>
      <trkpt lat="44.8146" lon="1.69039">
        <ele>372.027526855</ele>
        <time>2015-07-04T09:22:07.844Z</time>
      </trkpt>
      <trkpt lat="44.81452" lon="1.69036">
        <ele>371.623260498</ele>
        <time>2015-07-04T09:22:14.908Z</time>
      </trkpt>
      <trkpt lat="44.8145" lon="1.69036">
        <ele>371.623840332</ele>
        <time>2015-07-04T09:22:15.88Z</time>
      </trkpt>
      <trkpt lat="44.81442" lon="1.69037">
        <ele>371.32043457</ele>
        <time>2015-07-04T09:22:24.854Z</time>
      </trkpt>
      <trkpt lat="44.81441" lon="1.69036">
        <ele>371.299560547</ele>
        <time>2015-07-04T09:22:25.928Z</time>
      </trkpt>
      <trkpt lat="44.81432" lon="1.69035">
        <ele>370.280853271</ele>
        <time>2015-07-04T09:22:37.842Z</time>
      </trkpt>
      <trkpt lat="44.81431" lon="1.69035">
        <ele>370.17565918</ele>
        <time>2015-07-04T09:22:38.886Z</time>
      </trkpt>
      <trkpt lat="44.81423" lon="1.69037">
        <ele>369.389923096</ele>
        <time>2015-07-04T09:22:48.862Z</time>
      </trkpt>
      <trkpt lat="44.81422" lon="1.69038">
        <ele>369.297180176</ele>
        <time>2015-07-04T09:22:49.855Z</time>
      </trkpt>
      <trkpt lat="44.81414" lon="1.69041">
        <ele>369.041259766</ele>
        <time>2015-07-04T09:22:57.066Z</time>
      </trkpt>
      <trkpt lat="44.81412" lon="1.69042">
        <ele>369.031280518</ele>
        <time>2015-07-04T09:22:57.867Z</time>
      </trkpt>
      <trkpt lat="44.81404" lon="1.69047">
        <ele>368.795288086</ele>
        <time>2015-07-04T09:23:05.813Z</time>
      </trkpt>
      <trkpt lat="44.81404" lon="1.69048">
        <ele>368.701416016</ele>
        <time>2015-07-04T09:23:06.869Z</time>
      </trkpt>
      <trkpt lat="44.81395" lon="1.6905">
        <ele>368.486328125</ele>
        <time>2015-07-04T09:23:16.854Z</time>
      </trkpt>
      <trkpt lat="44.81394" lon="1.6905">
        <ele>368.450561523</ele>
        <time>2015-07-04T09:23:17.843Z</time>
      </trkpt>
      <trkpt lat="44.81386" lon="1.6905">
        <ele>368.586334229</ele>
        <time>2015-07-04T09:23:24.856Z</time>
      </trkpt>
      <trkpt lat="44.81384" lon="1.6905">
        <ele>368.586364746</ele>
        <time>2015-07-04T09:23:25.858Z</time>
      </trkpt>
      <trkpt lat="44.81377" lon="1.69051">
        <ele>368.474578857</ele>
        <time>2015-07-04T09:23:33.863Z</time>
      </trkpt>
      <trkpt lat="44.81375" lon="1.69051">
        <ele>368.478485107</ele>
        <time>2015-07-04T09:23:34.863Z</time>
      </trkpt>
      <trkpt lat="44.81367" lon="1.69053">
        <ele>368.511260986</ele>
        <time>2015-07-04T09:23:39.839Z</time>
      </trkpt>
      <trkpt lat="44.81365" lon="1.69053">
        <ele>368.499938965</ele>
        <time>2015-07-04T09:23:40.876Z</time>
      </trkpt>
      <trkpt lat="44.81357" lon="1.69053">
        <ele>368.371429443</ele>
        <time>2015-07-04T09:23:46.88Z</time>
      </trkpt>
      <trkpt lat="44.81355" lon="1.69053">
        <ele>368.355438232</ele>
        <time>2015-07-04T09:23:47.863Z</time>
      </trkpt>
      <trkpt lat="44.81347" lon="1.69055">
        <ele>368.113830566</ele>
        <time>2015-07-04T09:23:54.947Z</time>
      </trkpt>
      <trkpt lat="44.81346" lon="1.69056">
        <ele>367.991333008</ele>
        <time>2015-07-04T09:23:55.868Z</time>
      </trkpt>
      <trkpt lat="44.81338" lon="1.69055">
        <ele>366.312011719</ele>
        <time>2015-07-04T09:24:03.869Z</time>
      </trkpt>
      <trkpt lat="44.81336" lon="1.69056">
        <ele>366.127838135</ele>
        <time>2015-07-04T09:24:04.868Z</time>
      </trkpt>
      <trkpt lat="44.81327" lon="1.69055">
        <ele>364.997802734</ele>
        <time>2015-07-04T09:24:13.859Z</time>
      </trkpt>
      <trkpt lat="44.81327" lon="1.69055">
        <ele>364.844787598</ele>
        <time>2015-07-04T09:24:15.021Z</time>
      </trkpt>
      <trkpt lat="44.81318" lon="1.69053">
        <ele>363.942840576</ele>
        <time>2015-07-04T09:24:23.869Z</time>
      </trkpt>
      <trkpt lat="44.81317" lon="1.69053">
        <ele>363.865692139</ele>
        <time>2015-07-04T09:24:24.868Z</time>
      </trkpt>
      <trkpt lat="44.8131" lon="1.69051">
        <ele>363.543914795</ele>
        <time>2015-07-04T09:24:29.864Z</time>
      </trkpt>
      <trkpt lat="44.81308" lon="1.6905">
        <ele>363.462280273</ele>
        <time>2015-07-04T09:24:30.903Z</time>
      </trkpt>
      <trkpt lat="44.81301" lon="1.69047">
        <ele>362.792999268</ele>
        <time>2015-07-04T09:24:39.405Z</time>
      </trkpt>
      <trkpt lat="44.81299" lon="1.69046">
        <ele>362.686523438</ele>
        <time>2015-07-04T09:24:39.809Z</time>
      </trkpt>
      <trkpt lat="44.81291" lon="1.69045">
        <ele>362.053771973</ele>
        <time>2015-07-04T09:24:44.867Z</time>
      </trkpt>
      <trkpt lat="44.81289" lon="1.69045">
        <ele>361.853759766</ele>
        <time>2015-07-04T09:24:45.863Z</time>
      </trkpt>
      <trkpt lat="44.81281" lon="1.69045">
        <ele>360.718963623</ele>
        <time>2015-07-04T09:24:51.79Z</time>
      </trkpt>
      <trkpt lat="44.8128" lon="1.69045">
        <ele>360.559173584</ele>
        <time>2015-07-04T09:24:52.875Z</time>
      </trkpt>
      <trkpt lat="44.81272" lon="1.69049">
        <ele>360.177368164</ele>
        <time>2015-07-04T09:25:00.855Z</time>
      </trkpt>
      <trkpt lat="44.81269" lon="1.69049">
        <ele>360.197937012</ele>
        <time>2015-07-04T09:25:01.857Z</time>
      </trkpt>
      <trkpt lat="44.81261" lon="1.69048">
        <ele>359.885742188</ele>
        <time>2015-07-04T09:25:08.862Z</time>
      </trkpt>
      <trkpt lat="44.8126" lon="1.69049">
        <ele>359.861450195</ele>
        <time>2015-07-04T09:25:09.855Z</time>
      </trkpt>
      <trkpt lat="44.81252" lon="1.6905">
        <ele>359.353363037</ele>
        <time>2015-07-04T09:25:21.77Z</time>
      </trkpt>
      <trkpt lat="44.81251" lon="1.69051">
        <ele>359.36050415</ele>
        <time>2015-07-04T09:25:22.931Z</time>
      </trkpt>
      <trkpt lat="44.81243" lon="1.6905">
        <ele>359.247650146</ele>
        <time>2015-07-04T09:25:27.826Z</time>
      </trkpt>
      <trkpt lat="44.81242" lon="1.6905">
        <ele>359.118713379</ele>
        <time>2015-07-04T09:25:28.863Z</time>
      </trkpt>
      <trkpt lat="44.81233" lon="1.69049">
        <ele>358.215820312</ele>
        <time>2015-07-04T09:25:36.612Z</time>
      </trkpt>
      <trkpt lat="44.81232" lon="1.69049">
        <ele>358.149963379</ele>
        <time>2015-07-04T09:25:36.995Z</time>
      </trkpt>
      <trkpt lat="44.81224" lon="1.69045">
        <ele>357.40145874</ele>
        <time>2015-07-04T09:25:44.857Z</time>
      </trkpt>
      <trkpt lat="44.81223" lon="1.69044">
        <ele>357.250762939</ele>
        <time>2015-07-04T09:25:45.852Z</time>
      </trkpt>
      <trkpt lat="44.81214" lon="1.69044">
        <ele>356.944885254</ele>
        <time>2015-07-04T09:25:53.852Z</time>
      </trkpt>
      <trkpt lat="44.81213" lon="1.69044">
        <ele>356.98614502</ele>
        <time>2015-07-04T09:25:54.889Z</time>
      </trkpt>
      <trkpt lat="44.81205" lon="1.69044">
        <ele>356.959777832</ele>
        <time>2015-07-04T09:25:59.862Z</time>
      </trkpt>
      <trkpt lat="44.81203" lon="1.69043">
        <ele>356.867889404</ele>
        <time>2015-07-04T09:26:00.815Z</time>
      </trkpt>
      <trkpt lat="44.81195" lon="1.69042">
        <ele>356.234436035</ele>
        <time>2015-07-04T09:26:07.042Z</time>
      </trkpt>
      <trkpt lat="44.81194" lon="1.69042">
        <ele>356.092163086</ele>
        <time>2015-07-04T09:26:07.88Z</time>
      </trkpt>
      <trkpt lat="44.81185" lon="1.69039">
        <ele>354.951477051</ele>
        <time>2015-07-04T09:26:16.821Z</time>
      </trkpt>
      <trkpt lat="44.81184" lon="1.69039">
        <ele>354.815002441</ele>
        <time>2015-07-04T09:26:17.842Z</time>
      </trkpt>
      <trkpt lat="44.81176" lon="1.69038">
        <ele>354.145629883</ele>
        <time>2015-07-04T09:26:26.108Z</time>
      </trkpt>
      <trkpt lat="44.81175" lon="1.69038">
        <ele>353.963409424</ele>
        <time>2015-07-04T09:26:26.87Z</time>
      </trkpt>
      <trkpt lat="44.81166" lon="1.69035">
        <ele>353.255004883</ele>
        <time>2015-07-04T09:26:31.955Z</time>
      </trkpt>
      <trkpt lat="44.81166" lon="1.69035">
        <ele>353.251647949</ele>
        <time>2015-07-04T09:26:32.875Z</time>
      </trkpt>
      <trkpt lat="44.81158" lon="1.69035">
        <ele>352.855895996</ele>
        <time>2015-07-04T09:26:38.85Z</time>
      </trkpt>
      <trkpt lat="44.81157" lon="1.69034">
        <ele>352.735595703</ele>
        <time>2015-07-04T09:26:39.877Z</time>
      </trkpt>
      <trkpt lat="44.81148" lon="1.69035">
        <ele>352.72744751</ele>
        <time>2015-07-04T09:26:47.89Z</time>
      </trkpt>
      <trkpt lat="44.81147" lon="1.69035">
        <ele>352.731445312</ele>
        <time>2015-07-04T09:26:48.807Z</time>
      </trkpt>
      <trkpt lat="44.8114" lon="1.6904">
        <ele>352.662811279</ele>
        <time>2015-07-04T09:26:57.099Z</time>
      </trkpt>
      <trkpt lat="44.81139" lon="1.69041">
        <ele>352.574371338</ele>
        <time>2015-07-04T09:26:57.832Z</time>
      </trkpt>
      <trkpt lat="44.81132" lon="1.69049">
        <ele>351.665618896</ele>
        <time>2015-07-04T09:27:07.261Z</time>
      </trkpt>
      <trkpt lat="44.81132" lon="1.6905">
        <ele>351.612060547</ele>
        <time>2015-07-04T09:27:07.908Z</time>
      </trkpt>
      <trkpt lat="44.81127" lon="1.69059">
        <ele>351.504821777</ele>
        <time>2015-07-04T09:27:16.411Z</time>
      </trkpt>
      <trkpt lat="44.81126" lon="1.69061">
        <ele>351.593811035</ele>
        <time>2015-07-04T09:27:16.803Z</time>
      </trkpt>
      <trkpt lat="44.81122" lon="1.69071">
        <ele>351.890472412</ele>
        <time>2015-07-04T09:27:23.906Z</time>
      </trkpt>
      <trkpt lat="44.81122" lon="1.69073">
        <ele>352.012298584</ele>
        <time>2015-07-04T09:27:24.879Z</time>
      </trkpt>
      <trkpt lat="44.81114" lon="1.69079">
        <ele>352.891235352</ele>
        <time>2015-07-04T09:27:31.887Z</time>
      </trkpt>
      <trkpt lat="44.81113" lon="1.69079">
        <ele>352.988830566</ele>
        <time>2015-07-04T09:27:32.854Z</time>
      </trkpt>
      <trkpt lat="44.81104" lon="1.6908">
        <ele>352.991973877</ele>
        <time>2015-07-04T09:27:39.899Z</time>
      </trkpt>
      <trkpt lat="44.81103" lon="1.6908">
        <ele>353.063568115</ele>
        <time>2015-07-04T09:27:40.871Z</time>
      </trkpt>
      <trkpt lat="44.81094" lon="1.69077">
        <ele>353.834106445</ele>
        <time>2015-07-04T09:27:49.876Z</time>
      </trkpt>
      <trkpt lat="44.81093" lon="1.69076">
        <ele>353.99508667</ele>
        <time>2015-07-04T09:27:50.867Z</time>
      </trkpt>
      <trkpt lat="44.81084" lon="1.69071">
        <ele>354.737304688</ele>
        <time>2015-07-04T09:27:59.874Z</time>
      </trkpt>
      <trkpt lat="44.81083" lon="1.69071">
        <ele>354.792205811</ele>
        <time>2015-07-04T09:28:00.848Z</time>
      </trkpt>
      <trkpt lat="44.81075" lon="1.6907">
        <ele>355.893920898</ele>
        <time>2015-07-04T09:28:09.866Z</time>
      </trkpt>
      <trkpt lat="44.81074" lon="1.6907">
        <ele>356.05291748</ele>
        <time>2015-07-04T09:28:10.877Z</time>
      </trkpt>
      <trkpt lat="44.81065" lon="1.69068">
        <ele>356.971374512</ele>
        <time>2015-07-04T09:28:17.925Z</time>
      </trkpt>
      <trkpt lat="44.81064" lon="1.69068">
        <ele>356.985626221</ele>
        <time>2015-07-04T09:28:18.864Z</time>
      </trkpt>
      <trkpt lat="44.81056" lon="1.69068">
        <ele>357.176757812</ele>
        <time>2015-07-04T09:28:24.862Z</time>
      </trkpt>
      <trkpt lat="44.81054" lon="1.69068">
        <ele>357.243865967</ele>
        <time>2015-07-04T09:28:25.861Z</time>
      </trkpt>
      <trkpt lat="44.81046" lon="1.69068">
        <ele>357.887786865</ele>
        <time>2015-07-04T09:28:34.873Z</time>
      </trkpt>
      <trkpt lat="44.81045" lon="1.69067">
        <ele>357.941101074</ele>
        <time>2015-07-04T09:28:35.836Z</time>
      </trkpt>
      <trkpt lat="44.81037" lon="1.69066">
        <ele>357.846710205</ele>
        <time>2015-07-04T09:28:43.861Z</time>
      </trkpt>
      <trkpt lat="44.81035" lon="1.69066">
        <ele>357.850219727</ele>
        <time>2015-07-04T09:28:44.87Z</time>
      </trkpt>
      <trkpt lat="44.81027" lon="1.69065">
        <ele>358.229766846</ele>
        <time>2015-07-04T09:28:50.906Z</time>
      </trkpt>
      <trkpt lat="44.81026" lon="1.69065">
        <ele>358.270874023</ele>
        <time>2015-07-04T09:28:51.87Z</time>
      </trkpt>
      <trkpt lat="44.81017" lon="1.69064">
        <ele>358.656829834</ele>
        <time>2015-07-04T09:28:59.866Z</time>
      </trkpt>
      <trkpt lat="44.81017" lon="1.69064">
        <ele>358.723968506</ele>
        <time>2015-07-04T09:29:00.799Z</time>
      </trkpt>
      <trkpt lat="44.81008" lon="1.69061">
        <ele>359.647918701</ele>
        <time>2015-07-04T09:29:10.849Z</time>
      </trkpt>
      <trkpt lat="44.81007" lon="1.6906">
        <ele>359.707855225</ele>
        <time>2015-07-04T09:29:11.865Z</time>
      </trkpt>
      <trkpt lat="44.80998" lon="1.69062">
        <ele>360.282714844</ele>
        <time>2015-07-04T09:29:22.882Z</time>
      </trkpt>
      <trkpt lat="44.80997" lon="1.69062">
        <ele>360.349914551</ele>
        <time>2015-07-04T09:29:23.869Z</time>
      </trkpt>
      <trkpt lat="44.80988" lon="1.69064">
        <ele>361.069458008</ele>
        <time>2015-07-04T09:29:32.867Z</time>
      </trkpt>
      <trkpt lat="44.80987" lon="1.69064">
        <ele>361.192779541</ele>
        <time>2015-07-04T09:29:33.882Z</time>
      </trkpt>
      <trkpt lat="44.80978" lon="1.69063">
        <ele>361.184417725</ele>
        <time>2015-07-04T09:29:42.874Z</time>
      </trkpt>
      <trkpt lat="44.80977" lon="1.69063">
        <ele>361.103088379</ele>
        <time>2015-07-04T09:29:43.863Z</time>
      </trkpt>
      <trkpt lat="44.80969" lon="1.69064">
        <ele>361.475372314</ele>
        <time>2015-07-04T09:29:52.845Z</time>
      </trkpt>
      <trkpt lat="44.80968" lon="1.69065">
        <ele>361.518951416</ele>
        <time>2015-07-04T09:29:53.836Z</time>
      </trkpt>
      <trkpt lat="44.8096" lon="1.69071">
        <ele>361.734313965</ele>
        <time>2015-07-04T09:29:59.847Z</time>
      </trkpt>
      <trkpt lat="44.80959" lon="1.69072">
        <ele>361.785186768</ele>
        <time>2015-07-04T09:30:00.822Z</time>
      </trkpt>
      <trkpt lat="44.8095" lon="1.69074">
        <ele>361.487091064</ele>
        <time>2015-07-04T09:30:07.869Z</time>
      </trkpt>
      <trkpt lat="44.80949" lon="1.69074">
        <ele>361.402984619</ele>
        <time>2015-07-04T09:30:08.886Z</time>
      </trkpt>
      <trkpt lat="44.8094" lon="1.69078">
        <ele>361.135955811</ele>
        <time>2015-07-04T09:30:16.838Z</time>
      </trkpt>
      <trkpt lat="44.8094" lon="1.69078">
        <ele>361.152282715</ele>
        <time>2015-07-04T09:30:17.848Z</time>
      </trkpt>
      <trkpt lat="44.80931" lon="1.69082">
        <ele>360.615997314</ele>
        <time>2015-07-04T09:30:24.592Z</time>
      </trkpt>
      <trkpt lat="44.8093" lon="1.69082">
        <ele>360.489807129</ele>
        <time>2015-07-04T09:30:25.549Z</time>
      </trkpt>
      <trkpt lat="44.80922" lon="1.69085">
        <ele>360.073516846</ele>
        <time>2015-07-04T09:30:32.599Z</time>
      </trkpt>
      <trkpt lat="44.80921" lon="1.69086">
        <ele>359.988189697</ele>
        <time>2015-07-04T09:30:33.562Z</time>
      </trkpt>
      <trkpt lat="44.80913" lon="1.69087">
        <ele>360.274627686</ele>
        <time>2015-07-04T09:30:40.599Z</time>
      </trkpt>
      <trkpt lat="44.80912" lon="1.69087">
        <ele>360.309906006</ele>
        <time>2015-07-04T09:30:41.573Z</time>
      </trkpt>
      <trkpt lat="44.80903" lon="1.69089">
        <ele>360.047393799</ele>
        <time>2015-07-04T09:30:52.528Z</time>
      </trkpt>
      <trkpt lat="44.80902" lon="1.69089">
        <ele>359.972442627</ele>
        <time>2015-07-04T09:30:53.574Z</time>
      </trkpt>
      <trkpt lat="44.80894" lon="1.69089">
        <ele>359.497802734</ele>
        <time>2015-07-04T09:30:59.568Z</time>
      </trkpt>
      <trkpt lat="44.80892" lon="1.69089">
        <ele>359.407836914</ele>
        <time>2015-07-04T09:31:00.608Z</time>
      </trkpt>
      <trkpt lat="44.80885" lon="1.69089">
        <ele>359.112762451</ele>
        <time>2015-07-04T09:31:07.291Z</time>
      </trkpt>
      <trkpt lat="44.80883" lon="1.69088">
        <ele>359.080322266</ele>
        <time>2015-07-04T09:31:07.705Z</time>
      </trkpt>
      <trkpt lat="44.80874" lon="1.69086">
        <ele>359.041015625</ele>
        <time>2015-07-04T09:31:13.546Z</time>
      </trkpt>
      <trkpt lat="44.80873" lon="1.69085">
        <ele>359.046295166</ele>
        <time>2015-07-04T09:31:14.57Z</time>
      </trkpt>
      <trkpt lat="44.80865" lon="1.69082">
        <ele>358.409637451</ele>
        <time>2015-07-04T09:31:22.576Z</time>
      </trkpt>
      <trkpt lat="44.80864" lon="1.69082">
        <ele>358.241424561</ele>
        <time>2015-07-04T09:31:23.601Z</time>
      </trkpt>
      <trkpt lat="44.80855" lon="1.69078">
        <ele>357.576721191</ele>
        <time>2015-07-04T09:31:31.047Z</time>
      </trkpt>
      <trkpt lat="44.80855" lon="1.69077">
        <ele>357.539794922</ele>
        <time>2015-07-04T09:31:31.574Z</time>
      </trkpt>
      <trkpt lat="44.80846" lon="1.69074">
        <ele>357.001525879</ele>
        <time>2015-07-04T09:31:41.19Z</time>
      </trkpt>
      <trkpt lat="44.80845" lon="1.69073">
        <ele>356.897338867</ele>
        <time>2015-07-04T09:31:41.562Z</time>
      </trkpt>
      <trkpt lat="44.80838" lon="1.6907">
        <ele>357.011932373</ele>
        <time>2015-07-04T09:31:47.576Z</time>
      </trkpt>
      <trkpt lat="44.80836" lon="1.69069">
        <ele>357.10043335</ele>
        <time>2015-07-04T09:31:48.572Z</time>
      </trkpt>
      <trkpt lat="44.80828" lon="1.69071">
        <ele>356.937133789</ele>
        <time>2015-07-04T09:31:54.62Z</time>
      </trkpt>
      <trkpt lat="44.80826" lon="1.69071">
        <ele>356.834533691</ele>
        <time>2015-07-04T09:31:55.682Z</time>
      </trkpt>
      <trkpt lat="44.80818" lon="1.6907">
        <ele>356.462646484</ele>
        <time>2015-07-04T09:32:05.547Z</time>
      </trkpt>
      <trkpt lat="44.80817" lon="1.69069">
        <ele>356.482452393</ele>
        <time>2015-07-04T09:32:06.547Z</time>
      </trkpt>
      <trkpt lat="44.80809" lon="1.6907">
        <ele>356.526977539</ele>
        <time>2015-07-04T09:32:14.548Z</time>
      </trkpt>
      <trkpt lat="44.80808" lon="1.69071">
        <ele>356.506652832</ele>
        <time>2015-07-04T09:32:15.564Z</time>
      </trkpt>
      <trkpt lat="44.808" lon="1.69072">
        <ele>357.082733154</ele>
        <time>2015-07-04T09:32:24.188Z</time>
      </trkpt>
      <trkpt lat="44.80798" lon="1.69072">
        <ele>357.142333984</ele>
        <time>2015-07-04T09:32:25.162Z</time>
      </trkpt>
      <trkpt lat="44.8079" lon="1.69075">
        <ele>357.223358154</ele>
        <time>2015-07-04T09:32:32.123Z</time>
      </trkpt>
      <trkpt lat="44.80789" lon="1.69075">
        <ele>357.218261719</ele>
        <time>2015-07-04T09:32:33.152Z</time>
      </trkpt>
      <trkpt lat="44.80781" lon="1.69079">
        <ele>357.243347168</ele>
        <time>2015-07-04T09:32:40.244Z</time>
      </trkpt>
      <trkpt lat="44.8078" lon="1.6908">
        <ele>357.228881836</ele>
        <time>2015-07-04T09:32:41.158Z</time>
      </trkpt>
      <trkpt lat="44.80773" lon="1.69085">
        <ele>358.040222168</ele>
        <time>2015-07-04T09:32:49.16Z</time>
      </trkpt>
      <trkpt lat="44.80771" lon="1.69086">
        <ele>358.173217773</ele>
        <time>2015-07-04T09:32:50.161Z</time>
      </trkpt>
      <trkpt lat="44.80763" lon="1.6909">
        <ele>358.897003174</ele>
        <time>2015-07-04T09:32:58.153Z</time>
      </trkpt>
      <trkpt lat="44.80761" lon="1.69091">
        <ele>358.891723633</ele>
        <time>2015-07-04T09:32:59.167Z</time>
      </trkpt>
      <trkpt lat="44.80754" lon="1.69098">
        <ele>358.941314697</ele>
        <time>2015-07-04T09:33:08.163Z</time>
      </trkpt>
      <trkpt lat="44.80754" lon="1.69098">
        <ele>358.901306152</ele>
        <time>2015-07-04T09:33:09.173Z</time>
      </trkpt>
      <trkpt lat="44.80746" lon="1.69104">
        <ele>358.443145752</ele>
        <time>2015-07-04T09:33:14.18Z</time>
      </trkpt>
      <trkpt lat="44.80745" lon="1.69106">
        <ele>358.401947021</ele>
        <time>2015-07-04T09:33:14.878Z</time>
      </trkpt>
      <trkpt lat="44.80738" lon="1.69114">
        <ele>358.188049316</ele>
        <time>2015-07-04T09:33:23.967Z</time>
      </trkpt>
      <trkpt lat="44.80737" lon="1.69116">
        <ele>358.186309814</ele>
        <time>2015-07-04T09:33:24.957Z</time>
      </trkpt>
      <trkpt lat="44.80731" lon="1.69124">
        <ele>357.877593994</ele>
        <time>2015-07-04T09:33:34.257Z</time>
      </trkpt>
      <trkpt lat="44.80729" lon="1.69126">
        <ele>357.861785889</ele>
        <time>2015-07-04T09:33:35.271Z</time>
      </trkpt>
      <trkpt lat="44.80721" lon="1.69128">
        <ele>357.575378418</ele>
        <time>2015-07-04T09:33:41.29Z</time>
      </trkpt>
      <trkpt lat="44.8072" lon="1.69129">
        <ele>357.506347656</ele>
        <time>2015-07-04T09:33:42.295Z</time>
      </trkpt>
      <trkpt lat="44.80712" lon="1.69135">
        <ele>356.74597168</ele>
        <time>2015-07-04T09:33:49.278Z</time>
      </trkpt>
      <trkpt lat="44.80711" lon="1.69136">
        <ele>356.683929443</ele>
        <time>2015-07-04T09:33:50.282Z</time>
      </trkpt>
      <trkpt lat="44.80705" lon="1.69145">
        <ele>355.971160889</ele>
        <time>2015-07-04T09:33:58.433Z</time>
      </trkpt>
      <trkpt lat="44.80704" lon="1.69146">
        <ele>355.956878662</ele>
        <time>2015-07-04T09:33:59.306Z</time>
      </trkpt>
      <trkpt lat="44.80698" lon="1.69155">
        <ele>355.803405762</ele>
        <time>2015-07-04T09:34:07.271Z</time>
      </trkpt>
      <trkpt lat="44.80698" lon="1.69156">
        <ele>355.697906494</ele>
        <time>2015-07-04T09:34:08.283Z</time>
      </trkpt>
      <trkpt lat="44.80692" lon="1.69162">
        <ele>355.255249023</ele>
        <time>2015-07-04T09:34:14.285Z</time>
      </trkpt>
      <trkpt lat="44.8069" lon="1.69163">
        <ele>355.316497803</ele>
        <time>2015-07-04T09:34:15.336Z</time>
      </trkpt>
      <trkpt lat="44.80684" lon="1.6917">
        <ele>355.050384521</ele>
        <time>2015-07-04T09:34:21.618Z</time>
      </trkpt>
      <trkpt lat="44.80683" lon="1.69171">
        <ele>354.952270508</ele>
        <time>2015-07-04T09:34:22.349Z</time>
      </trkpt>
      <trkpt lat="44.80677" lon="1.6918">
        <ele>354.937652588</ele>
        <time>2015-07-04T09:34:30.996Z</time>
      </trkpt>
      <trkpt lat="44.80677" lon="1.69182">
        <ele>354.973266602</ele>
        <time>2015-07-04T09:34:31.33Z</time>
      </trkpt>
      <trkpt lat="44.8067" lon="1.69188">
        <ele>354.871002197</ele>
        <time>2015-07-04T09:34:37.383Z</time>
      </trkpt>
      <trkpt lat="44.80669" lon="1.69189">
        <ele>354.842163086</ele>
        <time>2015-07-04T09:34:38.375Z</time>
      </trkpt>
      <trkpt lat="44.80662" lon="1.69196">
        <ele>354.955352783</ele>
        <time>2015-07-04T09:34:44.334Z</time>
      </trkpt>
      <trkpt lat="44.80662" lon="1.69197">
        <ele>354.949432373</ele>
        <time>2015-07-04T09:34:45.385Z</time>
      </trkpt>
      <trkpt lat="44.80655" lon="1.69203">
        <ele>354.994476318</ele>
        <time>2015-07-04T09:34:53.396Z</time>
      </trkpt>
      <trkpt lat="44.80653" lon="1.69204">
        <ele>355.043487549</ele>
        <time>2015-07-04T09:34:54.408Z</time>
      </trkpt>
      <trkpt lat="44.80648" lon="1.69214">
        <ele>355.135192871</ele>
        <time>2015-07-04T09:35:03.396Z</time>
      </trkpt>
      <trkpt lat="44.80647" lon="1.69215">
        <ele>355.13293457</ele>
        <time>2015-07-04T09:35:04.403Z</time>
      </trkpt>
      <trkpt lat="44.8064" lon="1.69221">
        <ele>354.964294434</ele>
        <time>2015-07-04T09:35:10.401Z</time>
      </trkpt>
      <trkpt lat="44.80639" lon="1.69222">
        <ele>354.953186035</ele>
        <time>2015-07-04T09:35:11.335Z</time>
      </trkpt>
      <trkpt lat="44.80632" lon="1.69229">
        <ele>354.455444336</ele>
        <time>2015-07-04T09:35:20.63Z</time>
      </trkpt>
      <trkpt lat="44.80631" lon="1.6923">
        <ele>354.392425537</ele>
        <time>2015-07-04T09:35:21.386Z</time>
      </trkpt>
      <trkpt lat="44.80625" lon="1.69239">
        <ele>354.42578125</ele>
        <time>2015-07-04T09:35:31.359Z</time>
      </trkpt>
      <trkpt lat="44.80624" lon="1.6924">
        <ele>354.352355957</ele>
        <time>2015-07-04T09:35:32.408Z</time>
      </trkpt>
      <trkpt lat="44.80616" lon="1.69243">
        <ele>353.851837158</ele>
        <time>2015-07-04T09:35:37.395Z</time>
      </trkpt>
      <trkpt lat="44.80614" lon="1.69245">
        <ele>353.732727051</ele>
        <time>2015-07-04T09:35:38.366Z</time>
      </trkpt>
      <trkpt lat="44.80607" lon="1.69251">
        <ele>353.547363281</ele>
        <time>2015-07-04T09:35:43.389Z</time>
      </trkpt>
      <trkpt lat="44.80606" lon="1.69252">
        <ele>353.519256592</ele>
        <time>2015-07-04T09:35:44.382Z</time>
      </trkpt>
      <trkpt lat="44.80603" lon="1.69263">
        <ele>353.575500488</ele>
        <time>2015-07-04T09:35:54.393Z</time>
      </trkpt>
      <trkpt lat="44.80602" lon="1.69264">
        <ele>353.55279541</ele>
        <time>2015-07-04T09:35:55.426Z</time>
      </trkpt>
      <trkpt lat="44.80595" lon="1.69273">
        <ele>353.581420898</ele>
        <time>2015-07-04T09:36:03.426Z</time>
      </trkpt>
      <trkpt lat="44.80594" lon="1.69274">
        <ele>353.601135254</ele>
        <time>2015-07-04T09:36:04.366Z</time>
      </trkpt>
      <trkpt lat="44.80587" lon="1.69279">
        <ele>353.248352051</ele>
        <time>2015-07-04T09:36:10.397Z</time>
      </trkpt>
      <trkpt lat="44.80586" lon="1.6928">
        <ele>353.123718262</ele>
        <time>2015-07-04T09:36:11.4Z</time>
      </trkpt>
      <trkpt lat="44.80583" lon="1.69292">
        <ele>352.150360107</ele>
        <time>2015-07-04T09:36:22.382Z</time>
      </trkpt>
      <trkpt lat="44.80583" lon="1.69293">
        <ele>352.061065674</ele>
        <time>2015-07-04T09:36:23.369Z</time>
      </trkpt>
      <trkpt lat="44.80589" lon="1.69302">
        <ele>352.139312744</ele>
        <time>2015-07-04T09:36:47.386Z</time>
      </trkpt>
      <trkpt lat="44.80589" lon="1.69303">
        <ele>352.094207764</ele>
        <time>2015-07-04T09:36:48.39Z</time>
      </trkpt>
      <trkpt lat="44.80593" lon="1.69314">
        <ele>351.684814453</ele>
        <time>2015-07-04T09:36:56.383Z</time>
      </trkpt>
      <trkpt lat="44.80593" lon="1.69315">
        <ele>351.662811279</ele>
        <time>2015-07-04T09:36:57.4Z</time>
      </trkpt>
      <trkpt lat="44.8059" lon="1.69327">
        <ele>351.556915283</ele>
        <time>2015-07-04T09:37:06.409Z</time>
      </trkpt>
      <trkpt lat="44.8059" lon="1.69328">
        <ele>351.509429932</ele>
        <time>2015-07-04T09:37:07.395Z</time>
      </trkpt>
      <trkpt lat="44.80591" lon="1.6934">
        <ele>350.345092773</ele>
        <time>2015-07-04T09:37:17.385Z</time>
      </trkpt>
      <trkpt lat="44.80591" lon="1.69342">
        <ele>350.202758789</ele>
        <time>2015-07-04T09:37:18.414Z</time>
      </trkpt>
      <trkpt lat="44.80589" lon="1.69354">
        <ele>349.148223877</ele>
        <time>2015-07-04T09:37:27.396Z</time>
      </trkpt>
      <trkpt lat="44.80588" lon="1.69356">
        <ele>348.949401855</ele>
        <time>2015-07-04T09:37:28.401Z</time>
      </trkpt>
      <trkpt lat="44.80586" lon="1.69366">
        <ele>347.6222229</ele>
        <time>2015-07-04T09:37:37.356Z</time>
      </trkpt>
      <trkpt lat="44.80586" lon="1.69368">
        <ele>347.51965332</ele>
        <time>2015-07-04T09:37:38.396Z</time>
      </trkpt>
      <trkpt lat="44.80585" lon="1.6938">
        <ele>345.892456055</ele>
        <time>2015-07-04T09:37:46.539Z</time>
      </trkpt>
      <trkpt lat="44.80584" lon="1.69381">
        <ele>345.63961792</ele>
        <time>2015-07-04T09:37:47.408Z</time>
      </trkpt>
      <trkpt lat="44.80582" lon="1.69393">
        <ele>344.004943848</ele>
        <time>2015-07-04T09:37:57.026Z</time>
      </trkpt>
      <trkpt lat="44.80582" lon="1.69394">
        <ele>343.793792725</ele>
        <time>2015-07-04T09:37:57.335Z</time>
      </trkpt>
      <trkpt lat="44.80578" lon="1.69405">
        <ele>340.642120361</ele>
        <time>2015-07-04T09:38:09.391Z</time>
      </trkpt>
      <trkpt lat="44.80577" lon="1.69406">
        <ele>340.293273926</ele>
        <time>2015-07-04T09:38:10.326Z</time>
      </trkpt>
      <trkpt lat="44.80576" lon="1.69417">
        <ele>338.337127686</ele>
        <time>2015-07-04T09:38:22.397Z</time>
      </trkpt>
      <trkpt lat="44.80575" lon="1.69419">
        <ele>338.274749756</ele>
        <time>2015-07-04T09:38:23.401Z</time>
      </trkpt>
      <trkpt lat="44.80572" lon="1.69429">
        <ele>337.706115723</ele>
        <time>2015-07-04T09:38:31.409Z</time>
      </trkpt>
      <trkpt lat="44.80572" lon="1.69431">
        <ele>337.724487305</ele>
        <time>2015-07-04T09:38:32.463Z</time>
      </trkpt>
      <trkpt lat="44.80568" lon="1.69442">
        <ele>337.711975098</ele>
        <time>2015-07-04T09:38:43.395Z</time>
      </trkpt>
      <trkpt lat="44.80568" lon="1.69443">
        <ele>337.703033447</ele>
        <time>2015-07-04T09:38:44.405Z</time>
      </trkpt>
      <trkpt lat="44.80564" lon="1.69453">
        <ele>337.251342773</ele>
        <time>2015-07-04T09:38:52.441Z</time>
      </trkpt>
      <trkpt lat="44.80564" lon="1.69454">
        <ele>337.226531982</ele>
        <time>2015-07-04T09:38:53.345Z</time>
      </trkpt>
      <trkpt lat="44.80559" lon="1.69465">
        <ele>336.927185059</ele>
        <time>2015-07-04T09:39:03.403Z</time>
      </trkpt>
      <trkpt lat="44.80558" lon="1.69467">
        <ele>336.89352417</ele>
        <time>2015-07-04T09:39:04.419Z</time>
      </trkpt>
      <trkpt lat="44.8055" lon="1.69473">
        <ele>336.094146729</ele>
        <time>2015-07-04T09:39:10.325Z</time>
      </trkpt>
      <trkpt lat="44.8055" lon="1.69475">
        <ele>335.850097656</ele>
        <time>2015-07-04T09:39:11.376Z</time>
      </trkpt>
      <trkpt lat="44.80542" lon="1.69482">
        <ele>334.364929199</ele>
        <time>2015-07-04T09:39:24.349Z</time>
      </trkpt>
      <trkpt lat="44.80542" lon="1.69483">
        <ele>334.325775146</ele>
        <time>2015-07-04T09:39:25.321Z</time>
      </trkpt>
      <trkpt lat="44.80542" lon="1.69484">
        <ele>333.942077637</ele>
        <time>2015-07-04T09:39:36.431Z</time>
      </trkpt>
    </trkseg>
  </trk>
</gpx>